[[{"header":{"parameterUnit":"m.s-1","parameterCategory":1,"la1":30.6,"la2":29.2853,"lo1":-89.7004,"lo2":-87.6739,"dy":0.0162,"dx":0.0183,"nx":112,"ny":82,"refTime":"2023-11-08T06:00:00:Z","depth":0,"parameterNumber":2,"parameterNumberName":"U-component_of_WINDS"},"data":[0.0,0.0,0.0,0.0,0.0,0.0,0.0,0.0,0.0,0.0,0.0,0.0,0.0,0.0,0.0,0.0,0.0,0.0,0.0,0.0,0.0,0.0,0.0,0.0,0.0,0.0,0.0,0.0,0.0,0.0,0.0,0.0,0.0,0.0,0.0,0.0,0.0,0.0,0.0,0.0,0.0,0.0,0.0,0.0,0.0,0.0,0.0,0.0,0.0,0.0,0.0,0.0,0.0,0.0,0.0,0.0,0.0,0.0,0.0,0.0,0.0,0.0,0.0,0.0,0.0,0.0,0.0,0.0,0.0,0.0,0.0,0.0,0.0,0.0,0.0,0.0,0.0,0.0,0.0,0.0,0.0,0.0,0.0,0.0,0.0,0.0,0.0,0.0,0.0,0.0,2.6499,2.6499,2.6499,2.6499,2.6499,2.6499,2.6499,2.6499,0.0,0.0,0.0,0.0,0.0,0.0,0.0,0.0,0.0,0.0,0.0,0.0,0.0,0.0,0.0,0.0,0.0,0.0,0.0,0.0,0.0,0.0,0.0,0.0,0.0,0.0,0.0,0.0,0.0,0.0,0.0,0.0,0.0,0.0,0.0,0.0,0.0,0.0,0.0,0.0,0.0,0.0,0.0,0.0,0.0,0.0,0.0,0.0,0.0,0.0,0.0,0.0,0.0,0.0,0.0,0.0,0.0,0.0,0.0,0.0,0.0,0.0,0.0,0.0,0.0,0.0,0.0,0.0,0.0,0.0,0.0,0.0,0.0,0.0,0.0,0.0,0.0,0.0,0.0,0.0,0.0,0.0,0.0,0.0,0.0,0.0,0.0,0.0,0.0,0.0,0.0,0.0,0.0,0.0,0.0,0.0,0.0,0.0,0.0,0.0,0.0,0.0,0.0,0.0,2.6499,2.6499,2.6499,2.6499,2.6499,2.6499,2.6499,2.6499,0.0,0.0,0.0,0.0,0.0,0.0,0.0,0.0,0.0,0.0,0.0,0.0,0.0,0.0,0.0,0.0,0.0,0.0,0.0,0.0,0.0,0.0,0.0,0.0,0.0,0.0,0.0,0.0,0.0,0.0,0.0,0.0,0.0,0.0,0.0,0.0,0.0,0.0,0.0,0.0,0.0,0.0,0.0,0.0,0.0,0.0,0.0,0.0,0.0,0.0,0.0,0.0,0.0,0.0,0.0,0.0,0.0,0.0,0.0,0.0,0.0,0.0,0.0,0.0,0.0,0.0,0.0,0.0,0.0,0.0,0.0,0.0,0.0,0.0,0.0,0.0,0.0,0.0,0.0,0.0,0.0,0.0,0.0,0.0,0.0,0.0,0.0,0.0,0.0,0.0,0.0,0.0,0.0,0.0,0.0,0.0,0.0,0.0,0.0,0.0,0.0,0.0,0.0,2.6499,2.6499,2.6499,2.6499,2.6499,2.6499,2.6763,2.6813,2.6512,2.6776,0.0,0.0,0.0,0.0,0.0,0.0,0.0,0.0,0.0,0.0,0.0,0.0,0.0,0.0,0.0,0.0,0.0,0.0,0.0,0.0,0.0,0.0,0.0,0.0,0.0,0.0,0.0,0.0,0.0,0.0,0.0,0.0,0.0,0.0,0.0,0.0,0.0,0.0,0.0,0.0,0.0,0.0,0.0,0.0,0.0,0.0,0.0,0.0,0.0,0.0,0.0,0.0,0.0,0.0,0.0,0.0,0.0,0.0,0.0,0.0,0.0,0.0,0.0,0.0,0.0,0.0,0.0,0.0,0.0,0.0,0.0,0.0,0.0,0.0,0.0,0.0,0.0,0.0,0.0,0.0,0.0,0.0,0.0,0.0,0.0,0.0,0.0,0.0,0.0,0.0,0.0,0.0,0.0,0.0,0.0,0.0,0.0,0.0,0.0,0.0,0.0,0.0,2.6801,2.6889,2.6889,2.6889,2.6889,2.6889,2.7248,2.7311,2.6901,2.7261,0.0,0.0,0.0,0.0,0.0,0.0,0.0,0.0,0.0,0.0,0.0,0.0,0.0,0.0,0.0,0.0,0.0,0.0,0.0,0.0,0.0,0.0,0.0,0.0,0.0,0.0,0.0,0.0,0.0,0.0,0.0,0.0,0.0,0.0,0.0,0.0,0.0,0.0,0.0,0.0,0.0,0.0,0.0,0.0,0.0,0.0,0.0,0.0,0.0,0.0,0.0,0.0,0.0,0.0,0.0,0.0,0.0,0.0,0.0,0.0,0.0,0.0,0.0,0.0,0.0,0.0,0.0,0.0,0.0,0.0,0.0,0.0,0.0,0.0,0.0,0.0,0.0,0.0,0.0,0.0,0.0,0.0,0.0,0.0,0.0,0.0,0.0,0.0,0.0,0.0,0.0,0.0,0.0,0.0,0.0,0.0,0.0,0.0,0.0,0.0,0.0,0.0,2.767,2.7996,2.7996,2.7996,2.7996,2.7996,2.8021,2.8034,2.7996,2.8021,0.0,0.0,0.0,0.0,0.0,0.0,0.0,0.0,0.0,0.0,0.0,0.0,0.0,0.0,0.0,0.0,0.0,0.0,0.0,0.0,0.0,0.0,0.0,0.0,0.0,0.0,0.0,0.0,0.0,0.0,0.0,0.0,0.0,0.0,0.0,0.0,0.0,0.0,0.0,0.0,0.0,0.0,0.0,0.0,0.0,0.0,0.0,0.0,0.0,0.0,0.0,0.0,0.0,0.0,0.0,0.0,0.0,0.0,0.0,0.0,0.0,0.0,0.0,0.0,0.0,0.0,0.0,0.0,0.0,0.0,0.0,0.0,0.0,0.0,0.0,0.0,0.0,0.0,0.0,0.0,0.0,0.0,0.0,0.0,0.0,0.0,0.0,0.0,0.0,0.0,0.0,0.0,0.0,0.0,0.0,0.0,0.0,0.0,0.0,0.0,0.0,0.0,2.7875,2.7957,0.0,2.8109,2.8054,2.792,2.8207,2.8257,2.7933,0.0,0.0,0.0,0.0,0.0,0.0,0.0,0.0,0.0,0.0,0.0,0.0,0.0,0.0,0.0,0.0,0.0,0.0,0.0,0.0,0.0,0.0,0.0,0.0,0.0,0.0,0.0,0.0,0.0,0.0,0.0,0.0,0.0,0.0,0.0,0.0,0.0,0.0,0.0,0.0,0.0,0.0,0.0,0.0,0.0,0.0,0.0,0.0,0.0,0.0,0.0,0.0,0.0,0.0,0.0,0.0,0.0,0.0,0.0,0.0,0.0,0.0,0.0,0.0,0.0,0.0,0.0,0.0,0.0,0.0,0.0,0.0,0.0,0.0,0.0,0.0,0.0,0.0,0.0,0.0,0.0,0.0,0.0,0.0,0.0,0.0,0.0,0.0,0.0,0.0,0.0,0.0,0.0,0.0,0.0,0.0,0.0,0.0,0.0,0.0,0.0,0.0,2.825,2.8282,2.8338,0.0,2.8419,2.8356,2.8219,2.8559,2.8609,2.8243,0.0,0.0,0.0,0.0,0.0,0.0,0.0,0.0,0.0,0.0,0.0,0.0,0.0,0.0,0.0,0.0,0.0,0.0,0.0,0.0,0.0,0.0,0.0,0.0,0.0,0.0,0.0,0.0,0.0,0.0,0.0,0.0,0.0,0.0,0.0,0.0,0.0,0.0,0.0,0.0,0.0,0.0,0.0,0.0,0.0,0.0,0.0,0.0,0.0,0.0,0.0,0.0,0.0,0.0,0.0,0.0,0.0,0.0,0.0,0.0,0.0,0.0,0.0,0.0,0.0,0.0,0.0,0.0,0.0,0.0,0.0,0.0,0.0,0.0,0.0,0.0,0.0,0.0,0.0,0.0,0.0,0.0,0.0,0.0,0.0,0.0,0.0,0.0,0.0,0.0,0.0,0.0,0.0,0.0,0.0,0.0,0.0,0.0,0.0,0.0,0.0,0.0,2.863,2.9064,2.9321,2.9131,2.9091,2.9091,2.9091,2.9091,2.9091,0.0,0.0,0.0,0.0,0.0,0.0,0.0,0.0,0.0,0.0,0.0,0.0,0.0,0.0,0.0,0.0,0.0,0.0,0.0,0.0,0.0,0.0,0.0,0.0,0.0,0.0,0.0,0.0,0.0,0.0,0.0,0.0,0.0,0.0,0.0,0.0,0.0,0.0,0.0,0.0,0.0,0.0,0.0,0.0,0.0,0.0,0.0,0.0,0.0,0.0,0.0,0.0,0.0,0.0,0.0,0.0,0.0,0.0,0.0,0.0,0.0,0.0,0.0,0.0,0.0,0.0,0.0,0.0,0.0,0.0,0.0,0.0,0.0,0.0,0.0,0.0,0.0,0.0,0.0,0.0,0.0,0.0,0.0,0.0,0.0,0.0,0.0,0.0,0.0,0.0,0.0,0.0,0.0,0.0,0.0,0.0,0.0,0.0,0.0,0.0,0.0,0.0,0.0,2.9163,2.9047,2.902,2.9091,2.9091,2.9052,2.8902,2.8882,2.8882,2.8882,0.0,0.0,0.0,0.0,0.0,0.0,0.0,0.0,0.0,0.0,0.0,0.0,0.0,0.0,0.0,0.0,0.0,0.0,0.0,0.0,0.0,0.0,0.0,0.0,0.0,0.0,0.0,0.0,0.0,0.0,0.0,0.0,0.0,0.0,0.0,0.0,0.0,0.0,0.0,0.0,0.0,0.0,0.0,0.0,0.0,0.0,0.0,0.0,0.0,0.0,0.0,0.0,0.0,0.0,0.0,0.0,0.0,0.0,0.0,0.0,0.0,0.0,0.0,0.0,0.0,0.0,0.0,0.0,0.0,0.0,0.0,0.0,0.0,0.0,0.0,0.0,0.0,0.0,0.0,0.0,0.0,0.0,0.0,0.0,0.0,0.0,0.0,0.0,0.0,0.0,0.0,0.0,0.0,0.0,0.0,0.0,0.0,0.0,0.0,0.0,0.0,0.0,2.9571,2.9319,2.9225,2.9476,2.95,2.9448,2.9326,2.9133,2.8859,2.8505,0.0,0.0,0.0,0.0,0.0,0.0,0.0,0.0,0.0,0.0,0.0,0.0,0.0,0.0,0.0,0.0,0.0,0.0,0.0,0.0,0.0,0.0,0.0,0.0,0.0,0.0,0.0,0.0,0.0,0.0,0.0,0.0,0.0,0.0,0.0,0.0,0.0,0.0,0.0,0.0,0.0,0.0,0.0,0.0,0.0,0.0,0.0,0.0,0.0,0.0,0.0,0.0,0.0,0.0,0.0,0.0,0.0,0.0,0.0,0.0,0.0,0.0,0.0,0.0,0.0,0.0,0.0,0.0,0.0,0.0,0.0,0.0,0.0,0.0,0.0,0.0,0.0,0.0,0.0,0.0,0.0,0.0,0.0,0.0,0.0,0.0,0.0,0.0,0.0,0.0,0.0,0.0,0.0,0.0,0.0,0.0,0.0,0.0,0.0,0.0,0.0,0.0,2.9942,2.978,2.9718,2.9942,2.9947,2.9926,2.9821,2.9392,2.8763,2.7979,0.0,0.0,0.0,0.0,0.0,0.0,0.0,0.0,0.0,0.0,0.0,0.0,0.0,0.0,0.0,0.0,0.0,0.0,0.0,0.0,0.0,0.0,0.0,0.0,0.0,0.0,0.0,0.0,0.0,0.0,0.0,0.0,0.0,0.0,0.0,0.0,0.0,0.0,0.0,0.0,0.0,0.0,0.0,0.0,0.0,0.0,0.0,0.0,0.0,0.0,0.0,0.0,0.0,0.0,0.0,0.0,0.0,0.0,0.0,0.0,3.1842,0.0,0.0,0.0,0.0,0.0,0.0,0.0,0.0,0.0,0.0,0.0,0.0,0.0,0.0,0.0,0.0,0.0,0.0,0.0,0.0,0.0,0.0,0.0,0.0,0.0,0.0,0.0,0.0,0.0,0.0,0.0,0.0,0.0,0.0,0.0,0.0,0.0,0.0,0.0,0.0,0.0,3.0552,3.025,2.9711,2.9009,2.8914,2.8601,2.7809,2.7644,2.749,2.7294,2.7358,0.0,0.0,0.0,0.0,0.0,0.0,0.0,0.0,0.0,0.0,0.0,0.0,0.0,0.0,0.0,0.0,0.0,0.0,0.0,0.0,0.0,0.0,0.0,0.0,0.0,0.0,0.0,0.0,0.0,0.0,0.0,0.0,0.0,0.0,0.0,0.0,0.0,0.0,0.0,0.0,0.0,0.0,0.0,0.0,0.0,0.0,0.0,0.0,0.0,0.0,0.0,0.0,0.0,0.0,0.0,0.0,0.0,0.0,0.0,0.0,3.1727,0.0,0.0,0.0,0.0,0.0,0.0,0.0,0.0,0.0,0.0,0.0,0.0,0.0,0.0,0.0,0.0,0.0,0.0,0.0,0.0,0.0,0.0,0.0,0.0,0.0,0.0,0.0,0.0,0.0,0.0,0.0,0.0,0.0,0.0,0.0,0.0,0.0,0.0,0.0,0.0,3.0929,3.0683,3.0384,3.0112,2.9665,2.9157,2.8634,2.7909,2.7308,2.6881,2.7003,0.0,0.0,0.0,0.0,0.0,0.0,0.0,0.0,0.0,0.0,0.0,0.0,0.0,0.0,0.0,0.0,0.0,0.0,0.0,0.0,0.0,0.0,0.0,0.0,0.0,0.0,0.0,0.0,0.0,0.0,0.0,0.0,0.0,0.0,0.0,0.0,0.0,0.0,0.0,0.0,0.0,0.0,0.0,0.0,0.0,0.0,0.0,0.0,0.0,0.0,0.0,0.0,0.0,3.3011,3.313,3.3544,3.3544,3.313,3.2376,3.209,3.2055,3.2179,0.0,0.0,0.0,0.0,0.0,0.0,0.0,0.0,0.0,0.0,0.0,0.0,0.0,0.0,0.0,0.0,0.0,0.0,0.0,0.0,0.0,0.0,0.0,0.0,0.0,3.0814,3.0871,0.0,0.0,0.0,0.0,0.0,0.0,0.0,0.0,0.0,0.0,0.0,0.0,3.1016,3.0761,3.0631,3.0889,3.017,2.9612,2.9429,2.8251,2.7209,2.6488,2.6701,2.6615,0.0,0.0,0.0,0.0,0.0,0.0,0.0,0.0,0.0,0.0,0.0,0.0,0.0,0.0,0.0,0.0,0.0,0.0,0.0,0.0,0.0,0.0,0.0,0.0,0.0,0.0,0.0,0.0,0.0,0.0,0.0,0.0,3.3892,3.3876,0.0,0.0,0.0,0.0,0.0,0.0,0.0,0.0,0.0,0.0,0.0,0.0,0.0,0.0,3.355,3.2905,3.2614,3.2692,3.1973,3.1663,3.1739,3.1739,3.1678,3.1557,3.1506,0.0,3.247,3.1771,0.0,0.0,0.0,0.0,0.0,0.0,0.0,0.0,0.0,0.0,0.0,0.0,0.0,0.0,0.0,0.0,0.0,0.0,0.0,0.0,0.0,0.0,3.0626,3.1246,3.1259,3.1266,0.0,3.129,3.0741,3.0741,0.0,0.0,0.0,0.0,0.0,0.0,0.0,0.0,3.0514,2.9647,2.8673,2.7876,2.7675,2.7247,2.6366,2.6099,2.5949,2.5838,2.5851,2.6223,2.699,2.6176,0.0,0.0,0.0,0.0,0.0,0.0,0.0,0.0,0.0,0.0,0.0,0.0,0.0,0.0,0.0,0.0,0.0,0.0,0.0,0.0,0.0,0.0,0.0,0.0,0.0,0.0,0.0,0.0,0.0,3.3858,3.3849,3.4178,3.4163,3.4288,0.0,0.0,0.0,0.0,0.0,0.0,0.0,0.0,0.0,3.288,3.3095,3.2955,3.2415,3.2089,3.2253,3.2891,3.2516,3.2667,3.3235,3.3235,3.3235,3.3235,3.3235,3.3451,3.3658,3.2066,3.161,3.188,0.0,0.0,0.0,0.0,0.0,3.1406,3.1406,0.0,0.0,0.0,0.0,0.0,0.0,0.0,0.0,0.0,0.0,0.0,0.0,0.0,0.0,3.1569,3.1552,3.1547,3.1767,3.154,3.1299,0.0,3.0973,3.0766,3.1342,0.0,0.0,0.0,0.0,2.9307,2.9765,2.9354,2.8968,2.8783,2.8258,2.7756,2.7319,2.6552,2.6079,2.6079,2.5854,2.5893,2.6346,2.5941,2.5828,0.0,0.0,0.0,0.0,0.0,0.0,0.0,0.0,0.0,0.0,0.0,0.0,0.0,0.0,0.0,0.0,0.0,0.0,0.0,0.0,0.0,0.0,0.0,0.0,0.0,0.0,0.0,0.0,3.426,3.4157,3.4595,3.4196,3.4111,0.0,0.0,0.0,0.0,0.0,0.0,3.364,3.3769,3.3501,3.2748,3.2863,3.2718,3.224,3.224,3.2667,3.3517,3.3517,3.3997,3.4916,3.4916,3.4916,3.4916,3.4916,3.4828,3.4577,3.293,3.224,3.2227,3.2089,3.2039,3.2014,3.1896,3.1893,3.1943,3.1943,3.1909,3.1843,3.1843,0.0,3.1608,3.1948,0.0,0.0,0.0,0.0,3.2651,3.2406,0.0,3.2283,3.2149,3.2104,3.2025,3.1743,3.1676,3.1705,0.0,3.1188,3.0808,3.1563,0.0,0.0,0.0,0.0,2.8767,2.9061,2.8862,2.8855,2.9204,2.8562,2.8121,2.8121,2.7172,2.6543,2.6543,2.6225,2.5991,2.5884,2.5884,2.5825,2.5693,0.0,0.0,0.0,0.0,0.0,0.0,0.0,0.0,0.0,0.0,0.0,0.0,0.0,0.0,0.0,0.0,0.0,0.0,0.0,0.0,0.0,0.0,0.0,0.0,0.0,0.0,0.0,0.0,0.0,3.5348,3.5103,0.0,0.0,0.0,0.0,3.3739,3.3723,3.3422,3.2705,3.3156,3.3307,3.3075,3.356,3.4067,3.4527,3.4527,3.4552,3.4615,3.4615,3.4916,3.5458,3.5458,3.5458,3.5458,3.5458,3.5157,3.469,3.4577,3.4527,3.4477,3.3972,3.3771,3.3709,3.3203,3.3189,3.3384,3.3384,3.3598,3.3838,3.3838,3.385,3.3805,3.3565,3.3694,0.0,0.0,3.3545,3.3488,3.3293,3.3223,3.3235,3.3223,3.3223,3.2909,3.1853,3.1604,3.1622,0.0,3.1211,3.0788,3.0846,0.0,2.9957,3.0005,2.9148,2.8524,2.8545,2.7713,2.711,2.7165,2.7114,2.7088,2.7088,2.7018,2.6982,2.6982,2.6937,2.6752,2.6367,2.6357,2.6162,2.5718,2.5693,0.0,0.0,0.0,0.0,0.0,0.0,0.0,0.0,0.0,0.0,0.0,0.0,0.0,0.0,0.0,0.0,0.0,0.0,0.0,0.0,0.0,0.0,0.0,0.0,0.0,0.0,0.0,0.0,3.4251,3.3805,0.0,3.4118,3.3757,3.3647,3.401,3.3898,3.3858,3.395,3.4123,3.4195,3.4123,3.4653,3.5029,3.5207,3.5604,3.5979,3.6307,3.6307,3.6596,3.7112,3.7112,3.7112,3.7112,3.7112,3.6999,3.6811,3.6811,3.5983,3.4678,3.449,3.4402,3.4377,3.4211,3.4083,3.4007,3.4007,3.3894,3.3722,3.3596,3.3562,3.3539,3.3447,3.3458,3.3539,3.3434,3.3629,3.3836,3.3765,3.4006,3.4078,3.3342,3.316,3.2856,3.1673,3.1412,3.1412,3.1425,3.0285,2.9529,3.0158,2.9056,2.8287,2.8925,2.8186,2.7625,2.795,2.7655,2.7539,2.7812,2.7842,2.7842,2.7842,2.7588,2.7457,2.7457,2.7168,2.6943,2.6797,2.6797,2.6719,2.6537,2.6264,2.6162,0.0,0.0,0.0,0.0,0.0,0.0,0.0,0.0,0.0,0.0,0.0,0.0,0.0,0.0,0.0,0.0,0.0,0.0,0.0,0.0,0.0,0.0,0.0,0.0,0.0,0.0,3.3495,3.397,3.3701,3.3658,3.4166,3.399,3.3985,3.4324,3.441,3.459,3.4954,3.5155,3.5366,3.5542,3.5882,3.6158,3.6346,3.6734,3.7122,3.7462,3.7462,3.7751,3.8304,3.8304,3.8304,3.8304,3.8304,3.8191,3.8002,3.8002,3.7076,3.5655,3.548,3.5405,3.538,3.5087,3.4929,3.4904,3.4982,3.4783,3.451,3.439,3.4342,3.4342,3.4342,3.4342,3.4342,3.4342,3.4583,3.4811,3.4811,3.4757,3.4547,3.3793,3.33,3.2711,3.1509,3.1273,3.1168,3.0811,2.9855,2.9361,3.0022,2.8889,2.8108,2.8767,2.8308,2.7978,2.8298,2.8337,2.8445,2.8718,2.8748,2.8748,2.8748,2.8494,2.8269,2.8096,2.7812,2.7477,2.7082,2.7185,2.7117,2.6858,2.6612,2.6416,2.6299,0.0,0.0,0.0,0.0,0.0,0.0,0.0,0.0,0.0,0.0,0.0,0.0,0.0,0.0,0.0,0.0,0.0,0.0,0.0,0.0,0.0,0.0,0.0,3.3724,3.4286,3.4684,3.4711,3.4992,3.5191,3.5217,3.4911,3.4741,3.4778,3.5268,3.5558,3.5571,3.6119,3.6683,3.7223,3.7248,3.7487,3.8027,3.8065,3.809,3.809,3.8103,3.8404,3.8969,3.8969,3.8969,3.8969,3.8969,3.863,3.8078,3.8078,3.7917,3.763,3.7059,3.6836,3.6713,3.5854,3.5758,3.6061,3.6306,3.6411,3.6411,3.6411,3.6411,3.6411,3.6411,3.6373,3.6348,3.6348,3.6334,3.6321,3.6321,3.5451,3.4571,3.4545,3.3703,3.2593,3.1428,3.1182,3.0891,2.9851,3.0063,3.0415,3.0385,2.9929,2.9598,2.9598,2.9598,0.0,2.9598,2.9598,2.9598,2.9598,2.9598,2.9598,2.9598,2.9598,2.9385,2.8937,2.8918,2.8402,2.7278,2.7558,2.738,2.6641,2.6631,2.6442,2.6088,0.0,0.0,0.0,0.0,0.0,0.0,0.0,0.0,0.0,0.0,0.0,0.0,0.0,0.0,0.0,0.0,0.0,0.0,0.0,0.0,0.0,0.0,3.4714,3.4786,3.4393,3.4251,3.4639,3.4796,3.4984,3.5367,3.5329,3.5631,3.6445,3.6646,3.691,3.7287,3.7475,3.7626,3.7776,3.8191,3.8504,3.8655,3.9421,3.9797,3.9835,4.0211,4.0487,4.0637,4.0637,4.0637,4.0637,4.0637,4.0431,4.0097,4.0097,3.9911,3.9473,3.7964,3.7258,3.7072,3.6812,3.6675,3.6571,3.6439,3.6411,3.6411,3.6411,3.6411,3.6411,3.6411,3.5788,3.5083,3.5083,3.4735,3.4358,3.4358,3.4422,3.4235,3.3418,3.2994,3.2443,3.1244,3.0968,3.0892,3.0614,3.0649,3.0553,2.9937,2.9705,2.9598,2.9598,2.9598,0.0,2.9598,2.9598,2.9598,2.9598,2.9598,2.9598,2.9598,2.9374,2.9186,2.9042,2.8809,2.8546,2.8235,2.8309,2.7993,2.7207,2.7188,2.6814,0.0,0.0,0.0,0.0,0.0,0.0,0.0,0.0,0.0,0.0,0.0,0.0,0.0,0.0,0.0,0.0,0.0,0.0,0.0,0.0,0.0,0.0,3.4654,3.5146,3.5644,3.505,3.469,3.5004,3.5456,3.5881,3.6183,3.6422,3.6811,3.7475,3.7776,3.8052,3.8354,3.8592,3.8818,3.9057,3.9383,3.9672,3.9898,4.0512,4.0838,4.0838,4.1152,4.1315,4.1315,4.1315,4.1315,0.0,4.1168,4.1033,4.0898,4.075,4.0505,0.0,0.0,0.0,0.0,0.0,3.8125,3.7877,3.7192,3.6941,3.6861,3.6302,3.6102,3.6102,3.6102,3.5631,3.5048,3.5048,3.4781,3.4488,3.4488,3.4338,3.4021,3.335,3.2847,3.2311,3.1604,3.1455,3.1455,3.1455,0.0,0.0,3.0781,3.039,3.0146,3.0146,3.0146,3.0146,3.0146,3.0146,3.0089,2.9937,2.9937,2.988,2.9746,2.9546,0.0,0.0,0.0,2.8814,2.8606,2.8484,0.0,0.0,0.0,2.7442,2.6803,0.0,0.0,0.0,2.5937,2.5942,0.0,0.0,0.0,0.0,0.0,0.0,0.0,0.0,0.0,0.0,0.0,0.0,0.0,0.0,0.0,0.0,3.455,3.5278,3.6331,3.6144,3.5846,3.5784,3.6684,3.7323,3.7399,3.7814,3.8153,3.8278,3.8793,3.9107,3.917,0.0,0.0,0.0,0.0,4.0826,4.1302,4.1378,4.144,4.1503,4.1553,4.1628,4.1679,4.1679,4.1679,4.1652,4.138,4.1243,4.1188,4.0847,4.0572,4.0286,4.0044,3.9959,3.9904,3.953,3.9376,0.0,0.0,0.0,0.0,3.6081,3.5704,3.5704,3.5704,3.5605,3.55,3.55,3.5412,3.5295,3.5295,3.4503,3.3723,3.3723,3.2945,3.2198,3.2198,3.2198,3.2198,3.2198,3.2198,3.2198,3.2198,3.1563,3.1035,3.1035,3.1035,3.1035,3.1035,3.1035,3.0908,3.0556,0.0,0.0,3.0064,3.0005,2.9835,2.9428,2.9295,2.9077,2.8672,2.8274,2.8046,2.8,2.8,2.7773,2.7347,2.7499,2.688,2.5588,2.5919,2.5891,0.0,0.0,0.0,0.0,0.0,0.0,0.0,0.0,0.0,0.0,0.0,0.0,0.0,0.0,0.0,3.5077,3.5692,3.6293,3.6959,3.7751,3.8052,3.7563,3.7713,3.8027,3.8517,3.8668,3.9069,3.9935,4.011,4.0361,4.0813,4.0938,0.0,4.1152,4.1152,4.1202,4.1315,4.1769,4.2248,4.2672,0.0,0.0,4.3962,4.3962,4.3962,4.3962,4.3688,4.3412,4.3139,4.279,4.2498,4.2095,4.0355,3.968,3.9542,3.8475,3.8069,3.7872,3.6553,3.6081,3.6052,3.5791,3.5704,3.5704,3.5704,3.5032,0.0,3.4247,3.3584,3.2864,3.2864,3.2693,3.2512,3.2512,3.2371,3.2198,3.2198,3.2198,3.2198,3.2198,3.2198,3.2198,3.2198,3.2061,3.1954,3.1954,3.1954,3.1954,3.1954,3.1954,3.1793,3.1421,3.136,3.1239,3.0914,3.0661,3.0361,2.9959,2.9376,2.9015,2.8932,2.7831,2.707,2.6748,2.6739,2.6027,2.4586,2.5671,2.5497,2.4205,2.5345,2.5267,0.0,0.0,0.0,0.0,0.0,0.0,0.0,0.0,0.0,0.0,0.0,3.4266,0.0,0.0,3.5416,3.6208,3.6835,3.7411,3.7977,3.8542,3.8793,3.8504,3.868,3.9069,3.9647,3.9697,4.0036,4.0838,4.0901,4.1026,4.1302,4.1315,4.144,4.1743,4.202,4.2296,4.2544,4.3112,4.3526,4.3802,4.4079,4.4326,4.4589,4.4457,4.4411,4.4382,4.3885,4.3603,4.3425,4.3117,4.2508,4.1645,4.0552,4.0153,3.9995,3.8636,3.816,3.7951,3.6642,3.6067,3.5744,3.5126,3.4758,3.4542,3.4542,3.4116,3.3647,3.3647,3.3237,3.2793,3.2793,3.2793,3.2793,3.2793,3.2793,3.2793,3.2793,3.2793,3.2793,3.2793,3.2793,3.2793,3.2793,3.2793,3.2656,3.2257,3.2198,3.2137,3.1915,3.1884,3.1701,3.1202,3.1141,3.1018,3.0689,3.0535,3.0063,2.9167,2.8746,2.8548,2.8548,2.7199,2.6705,2.7226,2.6544,2.5716,2.4863,2.5507,2.5178,2.393,2.4594,2.4501,0.0,0.0,0.0,0.0,0.0,0.0,0.0,3.3845,3.352,3.3972,3.4148,3.4525,3.5493,3.6146,3.6772,3.7436,3.7877,3.8379,3.8969,3.9158,3.922,3.922,3.9584,4.0036,4.0449,4.0587,4.0876,4.1428,4.1465,4.1566,4.1779,4.1792,4.207,4.265,4.3102,4.3514,4.3953,4.4376,4.4652,4.4752,4.4752,4.4786,4.4828,4.4618,4.4483,4.4353,4.3468,4.2928,4.2614,4.2372,4.1617,4.0567,4.0307,4.0183,4.0036,3.8711,3.8226,3.8037,3.6754,3.6069,3.5581,3.4534,3.3955,3.364,3.364,3.364,3.364,3.364,3.364,3.364,3.364,3.364,3.364,3.364,3.364,3.364,3.364,3.364,3.364,3.364,3.3608,3.3554,3.3554,3.349,3.3199,3.2539,3.245,3.2345,3.1996,3.198,3.1789,3.1218,3.1186,3.1002,3.0593,3.0406,2.9735,2.8309,2.8146,2.7977,2.7685,2.6288,2.6096,2.7274,2.6128,2.5399,2.5134,2.5399,2.4859,2.3616,2.3616,2.3557,3.5939,3.5278,3.4551,3.453,3.4225,3.395,0.0,0.0,3.454,3.459,3.4992,3.5531,3.618,3.6746,3.7474,3.8529,3.8756,3.8994,3.9521,4.0023,4.0311,4.0311,4.0361,4.0424,4.0487,4.0938,4.1453,4.2047,4.2097,4.2524,4.3476,4.3526,4.3777,4.4301,4.4376,4.4439,4.4502,4.4564,4.4882,4.5397,4.5397,4.5487,4.5661,4.5631,4.5462,4.5085,4.3445,4.1917,4.0523,4.0491,4.0394,4.0136,3.8866,3.8373,3.8278,3.729,3.6914,3.6732,3.5396,3.4887,3.4815,3.4694,3.46,3.4551,3.4551,3.4551,3.4551,3.4551,3.4551,3.4551,3.4551,3.4551,3.4551,3.4551,3.4551,3.4551,3.4551,3.4551,3.4551,3.4551,3.4318,3.4108,3.4108,3.3803,3.3507,3.3292,3.3317,3.3335,3.3293,3.3346,3.3223,3.2875,3.2842,3.2538,3.1869,3.1139,3.014,2.8721,2.83,2.7495,2.6192,2.4891,2.4291,2.4453,2.4291,2.3641,2.2438,2.3641,2.3543,2.2215,2.2215,2.2206,3.4421,3.4177,3.4096,3.4096,3.4246,3.4439,3.4753,3.5017,3.5355,3.6019,3.6332,3.6772,3.7688,3.8027,3.8454,0.0,3.9622,3.991,4.0136,4.0625,4.0964,4.0964,4.1279,4.1494,4.1494,4.1681,4.2072,4.2612,4.2951,4.3341,4.3777,4.4104,4.4351,4.4589,4.4945,4.5121,4.5121,4.5447,4.5723,4.5962,4.5782,4.5727,4.5787,4.5392,4.4601,4.3521,4.2776,4.1589,4.0203,4.0203,3.9714,3.8926,3.8341,3.7585,3.6826,3.6446,3.6283,3.6217,3.566,3.5312,3.5107,3.5107,3.4922,3.4697,3.4697,3.4697,3.4697,3.4697,3.4697,3.4697,3.4697,3.4697,3.4697,3.4697,3.4697,3.4697,3.4697,3.4697,3.4632,3.4435,3.4299,3.412,3.388,3.3714,3.3591,3.3524,3.3554,3.3495,3.3289,3.3284,3.3188,3.2822,3.2822,3.269,3.2368,3.1219,2.9916,2.8517,2.7425,2.6532,2.5933,2.4612,2.4277,2.5108,2.4311,2.3605,2.3061,2.3605,2.3605,2.3061,2.3061,2.3061,3.3489,3.3709,3.4161,3.4289,3.4753,3.5305,3.5857,3.6072,3.6422,3.7249,3.7562,3.7926,3.8743,3.9019,3.9308,3.9835,4.0262,4.0537,4.07,4.1189,4.1541,4.1541,4.2045,4.2474,4.2625,4.2637,4.2801,4.3203,4.3714,4.4104,4.4254,4.4644,4.4932,4.5054,4.5497,4.5711,4.5711,4.6112,4.6313,4.6313,4.6029,4.5848,4.5635,4.457,4.324,4.1697,4.1312,4.0333,3.9025,3.9025,3.8441,3.7528,3.7528,3.69,3.5982,3.5982,3.5982,3.5982,3.5982,3.582,3.5566,3.5566,3.5342,3.5059,3.5059,3.5059,3.5059,3.5059,3.5059,3.5059,3.5059,3.5059,3.5059,3.5059,3.5059,3.5025,3.4936,3.4936,3.4836,3.447,3.4323,3.4165,3.3854,3.372,3.3653,3.3653,3.3653,3.3573,3.3308,3.2903,3.2383,3.1729,3.1572,3.1511,3.1511,3.037,2.9072,2.7659,2.6519,2.5728,2.5348,2.4358,2.4287,2.5285,2.4323,2.381,2.381,2.381,2.381,2.381,2.381,2.381,3.3872,3.4274,3.4803,3.532,3.5907,3.6496,3.7034,3.755,3.7939,3.7977,3.8429,3.8856,3.8881,3.9333,3.9848,4.04,4.0487,4.0675,4.1214,4.1781,4.2187,4.2187,4.265,4.319,0.0,4.3752,4.3765,4.3777,4.4251,4.4844,4.5409,4.5447,4.5711,4.6238,4.6276,4.6288,4.6288,4.6301,4.6313,4.6313,4.6283,4.5939,4.5239,4.3271,4.1601,4.0203,3.8827,3.7428,3.6118,3.6118,3.6118,3.605,3.605,3.605,3.5982,3.5982,3.5982,3.5982,3.5982,3.5982,3.5972,3.5972,3.5952,3.5942,3.5942,3.5942,3.5942,3.5942,3.5942,3.5942,3.5942,3.5942,3.5942,3.5942,3.5942,3.5874,3.5543,3.5475,3.5373,3.4952,3.4609,3.4377,3.4377,3.4057,3.378,3.378,3.378,3.3771,3.3681,3.2417,3.0963,2.9464,2.8947,2.8713,2.8713,2.8315,2.7459,2.6071,2.5931,2.5278,2.391,2.3803,2.3803,2.3874,2.3803,2.381,2.381,2.381,2.381,2.381,2.381,2.381,3.4778,3.5391,3.5967,3.6496,3.7048,3.7613,3.8203,3.8467,3.8705,3.9057,3.9283,3.9534,3.9898,4.0111,4.0425,4.0938,4.1367,4.1695,4.1884,4.2374,4.2864,4.3228,4.3413,0.0,0.0,0.0,0.0,4.4288,4.4869,4.5284,4.5485,4.5836,4.6125,4.6301,4.6313,4.6313,4.6313,4.6313,4.6193,4.5939,4.4564,4.3193,4.1897,4.1237,4.0138,3.8761,3.8308,3.7294,3.5982,3.5982,3.5982,3.5982,3.5982,3.5982,3.5982,3.5982,3.5982,3.5982,3.5982,3.5982,3.5982,3.5982,3.5982,3.5982,3.5982,3.5982,3.5982,3.5982,3.5982,3.5982,3.5982,3.5982,3.5947,3.5719,3.5684,3.5572,3.5162,3.5093,3.499,3.4646,3.4474,3.4301,3.4059,3.3886,3.3451,3.2447,3.2263,3.2289,3.2253,3.0921,2.9782,2.9246,2.9071,2.9,2.9,2.7952,2.7076,2.6574,2.5615,2.4838,2.4342,2.4342,2.4342,2.4342,2.4342,2.4342,2.4342,2.4342,2.4342,2.4342,2.4342,2.4342,3.5619,3.6383,3.711,3.7675,3.8077,3.8467,3.9057,3.9195,3.9296,3.9622,3.9697,3.986,4.0386,4.0487,4.0764,4.1505,4.1959,4.2275,4.2449,4.2951,4.3401,4.3765,4.3978,4.4317,0.0,0.0,0.0,4.4907,4.546,4.5786,4.5786,4.6125,4.6313,4.6313,4.6313,4.6313,4.6313,4.6193,4.5714,4.4853,4.2899,4.1407,4.0354,3.9736,3.8959,3.8075,3.7552,3.6833,3.5982,3.5982,3.5982,3.5982,3.5982,3.5982,3.5982,3.5982,3.5982,3.5982,3.5982,3.5982,3.5982,3.5982,3.5982,3.5982,3.5982,3.5982,3.5982,3.5982,3.5982,3.5957,3.5855,3.5821,3.5719,3.5367,3.5308,3.5162,3.4818,3.4715,3.4612,3.4267,3.3729,3.3268,3.3015,3.2517,3.1833,3.082,3.0217,2.9869,2.9869,2.9003,2.8177,2.7635,2.757,2.757,2.757,2.6641,2.6078,2.6078,2.5139,2.4599,2.4599,2.4599,2.4599,2.4599,2.4599,2.4599,2.4599,2.4599,2.4599,2.4599,2.4599,2.4599,3.6494,3.7273,3.8191,3.8793,3.8931,3.907,3.9572,3.9697,3.9697,3.9697,3.9697,3.986,0.0,0.0,4.0915,4.2009,4.2238,4.2424,4.2977,4.3476,4.3827,0.0,0.0,0.0,0.0,0.0,0.0,4.5535,0.0,4.6313,4.6313,4.6313,4.6313,4.6313,4.6313,4.6253,4.618,4.5744,4.4657,4.295,4.1332,4.0527,4.0397,3.8761,3.7975,3.7919,3.6573,3.5982,3.5982,3.5982,3.5982,3.5982,3.5982,3.5982,3.5982,3.5982,3.5982,3.5982,3.5982,3.5982,3.5982,3.5982,3.5982,3.5982,3.5982,3.5982,3.5982,3.5982,3.5957,3.5889,3.5548,3.5479,3.5377,3.4956,3.4887,3.4784,3.4439,3.438,3.4267,3.3877,3.2552,3.1508,3.1508,3.0217,2.9167,2.9095,2.7823,2.6903,2.6903,2.683,2.6218,2.474,2.4599,2.4599,2.4599,2.4599,2.4599,2.4599,2.4599,2.4599,2.4599,2.4599,2.4599,2.4599,2.4599,2.4599,2.4599,2.4599,2.4599,2.4599,2.4599,2.4599,3.7914,3.8454,3.8806,3.9371,3.9484,3.9521,3.9659,3.9697,3.9697,3.9697,3.9697,3.986,4.0386,4.0826,0.0,4.2072,4.2524,0.0,4.3514,4.3714,0.0,4.4957,0.0,4.5485,4.605,4.61,0.0,0.0,4.6225,4.6313,4.6313,4.6313,4.6313,4.6313,4.6313,4.5689,4.4374,4.2793,4.1256,3.9758,3.9102,3.8198,3.7183,3.6732,3.6539,3.6515,3.6152,3.5982,3.5982,3.5982,3.5982,3.5982,3.5982,3.5982,3.5982,3.5982,3.5982,3.5982,3.5982,3.5982,3.5982,3.5982,3.5982,3.5982,3.5982,3.5982,3.5947,3.5719,3.5616,3.5548,3.5162,3.5059,3.4956,3.4612,3.4543,3.4405,3.4024,3.3955,3.3921,3.3817,3.2552,3.1508,3.1508,3.0217,2.8816,2.765,2.715,2.6903,2.6903,2.5896,2.5035,2.4636,2.4599,2.4599,2.4599,2.4599,2.4599,2.4599,2.4599,2.4599,2.4599,2.4599,2.4599,2.4599,2.4599,2.4599,2.4599,2.4599,2.4599,2.4599,2.4599,2.4599,3.8567,3.907,3.9333,3.9622,3.9697,3.9697,3.9697,3.9697,3.9697,3.9697,3.9697,3.986,4.0386,4.0938,4.149,0.0,0.0,0.0,4.3727,4.4003,4.4493,0.0,4.5698,0.0,4.6276,4.6313,4.6313,0.0,4.6313,4.6313,4.6313,4.6313,4.6313,4.6313,4.5568,4.4281,4.2391,4.0645,3.9299,3.8353,3.7552,3.6775,3.5982,3.5982,3.5982,3.5982,0.0,3.5982,3.5982,3.5982,3.5982,3.5982,3.5982,3.5982,3.5982,3.5982,3.5982,3.5982,3.5982,3.5982,3.5982,3.5982,3.5982,3.5982,3.5982,3.5889,3.5753,3.5548,3.5367,3.5162,3.4784,3.4681,3.4577,3.4232,3.4128,3.4059,3.3851,3.3817,3.3416,3.2044,3.0545,2.9262,2.8573,2.7744,2.6888,2.6005,2.5896,2.5896,2.5896,2.5139,2.4599,2.4599,2.4599,2.4599,2.4599,2.4599,2.4599,2.4599,2.4599,2.4599,2.4599,2.4599,2.4599,2.4599,2.4599,2.4599,2.4599,2.4599,2.4599,2.4599,2.4599,2.4599,3.8843,3.9359,3.9697,3.9697,3.9697,3.9697,3.9697,3.9697,3.9697,3.9697,3.9697,3.9835,4.0325,4.0888,4.1465,4.1997,0.0,4.32,4.3827,4.4317,4.484,4.5522,4.6024,4.6313,4.6313,4.6313,4.6313,4.6313,4.6313,4.6313,4.6313,4.612,4.5926,4.5702,4.396,4.2201,4.043,3.896,3.8098,3.7819,3.6573,3.5982,3.5982,3.5982,3.5982,3.5982,0.0,0.0,3.5982,3.5982,3.5982,3.5982,3.5982,3.5982,3.5982,3.5982,3.5982,3.5982,3.5982,3.5982,3.5982,3.5982,3.5982,3.5982,3.5947,3.5719,3.5479,3.5377,3.5093,3.4749,3.4405,3.4301,3.4232,3.3886,3.3817,3.3738,3.3521,3.3338,3.2403,2.971,2.7932,2.6473,2.5139,2.4747,2.4599,2.4599,2.4599,2.4599,2.4599,2.4599,2.4599,2.4599,2.4599,2.4599,2.4599,2.4599,2.4599,2.4599,2.4599,2.4599,2.4599,2.4599,2.4599,2.4599,2.4599,2.4599,2.4599,2.4599,2.4599,2.4599,2.4599,2.4599,3.9421,3.9622,3.9697,3.9697,3.9697,3.9697,3.9697,3.9697,3.9697,3.9697,3.9697,3.9722,3.9823,4.0637,4.134,4.144,4.2321,4.3325,4.4301,4.4539,4.4978,0.0,4.625,4.6313,4.6313,4.6313,0.0,0.0,0.0,4.6313,4.6313,4.5251,4.3991,4.2537,4.0526,3.9311,3.896,3.7284,3.6403,3.6345,3.6118,3.5982,3.5982,3.5982,3.5982,3.5982,0.0,0.0,3.5982,3.5982,3.5982,3.5982,3.5982,3.5982,3.5982,3.5982,3.5982,3.5982,3.5982,3.5982,3.5982,3.5982,3.5982,3.5947,3.5684,3.5548,3.5377,3.4749,3.4543,3.4405,3.4024,3.3886,3.3886,3.3817,3.3817,3.3451,3.2158,3.0891,2.9853,2.931,2.7932,2.6838,2.6546,2.5426,2.4599,2.4599,2.4599,2.4599,2.4599,2.4599,2.4599,2.4599,2.4599,2.4599,2.4599,2.4599,2.4599,2.4599,2.4599,2.4599,2.4599,2.4599,2.4599,2.4599,2.4599,2.4599,2.4599,2.4599,2.4599,2.4599,2.4599,2.4599,3.9546,3.9697,3.9697,3.9697,3.9697,3.9697,3.9697,3.9697,3.9697,3.9697,3.9697,3.9697,3.9697,4.0575,4.1315,4.1315,4.2258,4.3363,4.4439,4.4589,4.5016,4.6175,4.6313,4.6313,4.6313,4.5671,0.0,0.0,0.0,4.4208,4.4921,4.3513,4.1884,4.0137,3.9114,3.8154,3.725,3.6403,3.5982,3.5982,3.5982,3.5982,3.5982,3.5982,3.5982,3.5982,3.5982,0.0,3.5982,3.5982,3.5982,3.5982,3.5982,3.5982,3.5982,3.5982,3.5982,3.5982,3.5982,3.5889,3.5753,3.5753,3.5753,3.5719,3.5548,3.524,3.4853,3.4518,3.4241,3.4024,3.3842,3.3817,3.3599,3.2806,3.1974,3.1182,3.0466,2.9103,2.8004,2.8004,2.6757,2.5719,2.5719,2.5109,2.4599,2.4599,2.4599,2.4599,2.4599,2.4599,2.4599,2.4599,2.4599,2.4599,2.4599,2.4599,2.4599,2.4599,2.4599,2.4599,2.4599,2.4599,2.4599,2.4599,2.4599,2.4599,2.4599,2.4599,2.4599,2.4599,2.4599,2.4599,3.9546,3.9697,3.9697,3.9697,3.9697,3.9697,3.9697,3.9697,3.9697,3.9697,3.9697,3.9697,3.9697,4.0575,4.1315,4.1315,4.2359,4.3501,4.4451,4.4702,4.5183,4.6188,4.6313,0.0,4.5896,4.4829,0.0,0.0,0.0,0.0,4.2663,4.1394,3.9888,3.821,3.8088,3.7374,3.6016,3.5982,3.5982,3.5982,3.5982,3.5982,3.5982,3.5982,3.5982,3.5982,3.5982,0.0,0.0,3.5982,3.5982,3.5982,3.5982,3.5982,3.5982,3.5982,3.5982,3.5982,3.5982,3.5787,3.5514,3.5514,3.5445,3.5377,3.5274,3.4862,3.438,3.4301,3.4024,3.3703,3.3381,3.3303,3.291,3.1358,2.9825,2.8716,2.8716,2.7505,2.64,2.64,2.5426,2.4599,2.4599,2.4599,2.4599,2.4599,2.4599,2.4599,2.4599,2.4599,2.4599,2.4599,2.4599,2.4599,2.4599,2.4599,2.4599,2.4599,2.4599,2.4599,2.4599,2.4599,2.4599,2.4599,2.4599,2.4599,2.4599,2.4599,2.4599,2.4599,2.4599,2.4599,3.9546,3.9697,3.9697,3.9697,3.9697,3.9697,3.9697,3.9697,3.9697,3.9697,3.9697,3.9697,3.9697,4.0575,4.1315,4.1315,4.2685,4.3928,4.4514,4.507,4.5635,4.6238,0.0,0.0,4.4602,4.4053,0.0,0.0,0.0,0.0,3.9518,3.9081,3.8177,3.6745,3.6403,3.6152,3.5982,3.5982,3.5982,3.5982,3.5982,3.5982,3.5982,3.5982,3.5982,3.5982,0.0,0.0,0.0,3.5982,3.5982,3.5982,3.5982,3.5982,3.5982,3.5982,3.5982,3.5982,3.5982,3.5787,3.5514,3.5514,3.5264,3.4887,3.4577,3.4439,3.4301,3.3955,3.3817,3.3486,3.2079,3.1719,3.1323,2.9782,2.822,2.7121,2.7121,2.5896,2.4814,2.4814,2.471,2.4599,2.4599,2.4599,2.4599,2.4599,2.4599,2.4599,2.4599,2.4599,2.4599,2.4599,2.4599,2.4599,2.4599,2.4599,2.4599,2.4599,2.4599,2.4599,2.4599,2.4599,2.4599,2.4599,2.4599,2.4599,2.4599,2.4599,2.4599,2.4599,2.4599,2.4599,3.9546,3.9697,3.9697,3.9697,3.9697,3.9697,3.9697,3.9697,3.9697,3.9697,3.9697,3.9697,3.9697,4.0575,4.1315,4.1315,4.2446,4.3614,4.4476,4.4819,4.5296,4.62,4.6313,0.0,0.0,0.0,0.0,0.0,0.0,0.0,3.724,3.7116,3.6789,3.621,3.6084,3.5982,3.5982,3.5982,3.5982,3.5982,3.5982,3.5982,3.5982,3.5982,3.5982,3.5982,0.0,0.0,0.0,3.5982,3.5982,3.5982,3.5982,3.5982,3.5982,3.5982,3.5982,3.5957,3.5787,3.5436,3.5093,3.4887,3.4577,3.4257,3.437,3.4232,3.3807,3.2727,3.2403,3.2044,3.0537,2.9433,2.858,2.7968,2.6648,2.5536,2.5536,2.5028,2.4599,2.4599,2.4599,2.4599,2.4599,2.4599,2.4599,2.4599,2.4599,2.4599,2.4599,2.4599,2.4599,2.4599,2.4599,2.4599,2.4599,2.4599,2.4599,2.4599,2.4599,2.4599,2.4599,2.4599,2.4599,2.4599,2.4599,2.4599,2.4599,2.4599,2.4599,2.4599,2.4599,2.4599,3.9283,3.9472,3.9484,3.9647,3.9697,3.9697,3.9697,3.9697,3.9697,3.9697,3.9697,3.9697,3.9697,4.0463,4.1127,4.1263,4.2258,4.3363,4.4439,4.474,4.5234,4.62,0.0,4.5464,0.0,0.0,0.0,0.0,0.0,0.0,0.0,3.5982,3.5982,3.5982,3.5982,3.5982,3.5982,3.5982,3.5982,3.5982,3.5982,3.5982,3.5982,3.5982,3.5982,3.5982,0.0,0.0,0.0,3.5982,3.5982,3.5982,3.5982,3.5982,3.5982,3.5982,3.5957,3.5821,3.5582,3.5162,3.4715,3.4474,3.3807,3.3164,3.3442,3.3338,3.2806,3.1252,3.0501,2.9897,2.8788,2.736,2.6225,2.6225,2.5396,2.4599,2.4599,2.4599,2.4599,2.4599,2.4599,2.4599,2.4599,2.4599,2.4599,2.4599,2.4599,2.4599,2.4599,2.4599,2.4599,2.4599,2.4599,2.4599,2.4599,2.4599,2.4599,2.4599,2.4599,2.4599,2.4599,2.4599,2.4599,2.4599,2.4599,2.4599,2.4599,2.4599,2.4599,2.4599,2.4599,2.4599,3.8605,3.8906,3.9032,3.9585,3.9697,3.9697,3.9697,3.9697,3.9697,3.9697,3.9697,3.9697,3.9697,4.0149,4.0675,4.1227,4.2258,4.3363,4.4439,4.5121,4.5686,0.0,0.0,4.5086,4.2031,0.0,0.0,0.0,0.0,0.0,0.0,3.5982,3.5982,3.5982,3.5982,3.5982,3.5982,3.5982,3.5982,3.5982,3.5982,3.5982,3.5982,3.5982,3.5982,0.0,0.0,0.0,0.0,3.5982,3.5982,3.5982,3.5982,3.5982,3.5982,3.5982,3.5787,3.5514,3.5514,3.5034,3.4414,3.4414,3.312,3.1508,3.1543,3.1543,3.1182,2.9675,2.8112,2.6939,2.6939,2.5793,2.4636,2.4636,2.4599,2.4599,2.4599,2.4599,2.4599,2.4599,2.4599,2.4599,2.4599,2.4599,2.4599,2.4599,2.4599,2.4599,2.4599,2.4599,2.4599,2.4599,2.4599,2.4599,2.4599,2.4599,2.4599,2.4599,2.4599,2.4599,2.4599,2.4599,2.4599,2.4599,2.4599,2.4599,2.4599,2.4599,2.4599,2.4599,2.4599,2.4599,3.8078,3.8278,3.8329,3.8504,3.8542,3.8542,3.8542,3.8843,3.9158,3.9158,3.9433,3.9697,3.9697,4.0149,4.0675,4.1227,4.1944,4.2964,4.4389,4.4619,0.0,4.4523,4.2454,4.0655,0.0,0.0,0.0,0.0,0.0,0.0,0.0,3.5982,3.5982,3.5982,3.5982,3.5982,3.5982,3.5982,3.5982,3.5982,3.5982,3.5982,3.5982,3.5982,0.0,0.0,0.0,0.0,0.0,3.5982,3.5982,3.5982,3.5982,3.5982,3.5957,3.5743,3.5582,3.5445,3.4921,3.3893,3.2788,3.2508,3.1288,2.971,2.8688,2.9075,2.9603,2.8076,2.6502,2.5322,2.5322,2.4961,2.4599,2.4599,2.4599,2.4599,2.4599,2.4599,2.4599,2.4599,2.4599,2.4599,2.4599,2.4599,2.4599,2.4599,2.4599,2.4599,2.4599,2.4599,2.4599,2.4599,2.4599,2.4599,2.4599,2.4599,2.4599,2.4599,2.4599,2.4599,2.4599,2.4599,2.4599,2.4599,2.4599,2.4599,2.4599,2.4334,2.4038,2.3779,2.3779,2.3779,3.7487,3.7701,3.7751,3.7952,3.8002,3.8002,3.8002,3.8479,3.8894,3.8894,3.9333,3.9697,3.9697,3.9973,4.0437,4.1189,4.163,4.2497,4.4338,0.0,0.0,4.3581,0.0,0.0,0.0,0.0,0.0,0.0,0.0,0.0,0.0,3.5982,3.5982,3.5982,3.5982,3.5982,3.5982,3.5982,3.5982,3.5982,3.5982,3.5982,3.5982,3.5982,0.0,0.0,0.0,0.0,0.0,3.5982,3.5982,3.5982,3.5982,3.5923,3.5787,3.5582,3.5308,3.4921,3.3893,3.2788,3.1754,3.0891,2.9576,2.804,2.6502,2.6714,2.7244,2.6291,2.5359,2.4599,2.4599,2.4599,2.4599,2.4599,2.4599,2.4599,2.4599,2.4599,2.4599,2.4599,2.4599,2.4599,2.4599,2.4599,2.4599,2.4599,2.4599,2.4599,2.4599,2.4599,2.4599,2.4599,2.4599,2.4599,2.4599,2.4599,2.4599,2.4599,2.4599,2.4599,2.4599,2.4599,2.4525,2.4377,2.4377,2.4304,2.4149,2.389,2.363,2.3408,2.3408,2.3408,0.0,3.7122,3.7273,3.7764,3.7889,3.7889,3.7889,3.8391,0.0,3.8831,3.9308,3.9697,3.9697,3.9722,4.0099,4.1139,4.1378,0.0,0.0,4.4256,0.0,0.0,4.0213,0.0,0.0,0.0,0.0,0.0,0.0,0.0,0.0,3.5982,3.5982,3.5982,3.5982,3.5982,3.5982,3.5982,3.5982,3.5982,3.5982,3.5982,3.5982,3.5982,0.0,0.0,0.0,0.0,0.0,3.5982,3.5982,3.5982,3.5957,3.5787,3.5479,3.5445,3.4921,3.4015,3.2569,3.1675,3.0935,2.9389,2.7896,2.6473,2.5028,2.4599,2.4599,2.4599,2.4599,2.4599,2.4599,2.4599,2.4599,2.4599,2.4599,2.4599,2.4599,2.4599,2.4599,2.4599,2.4599,2.4599,2.4599,2.4599,2.4599,2.4599,2.4599,2.4599,2.4599,2.4599,2.4599,2.4599,2.4599,2.4599,2.4562,2.4562,2.4599,2.4562,2.4562,2.4525,2.4525,2.4525,2.4341,2.3964,2.3964,2.3742,2.337,2.337,2.3333,2.3333,2.3333,2.3333,3.5732,0.0,3.6607,3.6733,3.6771,3.6771,0.0,3.7513,3.8216,3.8216,3.9007,3.9697,3.9697,4.0036,4.0524,4.1175,4.2017,4.3074,4.4401,0.0,0.0,3.9497,0.0,0.0,0.0,0.0,0.0,0.0,0.0,0.0,0.0,3.5982,3.5982,3.5982,3.5982,3.5982,3.5982,3.5982,3.5982,3.5982,3.5982,3.5982,3.5982,3.5982,0.0,0.0,0.0,0.0,3.5982,3.5982,3.5982,3.5957,3.5719,3.5582,3.5445,3.4862,3.3789,3.2534,3.186,3.0047,2.7722,2.6181,2.5426,2.5065,2.471,2.4599,2.4599,2.4599,2.4599,2.4599,2.4599,2.4599,2.4599,2.4599,2.4599,2.4599,2.4599,2.4599,2.4599,2.4599,2.4599,2.4599,2.4599,2.4599,2.4599,2.4599,2.4599,2.4599,2.4599,2.4599,2.4599,2.4599,2.4599,2.4488,2.4186,2.4414,2.4488,2.4156,2.4149,2.4001,2.3704,2.3667,2.363,2.3556,2.3556,2.337,2.3005,2.3005,2.2856,2.2558,2.2558,2.2558,3.5345,3.5943,3.6405,3.6405,3.6405,3.6405,3.6405,3.7235,3.8002,3.8002,3.8906,3.9697,3.9697,4.0149,4.0675,4.1227,4.1586,0.0,0.0,0.0,4.0742,3.9431,0.0,0.0,0.0,0.0,0.0,0.0,0.0,0.0,0.0,3.5982,3.5982,3.5982,3.5982,3.5982,3.5982,3.5982,3.5982,3.5982,3.5982,3.5982,3.5982,3.5982,0.0,0.0,0.0,0.0,3.5991,3.5821,3.5787,3.5719,3.5367,3.5127,3.4965,3.4552,3.3294,3.1675,3.0785,2.8429,2.5719,2.4888,2.4599,2.4599,2.4599,2.4599,2.4599,2.4599,2.4599,2.4599,2.4599,2.4599,2.4599,2.4599,2.4599,2.4599,2.4599,2.4599,2.4599,2.4599,2.4599,2.4599,2.4599,2.4599,2.4599,2.4599,2.4599,2.4599,2.4599,2.4599,2.4525,2.4341,2.4334,2.4156,2.3742,2.3927,2.3964,2.3742,2.3704,2.363,2.3408,2.3408,2.3333,2.3185,2.2999,2.2819,2.2632,2.2632,2.252,2.2296,2.2296,2.2296,3.5245,3.5881,3.6405,3.6405,3.6405,3.643,3.6494,3.7298,3.804,3.8115,3.8969,3.9697,3.9697,4.0212,4.0775,0.0,0.0,0.0,4.1715,4.1241,4.0613,4.004,0.0,0.0,0.0,0.0,0.0,0.0,0.0,0.0,0.0,3.5982,3.5982,3.5982,3.5982,3.5982,3.5982,3.5982,3.5982,3.5982,3.5982,3.5982,3.5982,3.5982,3.5982,0.0,0.0,0.0,3.5889,3.5616,3.5445,3.5377,3.499,3.4646,3.438,3.405,3.2762,3.0891,2.9103,2.6779,2.4599,2.4599,2.4599,2.4599,2.4599,2.4599,2.4599,2.4599,2.4599,2.4599,2.4599,2.4599,2.4599,2.4599,2.4599,2.4599,2.4599,2.4599,2.4599,2.4599,2.4599,2.4599,2.4599,2.4599,2.4562,2.4525,2.4525,2.4488,2.4414,2.4414,2.4297,2.3927,2.3927,2.3742,2.337,2.3333,2.3296,2.3222,2.3296,2.3296,2.3222,2.3222,2.311,2.2819,2.2483,2.2296,2.2296,2.2296,2.2296,2.2296,2.2296,2.2296,3.4803,3.5592,3.6405,3.6405,3.6405,3.6531,3.6972,3.755,3.814,3.8668,3.9271,3.9697,3.9697,4.0499,4.1214,0.0,0.0,4.1232,0.0,0.0,0.0,0.0,0.0,0.0,0.0,0.0,0.0,0.0,0.0,0.0,0.0,0.0,3.5982,3.5982,3.5982,3.5982,3.5982,3.5982,3.5982,3.5982,3.5982,3.5982,3.5982,3.5982,3.5982,0.0,0.0,3.5855,3.5582,3.5514,3.5308,3.4956,3.4612,3.4439,3.4198,3.2543,3.0926,2.9139,2.6284,2.4991,2.4599,2.4599,2.4599,2.4599,2.4599,2.4599,2.4599,2.4599,2.4599,2.4599,2.4599,2.4599,2.4599,2.4599,2.4599,2.4599,2.4599,2.4599,2.4599,2.4599,2.4599,2.4599,2.4599,2.4599,2.4488,2.4149,2.4075,2.3964,2.363,2.3593,2.3556,2.3482,2.3482,2.3333,2.3005,2.2968,2.2819,2.2483,2.2781,2.2819,2.2483,2.2483,2.2446,2.2371,2.2334,2.2296,2.2296,2.2296,2.2296,2.2296,2.2296,2.2296,3.4703,3.5529,3.6405,3.6405,3.6405,3.6532,3.7085,3.7613,3.8165,3.8781,3.9333,3.9785,4.0086,4.0657,4.0862,4.0169,0.0,3.9466,0.0,0.0,0.0,0.0,0.0,0.0,0.0,0.0,0.0,0.0,0.0,0.0,0.0,0.0,3.5982,3.5982,3.5982,3.5982,3.5982,3.5982,3.5982,3.5982,3.5982,3.5982,3.5982,3.5982,3.5982,3.5982,0.0,3.5811,3.5479,3.5274,3.4956,3.4577,3.4232,3.3555,3.2508,2.9976,2.858,2.765,2.5389,2.4599,2.4599,2.4599,2.4599,2.4599,2.4599,2.4599,2.4599,2.4599,2.4599,2.4599,2.4599,2.4599,2.4599,2.4599,2.4599,2.4599,2.4599,2.4599,2.4525,2.4334,2.4267,2.4223,2.4001,2.3964,2.389,2.3704,2.3667,2.3593,2.3408,2.3408,2.3333,2.3154,2.3116,2.2968,2.2595,2.2595,2.2483,2.2302,2.2483,2.2483,2.2302,2.2296,2.2296,2.2296,2.2296,2.2296,2.2296,2.2296,2.2296,2.2296,2.2296,2.2296,3.4703,3.5529,3.6443,3.6568,3.6606,3.672,3.7273,3.7801,3.8366,3.8969,3.9496,4.0011,4.0411,4.0651,0.0,3.9308,3.83,0.0,0.0,0.0,0.0,0.0,0.0,0.0,0.0,0.0,0.0,0.0,0.0,0.0,0.0,0.0,3.5982,3.5982,3.5982,3.5982,3.5982,3.5982,3.5982,3.5982,3.5982,3.5982,3.5982,3.5982,3.5982,3.5982,3.5923,3.5675,3.5343,3.4956,3.4577,3.4198,3.3521,3.2088,3.0154,2.7759,2.6655,2.6188,2.4998,2.4599,2.4599,2.4599,2.4599,2.4599,2.4599,2.4599,2.4599,2.4599,2.4599,2.4599,2.4599,2.4599,2.4599,2.4599,2.4525,2.4451,2.4451,2.4377,2.4223,2.3927,2.3853,2.3742,2.3445,2.3408,2.337,2.3296,2.3296,2.3259,2.3147,2.3147,2.3036,2.2781,2.2744,2.2632,2.2334,2.2296,2.2296,2.2296,2.2296,2.2296,2.2296,2.2296,2.2296,2.2296,2.2296,2.2296,2.2296,2.2296,2.2296,2.2296,2.2296,2.2103,3.4703,3.5529,3.6531,3.7022,3.7148,3.7286,3.7826,3.8391,3.8994,3.9521,4.0074,4.0437,4.0487,4.0421,4.0163,3.9567,3.8435,0.0,0.0,0.0,0.0,0.0,0.0,0.0,0.0,0.0,0.0,0.0,0.0,0.0,0.0,0.0,0.0,3.5982,3.5982,3.5982,3.5982,3.5982,3.5982,3.5982,3.5982,3.5982,3.5982,3.5982,3.5982,3.5982,3.5684,3.5299,3.4921,3.4587,3.4198,3.3703,3.2228,2.9834,2.7186,2.6976,2.6005,2.474,2.4636,2.4599,2.4599,2.4599,2.4599,2.4599,2.4599,2.4599,2.4599,2.4599,2.4599,2.4599,2.4599,2.4599,2.4599,2.4599,2.4304,2.4038,2.4038,2.3742,2.3482,2.3445,2.3445,2.3445,2.3408,2.3408,2.3296,2.2968,2.293,2.2781,2.2446,2.2371,2.2371,2.2334,2.234,2.2334,2.2296,2.2296,2.2296,2.2296,2.2296,2.2296,2.2296,2.2296,2.2296,2.2296,2.2296,2.2296,2.2296,2.2296,2.2296,2.2296,2.2296,2.1455,3.4703,3.5529,3.6543,3.7072,3.7437,3.7852,3.8441,3.8743,3.9158,4.0023,4.0375,4.0647,4.1162,0.0,3.9395,3.9217,3.7539,0.0,0.0,0.0,0.0,0.0,0.0,0.0,0.0,0.0,0.0,0.0,0.0,0.0,0.0,0.0,0.0,3.5982,3.5982,3.5982,3.5982,3.5982,3.5982,3.5982,3.5982,3.5982,3.5982,3.5982,3.5982,3.5982,3.565,3.5264,3.4887,3.4543,3.359,3.2114,2.9619,2.7939,2.6794,2.5822,2.5102,2.4599,2.4599,2.4599,2.4599,2.4599,2.4599,2.4599,2.4599,2.4599,2.4599,2.4599,2.4599,2.4599,2.4599,2.4599,2.4525,2.4297,2.4112,2.3927,2.3667,2.3519,2.3333,2.3116,2.3079,2.3005,2.2775,2.2707,2.2669,2.2558,2.252,2.2483,2.2334,2.2296,2.2296,2.2296,2.2296,2.2296,2.2296,2.2296,2.2296,2.2296,2.2296,2.2296,2.2296,2.2296,2.2296,2.2296,2.2296,2.2296,2.2296,2.1262,2.0769,2.0731,1.9704,1.89,3.4703,3.5529,3.6581,3.7286,3.7726,3.8203,3.8982,3.9296,3.9597,4.0362,4.0789,4.1008,4.0921,0.0,0.0,0.0,0.0,0.0,0.0,0.0,0.0,0.0,0.0,0.0,0.0,0.0,0.0,0.0,0.0,0.0,0.0,0.0,0.0,0.0,3.5982,3.5982,3.5982,3.5982,3.5982,3.5982,3.5982,3.5982,3.5982,3.5982,3.5947,3.5821,3.5479,3.5093,3.4681,3.3833,3.2114,2.9834,2.7722,2.6619,2.6042,2.4998,2.4599,2.4599,2.4599,2.4599,2.4599,2.4599,2.4599,2.4599,2.4599,2.4599,2.4599,2.4599,2.4525,2.4414,2.4414,2.4414,2.4341,2.4075,2.3816,2.3593,2.3296,2.3147,2.2961,2.2744,2.2707,2.2632,2.2334,2.2296,2.2296,2.2296,2.2296,2.2296,2.2296,2.2296,2.2296,2.2296,2.2296,2.2296,2.2296,2.2296,2.2296,2.2296,2.2296,2.2296,2.2296,2.2296,2.2296,2.2296,2.1798,2.1493,2.1493,1.9854,1.9051,1.9014,1.791,1.7112,3.4703,3.5552,3.6658,3.7739,3.8002,3.8316,3.9446,4.0124,4.0499,4.0499,4.1404,4.1577,3.9575,3.9302,0.0,0.0,0.0,0.0,0.0,0.0,0.0,0.0,0.0,0.0,0.0,0.0,0.0,0.0,0.0,0.0,0.0,0.0,0.0,0.0,3.5982,3.5982,3.5982,3.5982,3.5982,3.5982,3.5982,3.5982,3.5982,3.5982,3.5811,3.5479,3.5059,3.4715,3.4232,3.2254,2.9655,2.6903,2.6867,2.5932,2.4599,2.4599,2.4599,2.4599,2.4599,2.4599,2.4599,2.4599,2.4599,2.4599,2.4599,2.4599,2.4599,2.4599,2.4304,2.4001,2.4001,2.4001,2.4001,2.4001,2.3414,2.2893,2.2893,2.2595,2.2296,2.2296,2.2296,2.2296,2.2296,2.2296,2.2296,2.2296,2.2296,2.2296,2.2296,2.2296,2.2296,2.2296,2.2296,2.2296,2.2296,2.2296,2.2296,2.2296,2.2296,2.2296,2.2296,2.2296,2.2265,2.2265,2.0613,1.9779,1.9774,1.8176,1.7379,1.7379,1.7341,1.6465,3.4703,3.5805,3.7135,3.7826,3.8316,3.8931,4.0023,4.04,4.0488,4.0379,4.0936,4.0908,3.917,3.8454,0.0,0.0,0.0,0.0,0.0,0.0,0.0,0.0,0.0,0.0,0.0,0.0,0.0,0.0,0.0,0.0,0.0,0.0,0.0,0.0,3.5982,3.5982,3.5982,3.5982,3.5982,3.5982,3.5753,3.5787,3.5982,3.5753,3.5582,3.5445,3.4818,3.3858,3.2534,2.9504,2.7722,2.6801,2.5719,2.4991,2.4599,2.4599,2.4599,2.4599,2.4599,2.4599,2.4599,2.4599,2.4599,2.4599,2.4599,2.4599,2.4525,2.426,2.4075,2.3927,2.3667,2.3408,2.3228,2.3228,2.3042,2.2819,2.252,2.2371,2.2296,2.2296,2.2296,2.2296,2.2296,2.2296,2.2296,2.2296,2.2296,2.2296,2.2296,2.2296,2.2296,2.2296,2.2296,2.2296,2.2296,2.2296,2.2296,2.2296,2.1187,2.1075,2.2259,2.1187,2.0537,2.0537,1.8938,1.81,1.81,1.6465,1.5625,1.5629,1.4483,1.3687,3.4966,3.6094,3.7336,3.7864,3.8442,3.9245,4.0512,4.1003,4.0933,4.0042,4.0528,4.0297,3.7678,3.7404,0.0,0.0,0.0,0.0,0.0,0.0,0.0,0.0,0.0,0.0,0.0,0.0,0.0,0.0,0.0,0.0,0.0,0.0,0.0,0.0,3.5982,3.5982,3.5982,3.5982,3.5982,3.5982,3.565,3.5616,3.5787,3.5445,3.5196,3.5,3.3789,3.2044,2.9861,2.7759,2.6546,2.5896,2.4961,2.4599,2.4599,2.4599,2.4599,2.4599,2.4599,2.4599,2.4599,2.4599,2.4599,2.4562,2.4414,2.4377,2.4267,2.3853,2.3667,2.3525,2.3259,2.293,2.2707,2.2856,2.2781,2.2595,2.2334,2.2296,2.2296,2.2296,2.2296,2.2296,2.2296,2.2296,2.2296,2.2296,2.2296,2.2296,2.2296,2.2296,2.2296,2.2296,2.2296,2.2029,2.138,2.1305,2.1037,2.0387,1.9397,1.9283,2.0312,1.9397,1.8862,1.8862,1.7227,1.6427,1.6389,1.4752,1.3953,1.391,1.2962,1.2501,3.5345,3.6359,3.7374,3.7889,3.8555,3.9458,4.083,4.163,4.1558,3.9593,0.0,3.9557,3.5572,3.6247,0.0,0.0,0.0,0.0,0.0,0.0,0.0,0.0,0.0,0.0,0.0,0.0,0.0,0.0,0.0,0.0,0.0,0.0,0.0,0.0,3.5982,3.5982,3.5982,3.5982,3.5982,0.0,3.5616,3.5445,3.5445,3.5024,3.4602,3.4015,3.1974,2.9477,2.6903,2.6765,2.5859,2.4599,2.4599,2.4599,2.4599,2.4599,2.4599,2.4599,2.4599,2.4599,2.4599,2.4599,2.4599,2.4525,2.4112,2.4001,2.3927,2.3482,2.3154,2.2893,2.2856,2.2558,2.2371,2.2744,2.2558,2.2296,2.2296,2.2296,2.2296,2.2296,2.2296,2.2296,2.2296,2.2296,2.2296,2.2296,2.2296,2.2296,2.2296,2.2296,2.2259,2.2103,2.2066,2.1418,1.9736,1.9585,1.8976,1.7493,1.7265,1.7188,1.7188,1.7188,1.7188,1.7188,1.5514,1.4675,1.4675,1.3225,1.2501,1.2501,1.2501,1.2501,3.5345,3.6635,3.7864,3.7977,3.9395,4.0611,3.9962,4.0611,4.0927,3.9498,3.8614,3.7388,3.4963,0.0,0.0,0.0,0.0,0.0,0.0,0.0,0.0,0.0,0.0,0.0,0.0,0.0,0.0,0.0,0.0,0.0,0.0,0.0,0.0,3.5982,3.5982,3.5982,3.5982,3.5982,3.5982,0.0,3.5333,3.5024,3.5024,3.4681,3.365,3.1974,2.9119,2.7513,2.6794,2.5573,2.4888,2.4599,2.4599,2.4599,2.4599,2.4599,2.4599,2.4599,2.4599,2.4599,2.4599,2.4599,2.4599,2.4525,2.4112,2.4001,2.3853,2.3191,2.2968,2.2819,2.252,2.2371,2.2334,2.2408,2.2371,2.2296,2.2296,2.2296,2.2296,2.2296,2.2296,2.2296,2.2296,2.2296,2.2296,2.2296,2.2296,2.2296,2.2296,2.2296,2.1798,2.0462,2.0349,1.9698,1.8062,1.791,1.7759,1.7417,1.616,1.5438,1.5438,1.5438,1.5438,1.5438,1.3837,1.3035,1.3035,1.2656,1.2501,1.2501,1.2501,1.2501,3.5717,3.6948,3.814,3.868,4.006,4.1141,4.0468,4.0246,4.0007,3.9345,3.8048,3.651,0.0,0.0,0.0,0.0,0.0,0.0,0.0,0.0,0.0,0.0,0.0,0.0,0.0,0.0,0.0,0.0,0.0,0.0,0.0,3.5982,3.5982,3.5982,3.5982,3.5982,3.5982,3.5982,3.5923,3.5753,3.5196,3.4317,3.3285,3.3076,3.1649,2.9226,2.7585,2.6473,2.5756,2.4924,2.4599,2.4599,2.4599,2.4599,2.4599,2.4599,2.4599,2.4599,2.4599,2.4599,2.4599,2.4599,2.4488,2.423,2.3816,2.3593,2.3333,2.2781,2.2595,2.2558,2.2334,2.2296,2.2296,2.2296,2.2296,2.2296,2.2296,2.2296,2.2296,2.2296,2.2296,2.2296,2.2296,2.2296,2.2296,2.2296,2.2296,2.2296,2.2296,2.1611,2.0769,1.9892,1.9127,1.7986,1.635,1.6198,1.5854,1.5093,1.4218,1.376,1.376,1.376,1.376,1.376,1.2919,1.2501,1.2501,1.2501,1.2501,1.2501,1.2501,1.2501,3.6117,3.7185,3.8278,3.9421,4.0292,4.0827,4.0698,3.9666,3.8701,3.8584,3.7448,3.6062,0.0,0.0,0.0,0.0,0.0,0.0,0.0,0.0,0.0,0.0,0.0,0.0,0.0,0.0,0.0,0.0,0.0,0.0,3.5982,3.5982,3.5982,3.5982,3.5982,3.5982,3.5982,3.5947,3.5787,3.5479,3.4774,3.3241,3.1076,3.0828,2.9298,2.691,2.6619,2.5793,2.4599,2.4599,2.4599,2.4599,2.4599,2.4599,2.4599,2.4599,2.4599,2.4599,2.4599,2.4599,2.4599,2.4525,2.4267,2.3927,2.3445,2.3116,2.2819,2.2408,2.2296,2.2296,2.2296,2.2296,2.2296,2.2296,2.2296,2.2296,2.2296,2.2296,2.2296,2.2296,2.2296,2.2296,2.2296,2.2296,2.2296,2.2296,2.2296,2.2184,2.1916,2.065,1.9585,1.9014,1.7759,1.6274,1.4637,1.4483,1.3914,1.2579,1.2501,1.2501,1.2501,1.2501,1.2501,1.2501,1.2501,1.2501,1.2501,1.2501,1.2501,1.2501,1.2501,1.2501,3.6218,3.7185,3.8278,3.9421,3.9415,3.8948,3.8267,3.7498,3.6739,0.0,3.55,0.0,0.0,0.0,0.0,0.0,0.0,0.0,0.0,0.0,0.0,0.0,0.0,0.0,0.0,0.0,0.0,0.0,0.0,0.0,3.5982,3.5982,3.5982,3.5982,3.5982,3.5982,3.5982,3.5719,3.5548,3.5479,3.3449,3.142,2.9461,2.8112,2.7295,2.683,2.5499,2.4777,2.4599,2.4599,2.4599,2.4599,2.4599,2.4599,2.4599,2.4599,2.4599,2.4599,2.4599,2.4599,2.4525,2.4193,2.4038,2.3853,2.3191,2.293,2.2819,2.2408,2.2296,2.2296,2.2296,2.2296,2.2296,2.2296,2.2296,2.2296,2.2296,2.2296,2.2296,2.2296,2.2296,2.2296,2.2296,2.2296,2.2296,2.2296,2.2296,2.1767,2.0312,1.993,1.8711,1.5854,1.5361,1.4598,1.2962,1.2807,1.273,1.2501,1.2501,1.2501,1.2501,1.2501,1.2501,1.2501,1.2501,1.2501,1.2501,1.2501,1.2501,1.2501,1.2501,1.2501,3.696,3.7638,3.8278,3.9421,3.972,3.9563,3.8789,3.8091,3.7392,3.6617,0.0,0.0,0.0,0.0,0.0,0.0,0.0,0.0,0.0,0.0,0.0,0.0,0.0,0.0,0.0,0.0,0.0,0.0,0.0,3.5982,3.5982,3.5982,3.5982,3.5982,3.5982,3.5982,3.5982,3.5684,3.4868,3.3563,3.1456,2.9568,2.786,2.6327,2.5609,2.5573,2.4888,2.4599,2.4599,2.4599,2.4599,2.4599,2.4599,2.4599,2.4599,2.4599,2.4599,2.4599,2.4599,2.4451,2.4223,2.4075,2.3704,2.3302,2.3005,2.2744,2.252,2.2334,2.2296,2.2296,2.2296,2.2296,2.2296,2.2296,2.2296,2.2296,2.2296,2.2296,2.2296,2.2296,2.2296,2.2296,2.2296,2.2296,2.1991,2.1037,2.0881,2.0312,1.8673,1.7645,1.6503,1.5055,1.4103,1.3267,1.2579,1.2501,1.2501,1.2501,1.2501,1.2501,1.2501,1.2501,1.2501,1.2501,1.2501,1.2501,1.2501,1.2501,1.2501,1.2501,1.2501,1.2501,3.76,3.8002,3.8278,3.9421,3.9778,3.9646,3.8918,0.0,3.7397,0.0,0.0,0.0,0.0,0.0,0.0,0.0,0.0,0.0,0.0,0.0,0.0,0.0,0.0,0.0,0.0,0.0,0.0,0.0,0.0,3.5982,3.5982,3.5982,3.5982,3.5982,3.5982,3.5982,3.5982,3.5177,3.384,3.193,2.9675,2.8004,2.683,2.5286,2.4599,2.4599,2.4599,2.4599,2.4599,2.4599,2.4599,2.4599,2.4599,2.4599,2.4599,2.4599,2.4599,2.4599,2.4488,2.4267,2.3964,2.3779,2.334,2.2893,2.2781,2.252,2.2296,2.2296,2.2296,2.2296,2.2296,2.2296,2.2296,2.2296,2.2296,2.2296,2.2296,2.2296,2.2184,2.1761,2.1648,2.153,2.1112,2.1037,2.0618,1.9397,1.9202,1.8598,1.696,1.5663,1.4752,1.433,1.3228,1.2501,1.2501,1.2501,1.2501,1.2501,1.2501,1.2501,1.2501,1.2501,1.2501,1.2501,1.2501,1.2501,1.2501,1.2501,1.2501,1.2501,1.2501,1.2501,3.7701,3.8002,3.8278,3.9421,3.8867,3.7851,3.7178,0.0,3.5212,0.0,0.0,0.0,0.0,0.0,0.0,0.0,0.0,0.0,0.0,0.0,0.0,0.0,0.0,0.0,0.0,0.0,0.0,0.0,0.0,3.5982,3.5982,3.5982,3.5982,3.5982,3.5982,3.5982,3.5982,3.3847,3.2333,3.1508,2.8472,2.6976,2.683,2.5286,2.4599,2.4599,2.4599,2.4599,2.4599,2.4599,2.4599,2.4599,2.4599,2.4599,2.4599,2.4599,2.4599,2.4562,2.4156,2.4001,2.389,2.3191,2.293,2.2819,2.2446,2.2334,2.2296,2.2296,2.2296,2.2296,2.2296,2.2296,2.2296,2.2296,2.2296,2.2296,2.2296,2.2296,2.1836,2.0231,1.993,1.9434,1.791,1.7645,1.7645,1.7531,1.7531,1.6922,1.5246,1.494,1.4333,1.2807,1.254,1.2501,1.2501,1.2501,1.2501,1.2501,1.2501,1.2501,1.2501,1.2501,1.2501,1.2501,1.2501,1.2501,1.2501,1.2501,1.2501,1.2501,1.2501,1.2501,3.7298,3.7739,3.8191,3.8994,3.8532,3.7723,3.7061,3.5977,3.4963,0.0,0.0,0.0,0.0,0.0,0.0,0.0,0.0,0.0,0.0,0.0,0.0,0.0,0.0,0.0,0.0,0.0,0.0,0.0,0.0,0.0,3.5176,3.5449,3.5615,3.5615,3.4931,3.3909,3.2412,3.1333,3.0023,2.8544,2.744,2.6364,2.5396,2.4851,2.4599,2.4599,2.4599,2.4599,2.4599,2.4599,2.4599,2.4599,2.4599,2.4599,2.4599,2.4599,2.4451,2.4193,2.4038,2.3704,2.3265,2.3005,2.2744,2.2483,2.234,2.2296,2.2296,2.2296,2.2296,2.2296,2.2296,2.2296,2.2296,2.2296,2.2296,2.2296,2.2296,2.1455,2.05,1.993,1.8976,1.8062,1.7493,1.7417,1.7036,1.5969,1.582,1.5208,1.3568,1.334,1.3151,1.2579,1.2501,1.2501,1.2501,1.2501,1.2501,1.2501,1.2501,1.2501,1.2501,1.2501,1.2501,1.2501,1.2501,1.2501,1.2501,1.2501,1.2501,1.2501,1.2501,1.2501,3.706,3.7588,3.814,3.8756,3.8693,3.8179,3.6951,3.6038,3.5172,0.0,0.0,0.0,0.0,0.0,0.0,0.0,0.0,0.0,0.0,0.0,0.0,0.0,0.0,0.0,0.0,0.0,0.0,0.0,0.0,0.0,3.4697,3.499,3.5234,3.5391,3.4368,3.2953,3.1173,2.988,2.8457,2.6903,2.6364,2.5573,2.4599,2.4599,2.4599,2.4599,2.4599,2.4599,2.4599,2.4599,2.4599,2.4599,2.4599,2.4525,2.4414,2.4414,2.4149,2.3779,2.3667,2.3302,2.2893,2.2744,2.252,2.2296,2.2296,2.2296,2.2296,2.2296,2.2296,2.2296,2.2296,2.2296,2.2296,2.2296,2.1873,2.1455,2.1455,2.0575,1.9623,1.9089,1.7683,1.6389,1.5858,1.5744,1.5361,1.4257,1.4103,1.3722,1.2656,1.2501,1.2501,1.2501,1.2501,1.2501,1.2501,1.2501,1.2501,1.2501,1.2501,1.2501,1.2501,1.2501,1.2501,1.2501,1.2501,1.2501,1.2501,1.2501,1.2501,1.2501,1.2501,1.2501,0.0,0.0,0.0,3.873,3.927,3.9063,3.6765,3.6213,3.5666,0.0,0.0,0.0,0.0,0.0,0.0,0.0,0.0,0.0,0.0,0.0,0.0,0.0,0.0,0.0,0.0,0.0,0.0,0.0,0.0,3.4658,3.4658,3.4645,3.4827,3.5251,3.4193,3.3196,3.2394,2.9456,2.7576,2.6808,2.5295,2.4572,2.4572,2.4572,2.4572,2.4572,2.4572,2.4572,2.4572,2.4592,2.4599,2.4599,2.4599,2.4334,2.4001,2.4001,2.3742,2.3333,2.3005,2.2893,2.2819,2.2446,2.2296,2.2296,2.2296,2.2296,2.2296,2.2296,2.2296,2.2296,2.2259,2.2184,2.2147,2.2147,2.0919,1.9736,1.9736,1.9698,1.9202,1.7645,1.5969,1.433,1.2768,1.2501,1.2501,1.2501,1.2501,1.2501,1.2501,1.2501,1.2501,1.2501,1.2501,1.2501,1.2501,1.2501,1.2501,1.2501,1.2501,1.2501,1.2501,1.2501,1.2501,1.2501,1.2501,1.2501,1.2501,1.2501,1.2501,1.2501,1.2501,1.2501,3.657,0.0,0.0,0.0,0.0,0.0,3.7592,3.6792,3.5822,0.0,0.0,0.0,0.0,0.0,0.0,0.0,0.0,0.0,0.0,0.0,0.0,0.0,0.0,0.0,0.0,0.0,0.0,0.0,3.3779,3.3779,3.3779,3.3116,3.2445,3.1798,2.9957,2.8343,2.7034,2.5684,2.4885,2.4641,2.4224,2.4008,2.4008,2.4008,2.4008,2.4008,2.4008,2.4008,2.4042,2.4426,2.4599,2.4599,2.4599,2.4334,2.4001,2.4001,2.36,2.3042,2.293,2.2707,2.2446,2.234,2.2296,2.2296,2.2296,2.2296,2.2296,2.2296,2.2296,2.2029,2.0806,1.9623,1.8749,1.8749,1.8408,1.8062,1.8062,1.7112,1.6121,1.5663,1.4295,1.3035,1.2579,1.2501,1.2501,1.2501,1.2501,1.2501,1.2501,1.2501,1.2501,1.2501,1.2501,1.2501,1.2501,1.2501,1.2501,1.2501,1.2501,1.2501,1.2501,1.2501,1.2501,1.2501,1.2501,1.2501,1.2501,1.2501,1.2501,1.2501,1.2501,1.2501,0.0,0.0,0.0,0.0,0.0,0.0,3.7248,3.6565,3.5667,0.0,0.0,0.0,0.0,0.0,0.0,0.0,0.0,0.0,0.0,0.0,0.0,0.0,0.0,0.0,0.0,0.0,0.0,3.3386,3.3386,3.3386,3.3386,3.2491,3.1703,3.1096,2.864,2.686,2.5833,2.4628,2.3939,2.381,2.381,2.381,2.381,2.381,2.381,2.381,2.381,2.381,2.383,2.4135,2.4275,2.4252,2.4189,2.3935,2.3581,2.3555,2.3154,2.2632,2.2632,2.2483,2.2296,2.2296,2.2296,2.2296,2.2296,2.1804,2.1262,2.1262,2.0769,2.0043,1.9051,1.81,1.7417,1.7417,1.6884,1.635,1.635,1.5059,1.4103,1.4786,1.3606,1.2501,1.2501,1.2501,1.2501,1.2501,1.2501,1.2501,1.2501,1.2501,1.2501,1.2501,1.2501,1.2501,1.2501,1.2501,1.2501,1.2501,1.2501,1.2501,1.2501,1.2501,1.2501,1.2501,1.2501,1.2501,1.2501,1.2501,1.2501,1.2501,1.2501,1.2501,0.0,0.0,0.0,0.0,0.0,0.0,3.6688,3.6364,3.5777,3.2892,0.0,0.0,0.0,0.0,0.0,0.0,0.0,0.0,0.0,0.0,0.0,0.0,0.0,0.0,0.0,3.3281,3.3301,3.3318,3.3357,3.3323,3.3197,3.2217,3.1596,3.139,2.8743,2.7093,2.6697,2.4989,2.4001,2.3703,2.3703,2.3703,2.3703,2.3703,2.3703,2.3703,2.3703,2.3703,2.3703,2.3703,2.3708,2.3723,2.3615,2.3278,2.2903,2.2824,2.2565,2.2254,2.2254,2.2278,2.2259,2.2066,2.2029,2.1991,2.1804,2.0731,1.9547,1.9547,1.837,1.7112,1.7112,1.6998,1.6846,1.6846,1.5705,1.4637,1.4637,1.3494,1.2919,1.4372,1.3494,1.2501,1.2501,1.2501,1.2501,1.2501,1.2501,1.2501,1.2501,1.2501,1.2501,1.2501,1.2463,1.2424,1.2424,1.2424,1.2424,1.2424,1.2463,1.2501,1.2501,1.2501,1.2501,1.2501,1.2501,1.2501,1.2501,1.2501,1.2501,1.2501,1.2501,1.2501,0.0,0.0,0.0,0.0,0.0,0.0,3.9025,3.8973,3.8319,0.0,0.0,0.0,0.0,0.0,0.0,0.0,0.0,0.0,0.0,0.0,0.0,0.0,0.0,0.0,0.0,3.2443,3.2559,3.2891,3.3232,3.2902,3.1771,3.0458,2.9096,2.7698,2.5738,2.4531,2.4113,2.3474,2.3136,2.3074,2.3074,2.3074,2.3074,2.3074,2.3074,2.3074,2.3074,2.3074,2.3074,2.3074,2.3152,2.3311,2.3291,2.2874,2.2256,2.2276,2.2153,2.1982,2.1982,2.2121,2.2066,2.0731,2.0306,2.0043,1.8749,1.8138,1.7872,1.7872,1.6655,1.5399,1.5399,1.4445,1.3456,1.3456,1.3228,1.2958,1.2958,1.273,1.2579,1.2923,1.2691,1.2501,1.2501,1.2501,1.2501,1.2501,1.2501,1.2501,1.2501,1.2501,1.2501,1.2501,1.2192,1.2037,1.2037,1.2037,1.2037,1.2037,1.2308,1.2501,1.2501,1.2501,1.2501,1.2501,1.2501,1.2501,1.2501,1.2501,1.2501,1.2501,1.2501,1.2501,0.0,0.0,0.0,3.8894,0.0,0.0,0.0,3.8699,3.8214,3.6174,3.5847,0.0,0.0,0.0,0.0,0.0,0.0,0.0,0.0,0.0,0.0,0.0,0.0,0.0,0.0,3.2198,3.2286,3.2501,3.2059,3.1584,3.1043,2.9062,2.7555,2.6637,2.4921,2.3816,2.3406,2.3065,2.2893,2.2893,2.2893,2.2893,2.2893,2.2893,2.2893,2.2893,2.2893,2.2893,2.2893,2.2893,2.2729,2.2527,2.2663,2.236,2.1839,2.1803,2.1281,2.055,2.055,2.0189,1.9634,1.8768,1.8539,1.8446,1.7645,1.6808,1.6007,1.5169,1.4333,1.3683,1.3683,1.3112,1.2501,1.2501,1.2501,1.2501,1.2501,1.2501,1.2501,1.2501,1.2501,1.2501,1.2501,1.2501,1.2501,1.2501,1.2501,1.2501,1.2501,1.2501,1.2501,1.2501,1.2308,1.2192,1.2192,1.2037,1.1998,1.2192,1.1998,1.1998,1.2192,1.1998,1.1882,1.1882,1.1882,1.1882,1.1882,1.1882,1.1998,1.2192,1.2192,1.2076,0.0,0.0,0.0,0.0,0.0,3.9388,0.0,0.0,0.0,3.6147,3.5972,0.0,0.0,0.0,0.0,0.0,0.0,0.0,0.0,0.0,0.0,0.0,0.0,0.0,0.0,3.2022,3.2071,3.2071,3.0903,3.0197,3.0212,2.7907,2.643,2.6003,2.4631,2.3726,2.3304,2.3037,2.2893,2.2893,2.2893,2.2893,2.2893,2.2893,2.2893,2.2893,2.2893,2.2893,2.2893,2.2832,2.2413,2.182,2.2049,2.1851,2.1391,2.1019,2.0139,1.9072,1.8783,1.8011,1.708,1.6782,1.6551,1.6411,1.6411,1.5489,1.418,1.2884,1.2501,1.2501,1.2501,1.2501,1.2501,1.2501,1.2501,1.2501,1.2501,1.2501,1.2501,1.2501,1.2501,1.2501,1.2501,1.2501,1.2501,1.2501,1.2501,1.2463,1.2385,1.2385,1.2347,1.2269,1.2192,1.2114,1.2114,1.1843,1.1805,1.2114,1.1611,1.1456,1.1766,1.1456,1.1301,1.1301,1.1301,1.1301,1.1301,1.1301,1.1456,1.1766,1.1766,1.1611,0.0,0.0,0.0,0.0,3.9647,0.0,0.0,0.0,3.9154,3.7858,0.0,0.0,0.0,0.0,0.0,0.0,0.0,0.0,0.0,0.0,0.0,0.0,0.0,0.0,0.0,0.0,3.1592,3.1592,3.0703,2.9675,2.8478,2.7054,2.5518,2.3899,2.3646,2.3376,2.2962,2.2928,2.2893,2.2893,2.2893,2.2893,2.2893,2.2893,2.2893,2.2893,2.2893,2.2893,2.2859,2.2516,2.2138,2.18,2.1832,2.1436,2.0644,1.9259,1.8799,1.8651,1.7283,1.6841,1.6687,1.5254,1.3938,1.2879,1.2879,1.2818,1.273,1.254,1.2501,1.2501,1.2501,1.2501,1.2501,1.2501,1.2501,1.2501,1.2501,1.2501,1.2501,1.2501,1.2501,1.2501,1.2501,1.2501,1.2501,1.2501,1.2501,1.2385,1.1998,1.196,1.1843,1.1456,1.1068,1.0835,1.0835,1.0755,1.0755,1.0796,1.1107,1.1301,1.1378,1.1301,1.1301,1.1301,1.1301,1.1301,1.1301,1.1301,1.1301,1.1378,1.1378,1.134,0.0,0.0,0.0,0.0,0.0,0.0,3.9697,0.0,3.9555,0.0,0.0,0.0,0.0,0.0,0.0,0.0,3.2993,0.0,0.0,0.0,0.0,0.0,0.0,0.0,0.0,0.0,0.0,0.0,0.0,2.7754,2.6377,2.5073,2.3965,2.2953,2.3099,2.3023,2.2605,2.2813,2.2893,2.2893,2.2893,2.2893,2.2893,2.2893,2.2893,2.2893,2.2893,2.2756,2.2551,2.2379,2.1966,2.1455,2.1455,2.1144,2.0527,1.8971,1.7898,1.7015,1.5524,1.4541,1.3834,1.3282,1.2696,1.2196,1.2196,1.2298,1.2379,1.2379,1.2437,1.2501,1.2501,1.2501,1.2501,1.2501,1.2501,1.2501,1.2501,1.2308,1.2153,1.2153,1.196,1.1805,1.1805,1.1998,1.2076,1.1843,1.1805,1.1727,1.1572,1.1533,1.1495,1.1301,1.1107,1.1029,1.1029,1.0758,1.0719,1.099,1.0952,1.0796,1.0563,1.0563,1.0563,1.0563,1.0563,1.0563,1.0563,1.0563,1.0563,1.0563,1.0796,1.0758,3.9697,0.0,0.0,0.0,0.0,0.0,0.0,0.0,0.0,0.0,0.0,0.0,0.0,0.0,0.0,0.0,0.0,0.0,0.0,0.0,0.0,0.0,0.0,0.0,0.0,0.0,0.0,2.9009,2.7727,2.6363,2.4953,2.3671,2.2779,2.2406,2.2632,2.2584,2.2298,2.2592,2.2773,2.2773,2.2853,2.2893,2.2893,2.2893,2.2893,2.2893,2.2791,2.2585,2.2276,2.207,2.1443,2.0578,2.0474,2.0017,1.9285,1.8191,1.6811,1.5287,1.3773,1.2611,1.1756,1.1904,1.2002,1.2036,1.2036,1.2104,1.2264,1.2264,1.2332,1.2444,1.2444,1.2471,1.2501,1.2501,1.2501,1.2463,1.2347,1.2114,1.1882,1.1766,1.1495,1.1262,1.1146,1.1456,1.165,1.134,1.1301,1.1262,1.1107,1.1107,1.1068,1.0952,1.0952,1.0952,1.0952,1.0641,1.0563,1.0913,1.0602,1.0291,1.0019,0.998,0.998,0.998,0.998,0.998,0.998,0.998,0.998,1.0019,1.0291,1.0291,0.0,0.0,0.0,3.9697,0.0,0.0,0.0,0.0,3.9697,0.0,0.0,0.0,0.0,0.0,0.0,0.0,0.0,0.0,0.0,0.0,0.0,0.0,0.0,0.0,0.0,0.0,0.0,2.9009,2.7727,2.6286,2.471,2.3331,2.2455,2.213,2.2118,2.2107,2.1997,2.2291,2.2432,2.2438,2.2726,2.2893,2.2893,2.2893,2.2893,2.2866,2.2482,2.231,2.2242,2.1518,2.0364,1.903,1.8651,1.7554,1.6237,1.6202,1.5252,1.3741,1.2219,1.1623,1.1626,1.1597,1.1692,1.18,1.18,1.1945,1.2108,1.2108,1.2217,1.2298,1.2298,1.24,1.2501,1.2501,1.2501,1.2385,1.1998,1.1921,1.1766,1.1378,1.1301,1.1146,1.0719,1.1029,1.1301,1.1301,1.1301,1.1146,1.068,1.0602,1.0486,1.0097,1.0058,1.0058,1.0058,1.0022,1.0022,1.0058,1.0022,1.0019,0.998,0.998,0.998,0.998,0.998,0.998,0.998,0.998,0.998,0.998,1.0019,1.0019,0.0,0.0,3.9452,3.9452,0.0,0.0,0.0,0.0,0.0,0.0,0.0,0.0,0.0,0.0,0.0,0.0,0.0,0.0,0.0,0.0,0.0,0.0,0.0,0.0,0.0,0.0,0.0,2.7825,2.7048,2.5582,0.0,2.2292,2.1782,2.1447,2.1642,2.1758,2.1729,2.1984,2.2225,2.2385,2.2519,2.2706,2.2893,2.2893,2.2756,2.2516,2.2345,2.2035,2.1553,2.1311,2.0162,1.8581,1.8441,1.6851,1.4654,1.4654,1.4338,1.367,1.2115,1.1584,1.1584,1.1584,1.1614,1.1655,1.1655,1.1792,1.1908,1.1908,1.202,1.2176,1.2176,1.2061,1.198,1.198,1.1856,1.1688,1.1533,1.1262,1.099,1.0874,1.0602,1.0408,1.0214,1.033,1.0447,1.0447,1.0447,1.0369,1.0214,1.0214,1.0136,1.0019,0.998,0.998,0.998,0.998,0.998,0.998,0.998,0.998,0.998,0.998,0.998,0.998,0.998,0.998,0.998,0.998,0.998,0.998,0.998,0.998,4.0207,3.9843,0.0,3.9203,3.9128,0.0,3.9478,0.0,0.0,0.0,0.0,0.0,0.0,0.0,0.0,0.0,0.0,0.0,0.0,2.9149,0.0,0.0,0.0,0.0,0.0,0.0,2.9588,2.6987,2.6738,2.5338,0.0,0.0,2.1576,2.1109,2.1296,2.1428,2.1428,2.1716,2.1924,2.2111,2.2318,2.2519,2.2706,2.271,2.2551,2.2276,2.2035,2.1622,2.1138,2.0474,1.9175,1.7519,1.6992,1.5296,1.3142,1.3706,1.3563,1.2928,1.1936,1.1584,1.1584,1.1584,1.1584,1.1584,1.1584,1.1648,1.1729,1.178,1.1901,1.1993,1.1898,1.1759,1.1602,1.1454,1.1289,1.1134,1.1026,1.0765,1.0548,1.04,1.0175,0.998,0.998,0.998,0.998,0.998,0.998,0.998,0.998,0.998,0.998,0.998,0.998,0.998,0.998,0.998,0.998,0.998,0.998,0.998,0.998,0.998,0.998,0.998,0.998,0.998,0.998,0.998,0.998,0.998,0.998,0.998]},{"header":{"parameterUnit":"m.s-1","parameterCategory":1,"la1":30.6,"la2":29.2853,"lo1":-89.7004,"lo2":-87.6739,"dy":0.0162,"dx":0.0183,"nx":112,"ny":82,"refTime":"2023-11-08T06:00:00:Z","depth":0,"parameterNumber":3,"parameterNumberName":"V-component_of_WINDS"},"data":[0.0,0.0,0.0,0.0,0.0,0.0,0.0,0.0,0.0,0.0,0.0,0.0,0.0,0.0,0.0,0.0,0.0,0.0,0.0,0.0,0.0,0.0,0.0,0.0,0.0,0.0,0.0,0.0,0.0,0.0,0.0,0.0,0.0,0.0,0.0,0.0,0.0,0.0,0.0,0.0,0.0,0.0,0.0,0.0,0.0,0.0,0.0,0.0,0.0,0.0,0.0,0.0,0.0,0.0,0.0,0.0,0.0,0.0,0.0,0.0,0.0,0.0,0.0,0.0,0.0,0.0,0.0,0.0,0.0,0.0,0.0,0.0,0.0,0.0,0.0,0.0,0.0,0.0,0.0,0.0,0.0,0.0,0.0,0.0,0.0,0.0,0.0,0.0,0.0,0.0,3.1511,3.1511,3.1511,3.1511,3.1511,3.1511,3.1511,3.1511,0.0,0.0,0.0,0.0,0.0,0.0,0.0,0.0,0.0,0.0,0.0,0.0,0.0,0.0,0.0,0.0,0.0,0.0,0.0,0.0,0.0,0.0,0.0,0.0,0.0,0.0,0.0,0.0,0.0,0.0,0.0,0.0,0.0,0.0,0.0,0.0,0.0,0.0,0.0,0.0,0.0,0.0,0.0,0.0,0.0,0.0,0.0,0.0,0.0,0.0,0.0,0.0,0.0,0.0,0.0,0.0,0.0,0.0,0.0,0.0,0.0,0.0,0.0,0.0,0.0,0.0,0.0,0.0,0.0,0.0,0.0,0.0,0.0,0.0,0.0,0.0,0.0,0.0,0.0,0.0,0.0,0.0,0.0,0.0,0.0,0.0,0.0,0.0,0.0,0.0,0.0,0.0,0.0,0.0,0.0,0.0,0.0,0.0,0.0,0.0,0.0,0.0,0.0,0.0,3.1511,3.1511,3.1511,3.1511,3.1511,3.1511,3.1511,3.1511,0.0,0.0,0.0,0.0,0.0,0.0,0.0,0.0,0.0,0.0,0.0,0.0,0.0,0.0,0.0,0.0,0.0,0.0,0.0,0.0,0.0,0.0,0.0,0.0,0.0,0.0,0.0,0.0,0.0,0.0,0.0,0.0,0.0,0.0,0.0,0.0,0.0,0.0,0.0,0.0,0.0,0.0,0.0,0.0,0.0,0.0,0.0,0.0,0.0,0.0,0.0,0.0,0.0,0.0,0.0,0.0,0.0,0.0,0.0,0.0,0.0,0.0,0.0,0.0,0.0,0.0,0.0,0.0,0.0,0.0,0.0,0.0,0.0,0.0,0.0,0.0,0.0,0.0,0.0,0.0,0.0,0.0,0.0,0.0,0.0,0.0,0.0,0.0,0.0,0.0,0.0,0.0,0.0,0.0,0.0,0.0,0.0,0.0,0.0,0.0,0.0,0.0,0.0,3.1511,3.1511,3.1511,3.1511,3.1511,3.1511,3.1824,3.1884,3.1525,3.1839,0.0,0.0,0.0,0.0,0.0,0.0,0.0,0.0,0.0,0.0,0.0,0.0,0.0,0.0,0.0,0.0,0.0,0.0,0.0,0.0,0.0,0.0,0.0,0.0,0.0,0.0,0.0,0.0,0.0,0.0,0.0,0.0,0.0,0.0,0.0,0.0,0.0,0.0,0.0,0.0,0.0,0.0,0.0,0.0,0.0,0.0,0.0,0.0,0.0,0.0,0.0,0.0,0.0,0.0,0.0,0.0,0.0,0.0,0.0,0.0,0.0,0.0,0.0,0.0,0.0,0.0,0.0,0.0,0.0,0.0,0.0,0.0,0.0,0.0,0.0,0.0,0.0,0.0,0.0,0.0,0.0,0.0,0.0,0.0,0.0,0.0,0.0,0.0,0.0,0.0,0.0,0.0,0.0,0.0,0.0,0.0,0.0,0.0,0.0,0.0,0.0,0.0,3.1869,3.1974,3.1974,3.1974,3.1974,3.1974,3.2437,3.2512,3.1989,3.2452,0.0,0.0,0.0,0.0,0.0,0.0,0.0,0.0,0.0,0.0,0.0,0.0,0.0,0.0,0.0,0.0,0.0,0.0,0.0,0.0,0.0,0.0,0.0,0.0,0.0,0.0,0.0,0.0,0.0,0.0,0.0,0.0,0.0,0.0,0.0,0.0,0.0,0.0,0.0,0.0,0.0,0.0,0.0,0.0,0.0,0.0,0.0,0.0,0.0,0.0,0.0,0.0,0.0,0.0,0.0,0.0,0.0,0.0,0.0,0.0,0.0,0.0,0.0,0.0,0.0,0.0,0.0,0.0,0.0,0.0,0.0,0.0,0.0,0.0,0.0,0.0,0.0,0.0,0.0,0.0,0.0,0.0,0.0,0.0,0.0,0.0,0.0,0.0,0.0,0.0,0.0,0.0,0.0,0.0,0.0,0.0,0.0,0.0,0.0,0.0,0.0,0.0,3.2976,3.3365,3.3365,3.3365,3.3365,3.3365,3.3395,3.341,3.3365,3.3395,0.0,0.0,0.0,0.0,0.0,0.0,0.0,0.0,0.0,0.0,0.0,0.0,0.0,0.0,0.0,0.0,0.0,0.0,0.0,0.0,0.0,0.0,0.0,0.0,0.0,0.0,0.0,0.0,0.0,0.0,0.0,0.0,0.0,0.0,0.0,0.0,0.0,0.0,0.0,0.0,0.0,0.0,0.0,0.0,0.0,0.0,0.0,0.0,0.0,0.0,0.0,0.0,0.0,0.0,0.0,0.0,0.0,0.0,0.0,0.0,0.0,0.0,0.0,0.0,0.0,0.0,0.0,0.0,0.0,0.0,0.0,0.0,0.0,0.0,0.0,0.0,0.0,0.0,0.0,0.0,0.0,0.0,0.0,0.0,0.0,0.0,0.0,0.0,0.0,0.0,0.0,0.0,0.0,0.0,0.0,0.0,0.0,0.0,0.0,0.0,0.0,0.0,3.3441,3.3652,0.0,3.3499,3.3545,3.3682,3.4028,3.4088,3.3698,0.0,0.0,0.0,0.0,0.0,0.0,0.0,0.0,0.0,0.0,0.0,0.0,0.0,0.0,0.0,0.0,0.0,0.0,0.0,0.0,0.0,0.0,0.0,0.0,0.0,0.0,0.0,0.0,0.0,0.0,0.0,0.0,0.0,0.0,0.0,0.0,0.0,0.0,0.0,0.0,0.0,0.0,0.0,0.0,0.0,0.0,0.0,0.0,0.0,0.0,0.0,0.0,0.0,0.0,0.0,0.0,0.0,0.0,0.0,0.0,0.0,0.0,0.0,0.0,0.0,0.0,0.0,0.0,0.0,0.0,0.0,0.0,0.0,0.0,0.0,0.0,0.0,0.0,0.0,0.0,0.0,0.0,0.0,0.0,0.0,0.0,0.0,0.0,0.0,0.0,0.0,0.0,0.0,0.0,0.0,0.0,0.0,0.0,0.0,0.0,0.0,0.0,3.3891,3.4195,3.4376,0.0,3.4284,3.4361,3.4499,3.4877,3.4937,3.453,0.0,0.0,0.0,0.0,0.0,0.0,0.0,0.0,0.0,0.0,0.0,0.0,0.0,0.0,0.0,0.0,0.0,0.0,0.0,0.0,0.0,0.0,0.0,0.0,0.0,0.0,0.0,0.0,0.0,0.0,0.0,0.0,0.0,0.0,0.0,0.0,0.0,0.0,0.0,0.0,0.0,0.0,0.0,0.0,0.0,0.0,0.0,0.0,0.0,0.0,0.0,0.0,0.0,0.0,0.0,0.0,0.0,0.0,0.0,0.0,0.0,0.0,0.0,0.0,0.0,0.0,0.0,0.0,0.0,0.0,0.0,0.0,0.0,0.0,0.0,0.0,0.0,0.0,0.0,0.0,0.0,0.0,0.0,0.0,0.0,0.0,0.0,0.0,0.0,0.0,0.0,0.0,0.0,0.0,0.0,0.0,0.0,0.0,0.0,0.0,0.0,0.0,3.4692,3.5296,3.5768,3.5973,3.6005,3.6005,3.6005,3.6005,3.6005,0.0,0.0,0.0,0.0,0.0,0.0,0.0,0.0,0.0,0.0,0.0,0.0,0.0,0.0,0.0,0.0,0.0,0.0,0.0,0.0,0.0,0.0,0.0,0.0,0.0,0.0,0.0,0.0,0.0,0.0,0.0,0.0,0.0,0.0,0.0,0.0,0.0,0.0,0.0,0.0,0.0,0.0,0.0,0.0,0.0,0.0,0.0,0.0,0.0,0.0,0.0,0.0,0.0,0.0,0.0,0.0,0.0,0.0,0.0,0.0,0.0,0.0,0.0,0.0,0.0,0.0,0.0,0.0,0.0,0.0,0.0,0.0,0.0,0.0,0.0,0.0,0.0,0.0,0.0,0.0,0.0,0.0,0.0,0.0,0.0,0.0,0.0,0.0,0.0,0.0,0.0,0.0,0.0,0.0,0.0,0.0,0.0,0.0,0.0,0.0,0.0,0.0,0.0,3.5417,3.579,3.6037,3.6005,3.6005,3.6037,3.6132,3.6148,3.6148,3.6148,0.0,0.0,0.0,0.0,0.0,0.0,0.0,0.0,0.0,0.0,0.0,0.0,0.0,0.0,0.0,0.0,0.0,0.0,0.0,0.0,0.0,0.0,0.0,0.0,0.0,0.0,0.0,0.0,0.0,0.0,0.0,0.0,0.0,0.0,0.0,0.0,0.0,0.0,0.0,0.0,0.0,0.0,0.0,0.0,0.0,0.0,0.0,0.0,0.0,0.0,0.0,0.0,0.0,0.0,0.0,0.0,0.0,0.0,0.0,0.0,0.0,0.0,0.0,0.0,0.0,0.0,0.0,0.0,0.0,0.0,0.0,0.0,0.0,0.0,0.0,0.0,0.0,0.0,0.0,0.0,0.0,0.0,0.0,0.0,0.0,0.0,0.0,0.0,0.0,0.0,0.0,0.0,0.0,0.0,0.0,0.0,0.0,0.0,0.0,0.0,0.0,0.0,3.6194,3.6449,3.6699,3.6974,3.7004,3.7021,3.7117,3.6872,3.6814,3.7064,0.0,0.0,0.0,0.0,0.0,0.0,0.0,0.0,0.0,0.0,0.0,0.0,0.0,0.0,0.0,0.0,0.0,0.0,0.0,0.0,0.0,0.0,0.0,0.0,0.0,0.0,0.0,0.0,0.0,0.0,0.0,0.0,0.0,0.0,0.0,0.0,0.0,0.0,0.0,0.0,0.0,0.0,0.0,0.0,0.0,0.0,0.0,0.0,0.0,0.0,0.0,0.0,0.0,0.0,0.0,0.0,0.0,0.0,0.0,0.0,0.0,0.0,0.0,0.0,0.0,0.0,0.0,0.0,0.0,0.0,0.0,0.0,0.0,0.0,0.0,0.0,0.0,0.0,0.0,0.0,0.0,0.0,0.0,0.0,0.0,0.0,0.0,0.0,0.0,0.0,0.0,0.0,0.0,0.0,0.0,0.0,0.0,0.0,0.0,0.0,0.0,0.0,3.6975,3.723,3.7654,3.8496,3.8591,3.8607,3.8688,3.8132,3.7997,3.8554,0.0,0.0,0.0,0.0,0.0,0.0,0.0,0.0,0.0,0.0,0.0,0.0,0.0,0.0,0.0,0.0,0.0,0.0,0.0,0.0,0.0,0.0,0.0,0.0,0.0,0.0,0.0,0.0,0.0,0.0,0.0,0.0,0.0,0.0,0.0,0.0,0.0,0.0,0.0,0.0,0.0,0.0,0.0,0.0,0.0,0.0,0.0,0.0,0.0,0.0,0.0,0.0,0.0,0.0,0.0,0.0,0.0,0.0,0.0,0.0,3.0682,0.0,0.0,0.0,0.0,0.0,0.0,0.0,0.0,0.0,0.0,0.0,0.0,0.0,0.0,0.0,0.0,0.0,0.0,0.0,0.0,0.0,0.0,0.0,0.0,0.0,0.0,0.0,0.0,0.0,0.0,0.0,0.0,0.0,0.0,0.0,0.0,0.0,0.0,0.0,0.0,0.0,3.7687,3.803,3.8502,3.9204,3.9298,3.9502,4.004,3.9941,3.9905,4.0039,3.9806,0.0,0.0,0.0,0.0,0.0,0.0,0.0,0.0,0.0,0.0,0.0,0.0,0.0,0.0,0.0,0.0,0.0,0.0,0.0,0.0,0.0,0.0,0.0,0.0,0.0,0.0,0.0,0.0,0.0,0.0,0.0,0.0,0.0,0.0,0.0,0.0,0.0,0.0,0.0,0.0,0.0,0.0,0.0,0.0,0.0,0.0,0.0,0.0,0.0,0.0,0.0,0.0,0.0,0.0,0.0,0.0,0.0,0.0,0.0,0.0,3.1692,0.0,0.0,0.0,0.0,0.0,0.0,0.0,0.0,0.0,0.0,0.0,0.0,0.0,0.0,0.0,0.0,0.0,0.0,0.0,0.0,0.0,0.0,0.0,0.0,0.0,0.0,0.0,0.0,0.0,0.0,0.0,0.0,0.0,0.0,0.0,0.0,0.0,0.0,0.0,0.0,3.8537,3.8834,3.9241,3.9915,4.0273,4.0595,4.0941,4.099,4.1112,4.1393,4.0846,0.0,0.0,0.0,0.0,0.0,0.0,0.0,0.0,0.0,0.0,0.0,0.0,0.0,0.0,0.0,0.0,0.0,0.0,0.0,0.0,0.0,0.0,0.0,0.0,0.0,0.0,0.0,0.0,0.0,0.0,0.0,0.0,0.0,0.0,0.0,0.0,0.0,0.0,0.0,0.0,0.0,0.0,0.0,0.0,0.0,0.0,0.0,0.0,0.0,0.0,0.0,0.0,0.0,3.4371,3.4798,3.5348,3.5348,3.5762,3.6394,3.4676,3.3853,3.3762,0.0,0.0,0.0,0.0,0.0,0.0,0.0,0.0,0.0,0.0,0.0,0.0,0.0,0.0,0.0,0.0,0.0,0.0,0.0,0.0,0.0,0.0,0.0,0.0,0.0,3.8179,3.8208,0.0,0.0,0.0,0.0,0.0,0.0,0.0,0.0,0.0,0.0,0.0,0.0,3.9565,3.9863,4.0282,4.0944,4.1525,4.1901,4.2029,4.2032,4.2251,4.2752,4.1811,4.1378,0.0,0.0,0.0,0.0,0.0,0.0,0.0,0.0,0.0,0.0,0.0,0.0,0.0,0.0,0.0,0.0,0.0,0.0,0.0,0.0,0.0,0.0,0.0,0.0,0.0,0.0,0.0,0.0,0.0,0.0,0.0,0.0,2.9365,2.9383,0.0,0.0,0.0,0.0,0.0,0.0,0.0,0.0,0.0,0.0,0.0,0.0,0.0,0.0,3.4856,3.5518,3.5865,3.5952,3.6619,3.6991,3.708,3.708,3.7132,3.7235,3.697,0.0,3.5943,3.6588,0.0,0.0,0.0,0.0,0.0,0.0,0.0,0.0,0.0,0.0,0.0,0.0,0.0,0.0,0.0,0.0,0.0,0.0,0.0,0.0,0.0,0.0,3.833,3.8759,3.8948,3.9219,0.0,3.8899,3.7962,3.7962,0.0,0.0,0.0,0.0,0.0,0.0,0.0,0.0,4.0957,4.166,4.236,4.3029,4.3181,4.3499,4.4152,4.4197,4.4218,4.4305,4.4162,4.3805,4.3245,4.3834,0.0,0.0,0.0,0.0,0.0,0.0,0.0,0.0,0.0,0.0,0.0,0.0,0.0,0.0,0.0,0.0,0.0,0.0,0.0,0.0,0.0,0.0,0.0,0.0,0.0,0.0,0.0,0.0,0.0,3.0319,3.0679,3.0371,3.0828,3.1009,0.0,0.0,0.0,0.0,0.0,0.0,0.0,0.0,0.0,3.5221,3.5529,3.5924,3.6438,3.6752,3.7308,3.8046,3.8367,3.8931,3.9652,3.9652,3.9652,3.9652,3.9652,3.947,3.9062,3.7878,3.7215,3.6958,0.0,0.0,0.0,0.0,0.0,3.7387,3.7387,0.0,0.0,0.0,0.0,0.0,0.0,0.0,0.0,0.0,0.0,0.0,0.0,0.0,0.0,3.9776,3.9889,4.0017,4.0341,3.9874,3.9392,0.0,3.9599,3.9735,3.9358,0.0,0.0,0.0,0.0,4.1805,4.2558,4.296,4.3456,4.4163,4.457,4.4908,4.5243,4.5245,4.5227,4.5227,4.4838,4.4454,4.4119,4.4426,4.4288,0.0,0.0,0.0,0.0,0.0,0.0,0.0,0.0,0.0,0.0,0.0,0.0,0.0,0.0,0.0,0.0,0.0,0.0,0.0,0.0,0.0,0.0,0.0,0.0,0.0,0.0,0.0,0.0,3.1359,3.1644,3.1252,3.1889,3.2123,0.0,0.0,0.0,0.0,0.0,0.0,3.5256,3.543,3.6004,3.7056,3.7267,3.768,3.8422,3.8422,3.8931,3.99,3.99,4.0516,4.1658,4.1658,4.1658,4.1658,4.1658,4.1553,4.1254,3.9245,3.8422,3.8407,3.8242,3.8182,3.8153,3.7971,3.805,3.8237,3.8237,3.8494,3.8801,3.8801,0.0,3.9119,3.9673,0.0,0.0,0.0,0.0,4.0637,4.0832,0.0,4.0905,4.101,4.1045,4.1082,4.1275,4.1327,4.1133,0.0,4.1061,4.1493,4.0995,0.0,0.0,0.0,0.0,4.3566,4.4168,4.4391,4.4699,4.524,4.5764,4.6059,4.6059,4.6014,4.5974,4.5974,4.5481,4.5074,4.4888,4.4888,4.4787,4.4615,0.0,0.0,0.0,0.0,0.0,0.0,0.0,0.0,0.0,0.0,0.0,0.0,0.0,0.0,0.0,0.0,0.0,0.0,0.0,0.0,0.0,0.0,0.0,0.0,0.0,0.0,0.0,0.0,0.0,3.1758,3.2949,0.0,0.0,0.0,0.0,3.5053,3.515,3.549,3.6204,3.6823,3.7813,3.92,3.9863,4.0509,4.1194,4.1194,4.1224,4.1298,4.1298,4.1658,4.2351,4.2351,4.2351,4.2351,4.2351,4.1991,4.1388,4.1254,4.1194,4.1134,4.0487,4.0247,4.0172,3.9526,3.9817,4.0543,4.0543,4.1076,4.1787,4.1787,4.1802,4.1839,4.2056,4.2028,0.0,0.0,4.2172,4.2242,4.2421,4.2476,4.2491,4.2476,4.2476,4.2695,4.3392,4.3549,4.2931,0.0,4.1655,4.2621,4.2603,0.0,4.4675,4.4642,4.5207,4.5649,4.5682,4.6237,4.6661,4.6697,4.6727,4.6741,4.6741,4.6737,4.6735,4.6735,4.6716,4.6394,4.5669,4.5652,4.5314,4.4601,4.4615,0.0,0.0,0.0,0.0,0.0,0.0,0.0,0.0,0.0,0.0,0.0,0.0,0.0,0.0,0.0,0.0,0.0,0.0,0.0,0.0,0.0,0.0,0.0,0.0,0.0,0.0,0.0,0.0,3.4028,3.4854,0.0,3.4794,3.5845,3.672,3.7156,3.8021,3.8863,3.9532,3.9821,4.017,4.0666,4.1343,4.1792,4.2051,4.2432,4.2831,4.3269,4.3269,4.3614,4.4277,4.4277,4.4277,4.4277,4.4277,4.4142,4.3918,4.3918,4.293,4.1373,4.1149,4.1044,4.1014,4.0771,4.098,4.1346,4.1346,4.1716,4.2206,4.2331,4.2383,4.2401,4.2474,4.2441,4.2401,4.2459,4.2803,4.3162,4.3217,4.3575,4.4013,4.4549,4.466,4.4861,4.5656,4.5812,4.5598,4.4828,4.4689,4.4561,4.4138,4.5173,4.5934,4.5512,4.5996,4.6608,4.7096,4.7361,4.7699,4.8173,4.8223,4.8223,4.8223,4.7784,4.7498,4.7498,4.7056,4.6667,4.6413,4.6413,4.6278,4.6022,4.5548,4.5314,0.0,0.0,0.0,0.0,0.0,0.0,0.0,0.0,0.0,0.0,0.0,0.0,0.0,0.0,0.0,0.0,0.0,0.0,0.0,0.0,0.0,0.0,0.0,0.0,0.0,0.0,3.6037,3.5563,3.6538,3.7054,3.6559,3.7833,3.8881,3.9312,4.0423,4.1268,4.1703,4.1942,4.2147,4.2357,4.281,4.314,4.3364,4.3778,4.4192,4.4646,4.4646,4.499,4.5648,4.5648,4.5648,4.5648,4.5648,4.5514,4.5289,4.5289,4.4333,4.2822,4.2612,4.2522,4.2492,4.2329,4.2561,4.2959,4.3248,4.3533,4.3775,4.3919,4.3956,4.3956,4.3956,4.3956,4.3956,4.3956,4.4264,4.4606,4.4606,4.5143,4.5793,4.6353,4.6684,4.7098,4.7888,4.8042,4.811,4.8363,4.7604,4.6761,4.634,4.7375,4.8137,4.77,4.7997,4.846,4.8952,4.902,4.9206,4.9679,4.973,4.973,4.973,4.929,4.8901,4.8663,4.8173,4.7712,4.7263,4.7204,4.7086,4.6874,4.6385,4.6159,4.6248,0.0,0.0,0.0,0.0,0.0,0.0,0.0,0.0,0.0,0.0,0.0,0.0,0.0,0.0,0.0,0.0,0.0,0.0,0.0,0.0,0.0,0.0,0.0,3.5499,3.5855,3.6231,3.6259,3.7978,3.917,3.9199,4.0561,4.1448,4.1493,4.2077,4.247,4.2485,4.3045,4.3668,4.4311,4.4341,4.4676,4.5319,4.5364,4.5394,4.5394,4.5409,4.5768,4.639,4.639,4.639,4.639,4.639,4.6037,4.543,4.543,4.559,4.5751,4.5006,4.4735,4.4685,4.4226,4.4604,4.5437,4.6313,4.6603,4.6603,4.6603,4.6603,4.6603,4.6603,4.6608,4.6628,4.6628,4.6663,4.6698,4.6698,4.7313,4.7912,4.793,4.8526,4.9302,5.0052,5.0206,5.0409,5.1122,5.0157,4.9211,4.9161,5.0305,5.1201,5.1201,5.1201,0.0,5.1201,5.1201,5.1201,5.1201,5.1201,5.1201,5.1201,5.1201,5.0896,5.0184,5.015,4.9568,4.8275,4.8094,4.7723,4.7087,4.707,4.7155,4.7307,0.0,0.0,0.0,0.0,0.0,0.0,0.0,0.0,0.0,0.0,0.0,0.0,0.0,0.0,0.0,0.0,0.0,0.0,0.0,0.0,0.0,0.0,3.8469,3.8087,3.8704,3.9401,3.9892,4.0427,4.0961,4.1455,4.1872,4.2511,4.3434,4.3673,4.3988,4.4487,4.4661,4.484,4.502,4.5514,4.5837,4.6016,4.698,4.748,4.7474,4.7974,4.8304,4.8483,4.8483,4.8483,4.8483,4.8483,4.8452,4.8425,4.8425,4.8578,4.8583,4.6311,4.55,4.5627,4.551,4.5696,4.6079,4.6482,4.6603,4.6603,4.6603,4.6603,4.6603,4.6603,4.701,4.7465,4.7465,4.825,4.9069,4.9069,4.962,5.034,5.091,5.1233,5.1606,5.2386,5.2573,5.264,5.2825,5.2555,5.1933,5.0823,5.0936,5.1201,5.1201,5.1201,0.0,5.1201,5.1201,5.1201,5.1201,5.1201,5.1201,5.1201,5.133,5.1325,5.1137,5.1246,5.1169,5.0806,5.0743,5.0114,4.8831,4.8796,4.8311,0.0,0.0,0.0,0.0,0.0,0.0,0.0,0.0,0.0,0.0,0.0,0.0,0.0,0.0,0.0,0.0,0.0,0.0,0.0,0.0,0.0,0.0,3.9646,4.0253,4.0778,4.1084,4.1388,4.1762,4.2301,4.2761,4.3169,4.3454,4.3918,4.4661,4.4969,4.5298,4.5708,4.5992,4.6262,4.6546,4.6935,4.7279,4.7549,4.8334,4.8723,4.8723,4.9097,4.9292,4.9292,4.9292,4.9292,0.0,4.9389,4.9501,4.9613,4.9709,4.9909,0.0,0.0,0.0,0.0,0.0,4.8037,4.8209,4.869,4.8856,4.8916,4.9284,4.9407,4.9407,4.9407,4.9723,5.0112,5.0112,5.0725,5.1372,5.1372,5.1941,5.2639,5.3112,5.3471,5.3842,5.4328,5.4414,5.4414,5.4414,0.0,0.0,5.3247,5.2571,5.2148,5.2148,5.2148,5.2148,5.2148,5.2148,5.2181,5.2246,5.2246,5.2278,5.2377,5.249,0.0,0.0,0.0,5.2116,5.1806,5.1852,0.0,0.0,0.0,5.0151,4.9365,0.0,0.0,0.0,4.8145,4.7409,0.0,0.0,0.0,0.0,0.0,0.0,0.0,0.0,0.0,0.0,0.0,0.0,0.0,0.0,0.0,0.0,4.1175,4.2043,4.325,4.3075,4.2815,4.274,4.3718,4.4431,4.4521,4.5065,4.5469,4.5618,4.6181,4.6555,4.6629,0.0,0.0,0.0,0.0,4.8708,4.9277,4.9366,4.9441,4.9516,4.9576,4.9666,4.9726,4.9726,4.9726,4.9748,4.9975,5.0088,5.0133,5.0386,5.0608,5.0761,5.0455,5.0347,5.0391,5.071,5.0854,0.0,0.0,0.0,0.0,5.3054,5.3308,5.3308,5.3308,5.335,5.3444,5.3444,5.3502,5.3579,5.3579,5.4093,5.4629,5.4629,5.517,5.5699,5.5699,5.5699,5.5699,5.5699,5.5699,5.5699,5.5699,5.46,5.3754,5.3754,5.3754,5.3754,5.3754,5.3754,5.3805,5.3938,0.0,0.0,5.4237,5.4269,5.3962,5.3227,5.3122,5.2796,5.2127,5.2277,5.2333,5.2247,5.2247,5.2302,5.2394,5.2336,5.2613,5.3123,4.9592,4.8059,0.0,0.0,0.0,0.0,0.0,0.0,0.0,0.0,0.0,0.0,0.0,0.0,0.0,0.0,0.0,4.1803,4.2536,4.3205,4.3997,4.494,4.5349,4.4816,4.4945,4.5319,4.5852,4.6031,4.6561,4.7645,4.7855,4.8154,4.8693,4.8843,0.0,4.9097,4.9097,4.9157,4.9292,4.9778,5.0293,5.0855,0.0,0.0,5.245,5.245,5.245,5.245,5.2704,5.2957,5.3154,5.3435,5.3668,5.3638,5.1478,5.0617,5.0725,5.1466,5.1742,5.1887,5.2753,5.3054,5.3073,5.325,5.3308,5.3308,5.3308,5.3752,0.0,5.4278,5.4737,5.524,5.524,5.5364,5.5471,5.5471,5.5576,5.5699,5.5699,5.5699,5.5699,5.5699,5.5699,5.5699,5.5699,5.5462,5.5276,5.5276,5.5276,5.5276,5.5276,5.5276,5.5346,5.5536,5.557,5.5639,5.5842,5.5959,5.57,5.4963,5.4457,5.4141,5.3986,5.4474,5.4442,5.3795,5.3778,5.3735,5.3638,5.3148,5.3232,5.3811,5.2546,5.2237,0.0,0.0,0.0,0.0,0.0,0.0,0.0,0.0,0.0,0.0,0.0,3.9724,0.0,0.0,4.2207,4.3199,4.3898,4.4536,4.5209,4.5882,4.6181,4.5837,4.6097,4.6561,4.7249,4.7309,4.7713,4.8723,4.8798,4.8947,4.9277,4.9292,4.9441,4.9748,5.0077,5.0406,5.0759,5.1379,5.1872,5.2202,5.2531,5.2884,5.3198,5.3335,5.3398,5.3423,5.3832,5.4086,5.4228,5.4449,5.49,5.5265,5.3936,5.3406,5.3499,5.4417,5.4752,5.4897,5.5756,5.5804,5.5571,5.601,5.5895,5.5615,5.5615,5.5877,5.6206,5.6206,5.6495,5.6799,5.6799,5.6799,5.6799,5.6799,5.6799,5.6799,5.6799,5.6799,5.6799,5.6799,5.6799,5.6799,5.6799,5.6799,5.6562,5.58,5.5699,5.5734,5.5839,5.5857,5.5961,5.6218,5.6252,5.632,5.6522,5.6606,5.6615,5.6555,5.6266,5.6104,5.6104,5.6705,5.6702,5.5976,5.6281,5.6428,5.634,5.6051,5.6221,5.6806,5.6479,5.5518,0.0,0.0,0.0,0.0,0.0,0.0,0.0,3.9236,3.9948,4.0487,4.0696,4.1145,4.2346,4.3125,4.3823,4.4566,4.514,4.5738,4.639,4.6614,4.6689,4.6689,4.7174,4.7713,4.8259,4.8423,4.8768,4.9426,4.9471,4.9591,4.9845,4.986,5.0137,5.0772,5.131,5.1858,5.2381,5.2944,5.3273,5.3393,5.3393,5.3492,5.3661,5.3886,5.4023,5.4105,5.4769,5.5193,5.5411,5.5596,5.6115,5.6807,5.6967,5.7055,5.7111,5.7594,5.7753,5.7878,5.8747,5.8643,5.8278,5.8995,5.8812,5.834,5.834,5.834,5.834,5.834,5.834,5.834,5.834,5.834,5.834,5.834,5.834,5.834,5.834,5.834,5.834,5.834,5.8358,5.8412,5.8412,5.8448,5.794,5.6359,5.6275,5.6448,5.6624,5.6813,5.7054,5.7346,5.7363,5.7397,5.7461,5.7185,5.7272,5.7882,5.7787,5.7761,5.788,5.8527,5.8613,5.8075,5.8599,5.894,5.9032,5.894,5.9191,5.9761,5.9761,5.8122,3.6373,3.7175,3.8037,3.8056,3.9112,4.0148,0.0,0.0,4.1209,4.1268,4.1747,4.2391,4.307,4.3743,4.4611,4.5867,4.6136,4.642,4.71,4.7698,4.8094,4.8094,4.8154,4.8229,4.8304,4.8843,4.9456,5.0054,5.0114,5.0622,5.1813,5.1872,5.2172,5.2854,5.2944,5.3019,5.3094,5.3169,5.3488,5.4102,5.4102,5.451,5.533,5.5355,5.5519,5.58,5.6939,5.8025,5.9031,5.9053,5.9119,5.9295,6.0135,6.0451,6.0302,5.9102,5.8646,5.8784,5.9643,5.9897,5.9848,5.9941,5.9928,5.9844,5.9844,5.9844,5.9844,5.9844,5.9844,5.9844,5.9844,5.9844,5.9844,5.9844,5.9844,5.9844,5.9844,5.9844,5.9844,5.9844,6.0045,6.0209,6.0209,6.0359,5.9831,5.7954,5.8367,5.8919,5.892,5.9697,6.0323,6.0469,6.0487,6.0319,5.9857,5.8564,5.8052,5.8724,5.8103,5.797,5.857,5.9177,5.9468,5.9402,5.9468,5.973,6.0213,5.973,5.9768,6.0316,6.0316,6.0091,3.8102,3.8843,3.9483,3.9483,4.023,4.1089,4.1463,4.1777,4.2182,4.2925,4.3299,4.3823,4.4865,4.5269,4.5777,0.0,4.7219,4.7563,4.7833,4.8468,4.8873,4.8873,4.9194,4.9396,4.9396,4.9673,5.0084,5.0727,5.1131,5.1594,5.2172,5.2561,5.2914,5.3198,5.3563,5.3773,5.3773,5.4162,5.4491,5.4775,5.4925,5.5225,5.5606,5.5929,5.6512,5.7298,5.7808,5.8644,5.9603,5.9603,5.993,6.0445,6.0841,6.1333,6.1746,6.1109,6.0911,6.095,6.13,6.1163,6.0808,6.0808,6.0486,6.0097,6.0097,6.0097,6.0097,6.0097,6.0097,6.0097,6.0097,6.0097,6.0097,6.0097,6.0097,6.0097,6.0097,6.0097,6.0135,6.0248,6.0393,6.0539,6.0651,6.0744,6.0522,5.9709,5.9916,6.0195,6.0287,6.0669,6.0966,6.1164,6.1164,6.1079,6.0875,6.0616,6.0748,6.1417,6.1506,6.1663,6.1938,6.258,6.2732,6.2341,6.2719,6.3029,6.3251,6.3029,6.3029,6.3251,6.3251,6.3251,3.9515,4.0172,4.0711,4.0909,4.1463,4.2122,4.278,4.3084,4.3454,4.4392,4.4715,4.5149,4.6121,4.645,4.6794,4.7474,4.7982,4.8364,4.8558,4.9142,4.9561,4.9561,5.0107,5.0563,5.0742,5.0757,5.0951,5.143,5.2097,5.2561,5.274,5.3204,5.3548,5.3752,5.4221,5.4476,5.4476,5.4955,5.5194,5.5194,5.5406,5.5556,5.5731,5.6537,5.7511,5.8592,5.8863,5.9515,6.0381,6.0381,6.0778,6.1391,6.1391,6.1793,6.24,6.24,6.24,6.24,6.24,6.2042,6.1603,6.1603,6.1214,6.0723,6.0723,6.0723,6.0723,6.0723,6.0723,6.0723,6.0723,6.0723,6.0723,6.0723,6.0723,6.0742,6.0816,6.0816,6.0873,6.1081,6.1209,6.132,6.147,6.1543,6.158,6.158,6.158,6.1513,6.1345,6.1719,6.2125,6.244,6.23,6.2178,6.2178,6.244,6.2882,6.3516,6.4022,6.4386,6.4557,6.5041,6.5068,6.4603,6.5055,6.5307,6.5307,6.5307,6.5307,6.5307,6.5307,6.5307,4.0367,4.0846,4.1523,4.2186,4.284,4.3494,4.4087,4.4751,4.5214,4.5259,4.5798,4.6256,4.6285,4.6824,4.7489,4.8147,4.8304,4.8528,4.9172,4.9793,5.0166,5.0166,5.0772,5.1415,0.0,5.2142,5.2157,5.2172,5.2794,5.3443,5.4117,5.4162,5.4476,5.5104,5.5149,5.5164,5.5164,5.5179,5.5194,5.5194,5.5219,5.5481,5.6053,5.7488,5.866,5.9603,6.0508,6.1452,6.2322,6.2322,6.2322,6.2361,6.2361,6.2361,6.24,6.24,6.24,6.24,6.24,6.24,6.2383,6.2383,6.235,6.2333,6.2333,6.2333,6.2333,6.2333,6.2333,6.2333,6.2333,6.2333,6.2333,6.2333,6.2333,6.2372,6.2584,6.2622,6.268,6.2893,6.3083,6.3232,6.3232,6.3383,6.3531,6.3531,6.3531,6.3181,6.2276,6.3536,6.4734,6.5408,6.4826,6.4396,6.4396,6.3783,6.3624,6.4226,6.4283,6.4585,6.5249,6.5288,6.5288,6.5262,6.5288,6.5307,6.5307,6.5307,6.5307,6.5307,6.5307,6.5307,4.1493,4.2177,4.2816,4.3494,4.4152,4.4825,4.5478,4.5792,4.6076,4.6546,4.6815,4.7115,4.7549,4.7803,4.8177,4.8843,4.9299,4.9635,4.986,5.0443,5.1026,5.146,5.1738,0.0,0.0,0.0,0.0,5.2839,5.3473,5.3967,5.4206,5.4625,5.497,5.5179,5.5194,5.5194,5.5194,5.5194,5.5295,5.5481,5.6466,5.7449,5.84,5.8892,5.9647,6.0551,6.0861,6.1534,6.24,6.24,6.24,6.24,6.24,6.24,6.24,6.24,6.24,6.24,6.24,6.24,6.24,6.24,6.24,6.24,6.24,6.24,6.24,6.24,6.24,6.24,6.24,6.24,6.242,6.2574,6.2593,6.2635,6.2866,6.2904,6.2962,6.3152,6.3246,6.334,6.347,6.3563,6.3749,6.42,6.427,6.4148,6.3816,6.4646,6.535,6.5591,6.5391,6.5231,6.5231,6.5453,6.5672,6.5877,6.6298,6.6655,6.688,6.688,6.688,6.688,6.688,6.688,6.688,6.688,6.688,6.688,6.688,6.688,4.2496,4.3359,4.4177,4.485,4.5328,4.5843,4.6495,4.6659,4.6779,4.7219,4.7309,4.7504,4.8184,4.8304,4.8581,4.9464,4.9949,5.027,5.0533,5.1131,5.1723,5.2157,5.2411,5.2815,0.0,0.0,0.0,5.3518,5.4177,5.4566,5.4566,5.497,5.5194,5.5194,5.5194,5.5194,5.5194,5.5295,5.5641,5.6262,5.7645,5.8725,5.9477,5.9892,6.0424,6.1007,6.1354,6.1834,6.24,6.24,6.24,6.24,6.24,6.24,6.24,6.24,6.24,6.24,6.24,6.24,6.24,6.24,6.24,6.24,6.24,6.24,6.24,6.24,6.24,6.2437,6.2496,6.2515,6.2574,6.2751,6.2806,6.2866,6.3057,6.3114,6.317,6.3358,6.3602,6.3822,6.3931,6.4164,6.4463,6.4888,6.5171,6.5353,6.5353,6.5721,6.6079,6.6307,6.6356,6.6356,6.6356,6.6776,6.7061,6.7061,6.746,6.77,6.77,6.77,6.77,6.77,6.77,6.77,6.77,6.77,6.77,6.77,6.77,6.77,4.3444,4.4371,4.5514,4.6181,4.6345,4.651,4.716,4.7309,4.7309,4.7309,4.7309,4.7504,0.0,0.0,4.876,5.0009,5.0226,5.0503,5.1161,5.1813,5.2232,0.0,0.0,0.0,0.0,0.0,0.0,5.4266,0.0,5.5194,5.5194,5.5194,5.5194,5.5194,5.5194,5.5244,5.528,5.5616,5.6393,5.7582,5.8754,5.9312,5.9401,6.0551,6.1069,6.1127,6.201,6.24,6.24,6.24,6.24,6.24,6.24,6.24,6.24,6.24,6.24,6.24,6.24,6.24,6.24,6.24,6.24,6.24,6.24,6.24,6.24,6.24,6.2437,6.2476,6.2671,6.271,6.2768,6.2981,6.3019,6.3076,6.3265,6.3319,6.3358,6.3546,6.4147,6.4601,6.4601,6.5171,6.5605,6.5637,6.625,6.6692,6.6692,6.6721,6.6985,6.7628,6.77,6.77,6.77,6.77,6.77,6.77,6.77,6.77,6.77,6.77,6.77,6.77,6.77,6.77,6.77,6.77,6.77,6.77,6.77,6.77,4.5134,4.5777,4.6196,4.6869,4.7055,4.71,4.7264,4.7309,4.7309,4.7309,4.7309,4.7504,4.8184,4.8708,0.0,5.0084,5.0622,0.0,5.1858,5.2097,0.0,5.3578,0.0,5.4206,5.488,5.494,0.0,0.0,5.5089,5.5194,5.5194,5.5194,5.5194,5.5194,5.5194,5.5611,5.6541,5.7699,5.8783,5.9784,6.0284,6.0907,6.1578,6.1894,6.203,6.2067,6.2302,6.24,6.24,6.24,6.24,6.24,6.24,6.24,6.24,6.24,6.24,6.24,6.24,6.24,6.24,6.24,6.24,6.24,6.24,6.24,6.242,6.2574,6.2632,6.2671,6.2866,6.2923,6.2981,6.317,6.3208,6.3283,6.3489,6.3526,6.3544,6.36,6.4147,6.4601,6.4601,6.5171,6.5781,6.6344,6.6571,6.6692,6.6692,6.7132,6.752,6.7687,6.77,6.77,6.77,6.77,6.77,6.77,6.77,6.77,6.77,6.77,6.77,6.77,6.77,6.77,6.77,6.77,6.77,6.77,6.77,6.77,4.5912,4.651,4.6824,4.7219,4.7309,4.7309,4.7309,4.7309,4.7309,4.7309,4.7309,4.7504,4.8184,4.8843,4.9501,0.0,0.0,0.0,5.2112,5.2441,5.3025,0.0,5.4461,0.0,5.5149,5.5194,5.5194,0.0,5.5194,5.5194,5.5194,5.5194,5.5194,5.5194,5.571,5.6614,5.7946,5.9208,6.0156,6.0787,6.1354,6.189,6.24,6.24,6.24,6.24,0.0,6.24,6.24,6.24,6.24,6.24,6.24,6.24,6.24,6.24,6.24,6.24,6.24,6.24,6.24,6.24,6.24,6.24,6.24,6.2476,6.2554,6.2671,6.2751,6.2866,6.3076,6.3133,6.3189,6.3377,6.3433,6.347,6.3581,6.36,6.3767,6.4358,6.504,6.5627,6.5909,6.6262,6.6656,6.7089,6.7132,6.7132,6.7132,6.746,6.77,6.77,6.77,6.77,6.77,6.77,6.77,6.77,6.77,6.77,6.77,6.77,6.77,6.77,6.77,6.77,6.77,6.77,6.77,6.77,6.77,6.77,4.6241,4.6854,4.7309,4.7309,4.7309,4.7309,4.7309,4.7309,4.7309,4.7309,4.7309,4.7474,4.8057,4.8783,4.9471,4.9994,0.0,5.1483,5.2232,5.2815,5.3498,5.4251,5.485,5.5194,5.5194,5.5194,5.5194,5.5194,5.5194,5.5194,5.5194,5.533,5.5466,5.5626,5.6839,5.8085,5.9379,6.0353,6.097,6.1189,6.201,6.24,6.24,6.24,6.24,6.24,0.0,0.0,6.24,6.24,6.24,6.24,6.24,6.24,6.24,6.24,6.24,6.24,6.24,6.24,6.24,6.24,6.24,6.24,6.242,6.2574,6.271,6.2768,6.2904,6.3095,6.3283,6.334,6.3377,6.3563,6.36,6.3619,6.3712,6.3786,6.42,6.5382,6.6204,6.6885,6.746,6.7647,6.77,6.77,6.77,6.77,6.77,6.77,6.77,6.77,6.77,6.77,6.77,6.77,6.77,6.77,6.77,6.77,6.77,6.77,6.77,6.77,6.77,6.77,6.77,6.77,6.77,6.77,6.77,6.77,4.6929,4.7219,4.7309,4.7309,4.7309,4.7309,4.7309,4.7309,4.7309,4.7309,4.7309,4.7339,4.7459,4.8483,4.9322,4.9441,5.0436,5.1633,5.2854,5.3139,5.3662,0.0,5.5119,5.5194,5.5194,5.5194,0.0,0.0,0.0,5.5194,5.5194,5.5943,5.6815,5.7815,5.9242,6.0102,6.0353,6.1517,6.211,6.2167,6.2322,6.24,6.24,6.24,6.24,6.24,0.0,0.0,6.24,6.24,6.24,6.24,6.24,6.24,6.24,6.24,6.24,6.24,6.24,6.24,6.24,6.24,6.24,6.242,6.2593,6.2671,6.2768,6.3095,6.3208,6.3283,6.3489,6.3563,6.3563,6.36,6.36,6.3749,6.4323,6.4855,6.5317,6.5542,6.6204,6.674,6.6856,6.7332,6.77,6.77,6.77,6.77,6.77,6.77,6.77,6.77,6.77,6.77,6.77,6.77,6.77,6.77,6.77,6.77,6.77,6.77,6.77,6.77,6.77,6.77,6.77,6.77,6.77,6.77,6.77,6.77,4.713,4.7309,4.7309,4.7309,4.7309,4.7309,4.7309,4.7309,4.7309,4.7309,4.7309,4.7309,4.7309,4.8409,4.9292,4.9292,5.0361,5.1678,5.3019,5.3198,5.3707,5.5029,5.5194,5.5194,5.5194,5.5651,0.0,0.0,0.0,5.6647,5.6158,5.7158,5.8314,5.9506,6.023,6.0912,6.1537,6.211,6.24,6.24,6.24,6.24,6.24,6.24,6.24,6.24,6.24,0.0,6.24,6.24,6.24,6.24,6.24,6.24,6.24,6.24,6.24,6.24,6.24,6.2476,6.2554,6.2554,6.2554,6.2574,6.2671,6.2845,6.3038,6.3244,6.3394,6.3489,6.3564,6.36,6.3693,6.4039,6.4393,6.4737,6.5056,6.5655,6.6174,6.6174,6.6751,6.722,6.722,6.7492,6.77,6.77,6.77,6.77,6.77,6.77,6.77,6.77,6.77,6.77,6.77,6.77,6.77,6.77,6.77,6.77,6.77,6.77,6.77,6.77,6.77,6.77,6.77,6.77,6.77,6.77,6.77,6.77,4.713,4.7309,4.7309,4.7309,4.7309,4.7309,4.7309,4.7309,4.7309,4.7309,4.7309,4.7309,4.7309,4.8409,4.9292,4.9292,5.0481,5.1843,5.3034,5.3333,5.3847,5.5044,5.5194,0.0,5.5491,5.6232,0.0,0.0,0.0,0.0,5.7722,5.8639,5.9697,6.0854,6.0953,6.1439,6.2381,6.24,6.24,6.24,6.24,6.24,6.24,6.24,6.24,6.24,6.24,0.0,0.0,6.24,6.24,6.24,6.24,6.24,6.24,6.24,6.24,6.24,6.24,6.2535,6.269,6.269,6.2729,6.2768,6.2825,6.3055,6.3319,6.334,6.3489,6.3638,6.3785,6.3804,6.3985,6.4652,6.5352,6.5846,6.5846,6.6404,6.6914,6.6914,6.7332,6.77,6.77,6.77,6.77,6.77,6.77,6.77,6.77,6.77,6.77,6.77,6.77,6.77,6.77,6.77,6.77,6.77,6.77,6.77,6.77,6.77,6.77,6.77,6.77,6.77,6.77,6.77,6.77,6.77,6.77,6.77,4.713,4.7309,4.7309,4.7309,4.7309,4.7309,4.7309,4.7309,4.7309,4.7309,4.7309,4.7309,4.7309,4.8409,4.9292,4.9292,5.087,5.2351,5.3109,5.3713,5.4386,5.5104,0.0,0.0,5.6387,5.6767,0.0,0.0,0.0,0.0,5.9919,6.0251,6.0874,6.184,6.211,6.2302,6.24,6.24,6.24,6.24,6.24,6.24,6.24,6.24,6.24,6.24,0.0,0.0,0.0,6.24,6.24,6.24,6.24,6.24,6.24,6.24,6.24,6.24,6.24,6.2535,6.269,6.269,6.2808,6.3019,6.3189,6.3265,6.334,6.3526,6.36,6.373,6.4341,6.4497,6.4669,6.535,6.6082,6.6604,6.6604,6.7132,6.7601,6.7601,6.766,6.77,6.77,6.77,6.77,6.77,6.77,6.77,6.77,6.77,6.77,6.77,6.77,6.77,6.77,6.77,6.77,6.77,6.77,6.77,6.77,6.77,6.77,6.77,6.77,6.77,6.77,6.77,6.77,6.77,6.77,6.77,4.713,4.7309,4.7309,4.7309,4.7309,4.7309,4.7309,4.7309,4.7309,4.7309,4.7309,4.7309,4.7309,4.8409,4.9292,4.9292,5.0586,5.1977,5.3064,5.3414,5.3982,5.5059,5.5194,0.0,0.0,0.0,0.0,0.0,0.0,0.0,6.1521,6.1619,6.1837,6.2246,6.2341,6.24,6.24,6.24,6.24,6.24,6.24,6.24,6.24,6.24,6.24,6.24,0.0,0.0,0.0,6.24,6.24,6.24,6.24,6.24,6.24,6.24,6.24,6.2437,6.2535,6.2712,6.2904,6.3019,6.3189,6.3341,6.3302,6.3377,6.3582,6.4057,6.42,6.4358,6.5022,6.5529,6.5927,6.6189,6.6794,6.729,6.729,6.7501,6.77,6.77,6.77,6.77,6.77,6.77,6.77,6.77,6.77,6.77,6.77,6.77,6.77,6.77,6.77,6.77,6.77,6.77,6.77,6.77,6.77,6.77,6.77,6.77,6.77,6.77,6.77,6.77,6.77,6.77,6.77,6.77,6.77,6.77,4.6764,4.6988,4.7055,4.7249,4.7309,4.7309,4.7309,4.7309,4.7309,4.7309,4.7309,4.7309,4.7309,4.8222,4.9067,4.9284,5.0361,5.1678,5.3019,5.3378,5.3907,5.5059,0.0,5.5769,0.0,0.0,0.0,0.0,0.0,0.0,0.0,6.24,6.24,6.24,6.24,6.24,6.24,6.24,6.24,6.24,6.24,6.24,6.24,6.24,6.24,6.24,0.0,0.0,0.0,6.24,6.24,6.24,6.24,6.24,6.24,6.24,6.2437,6.2515,6.2652,6.2866,6.3114,6.3246,6.3582,6.3877,6.3731,6.3786,6.4039,6.4703,6.5039,6.5319,6.5815,6.6464,6.7004,6.7004,6.7364,6.77,6.77,6.77,6.77,6.77,6.77,6.77,6.77,6.77,6.77,6.77,6.77,6.77,6.77,6.77,6.77,6.77,6.77,6.77,6.77,6.77,6.77,6.77,6.77,6.77,6.77,6.77,6.77,6.77,6.77,6.77,6.77,6.77,6.77,6.77,6.77,6.77,4.5956,4.6315,4.6465,4.7123,4.7309,4.7309,4.7309,4.7309,4.7309,4.7309,4.7309,4.7309,4.7309,4.7848,4.8528,4.9187,5.0361,5.1678,5.3019,5.3773,5.4446,0.0,0.0,5.6051,5.8184,0.0,0.0,0.0,0.0,0.0,0.0,6.24,6.24,6.24,6.24,6.24,6.24,6.24,6.24,6.24,6.24,6.24,6.24,6.24,6.24,0.0,0.0,0.0,0.0,6.24,6.24,6.24,6.24,6.24,6.24,6.24,6.2535,6.269,6.269,6.296,6.3301,6.3301,6.3877,6.4601,6.4583,6.4583,6.4737,6.5399,6.6128,6.6677,6.6677,6.7192,6.7687,6.7687,6.77,6.77,6.77,6.77,6.77,6.77,6.77,6.77,6.77,6.77,6.77,6.77,6.77,6.77,6.77,6.77,6.77,6.77,6.77,6.77,6.77,6.77,6.77,6.77,6.77,6.77,6.77,6.77,6.77,6.77,6.77,6.77,6.77,6.77,6.77,6.77,6.77,6.77,4.5379,4.5618,4.5678,4.5888,4.5933,4.5933,4.5933,4.6292,4.6614,4.6614,4.6995,4.7309,4.7309,4.7848,4.8528,4.9187,4.9987,5.1146,5.2959,5.353,0.0,5.6225,5.79,5.9153,0.0,0.0,0.0,0.0,0.0,0.0,0.0,6.24,6.24,6.24,6.24,6.24,6.24,6.24,6.24,6.24,6.24,6.24,6.24,6.24,0.0,0.0,0.0,0.0,0.0,6.24,6.24,6.24,6.24,6.24,6.2437,6.2537,6.2652,6.2729,6.3,6.3493,6.4004,6.4147,6.4686,6.5382,6.588,6.5689,6.5431,6.6143,6.6852,6.7392,6.7392,6.7547,6.77,6.77,6.77,6.77,6.77,6.77,6.77,6.77,6.77,6.77,6.77,6.77,6.77,6.77,6.77,6.77,6.77,6.77,6.77,6.77,6.77,6.77,6.77,6.77,6.77,6.77,6.77,6.77,6.77,6.77,6.77,6.77,6.77,6.77,6.77,6.7776,6.7881,6.7972,6.7972,6.7972,4.4676,4.493,4.499,4.5229,4.5289,4.5289,4.5289,4.5807,4.63,4.63,4.6824,4.7309,4.7309,4.7638,4.8244,4.9142,4.9613,5.0646,5.2899,0.0,0.0,5.686,0.0,0.0,0.0,0.0,0.0,0.0,0.0,0.0,0.0,6.24,6.24,6.24,6.24,6.24,6.24,6.24,6.24,6.24,6.24,6.24,6.24,6.24,0.0,0.0,0.0,0.0,0.0,6.24,6.24,6.24,6.24,6.2457,6.2535,6.2652,6.2806,6.3,6.3493,6.4004,6.448,6.4855,6.5465,6.6158,6.6852,6.6747,6.649,6.6957,6.7378,6.77,6.77,6.77,6.77,6.77,6.77,6.77,6.77,6.77,6.77,6.77,6.77,6.77,6.77,6.77,6.77,6.77,6.77,6.77,6.77,6.77,6.77,6.77,6.77,6.77,6.77,6.77,6.77,6.77,6.77,6.77,6.77,6.77,6.7727,6.7781,6.7781,6.7807,6.7842,6.7933,6.8024,6.8101,6.8101,6.8101,0.0,4.4192,4.4371,4.5005,4.5155,4.5155,4.5155,4.5702,0.0,4.6226,4.6794,4.7309,4.7309,4.7339,4.7788,4.9082,4.9366,0.0,0.0,5.3628,0.0,0.0,5.9478,0.0,0.0,0.0,0.0,0.0,0.0,0.0,0.0,6.24,6.24,6.24,6.24,6.24,6.24,6.24,6.24,6.24,6.24,6.24,6.24,6.24,0.0,0.0,0.0,0.0,0.0,6.24,6.24,6.24,6.2437,6.2535,6.271,6.2729,6.3,6.3471,6.4094,6.4497,6.4856,6.5527,6.6219,6.6885,6.7501,6.77,6.77,6.77,6.77,6.77,6.77,6.77,6.77,6.77,6.77,6.77,6.77,6.77,6.77,6.77,6.77,6.77,6.77,6.77,6.77,6.77,6.77,6.77,6.77,6.77,6.77,6.77,6.77,6.77,6.7714,6.7714,6.77,6.7714,6.7714,6.7727,6.7727,6.7727,6.7794,6.7907,6.7907,6.7985,6.8114,6.8114,6.8127,6.8127,6.8127,6.8127,4.2631,0.0,4.3579,4.3728,4.3773,4.3773,0.0,4.4706,4.5544,4.5544,4.6486,4.7309,4.7309,4.7713,4.8349,4.9179,5.013,5.1334,5.2974,0.0,0.0,5.9957,0.0,0.0,0.0,0.0,0.0,0.0,0.0,0.0,0.0,6.24,6.24,6.24,6.24,6.24,6.24,6.24,6.24,6.24,6.24,6.24,6.24,6.24,0.0,0.0,0.0,0.0,6.24,6.24,6.24,6.2437,6.2574,6.2652,6.2729,6.3055,6.3548,6.4112,6.4428,6.5271,6.6313,6.7,6.7332,6.7488,6.766,6.77,6.77,6.77,6.77,6.77,6.77,6.77,6.77,6.77,6.77,6.77,6.77,6.77,6.77,6.77,6.77,6.77,6.77,6.77,6.77,6.77,6.77,6.77,6.77,6.77,6.77,6.77,6.77,6.7741,6.7828,6.7767,6.7741,6.786,6.7842,6.7894,6.7998,6.8011,6.8024,6.805,6.805,6.8114,6.8259,6.8259,6.8309,6.8408,6.8408,6.8408,4.2216,4.2836,4.329,4.329,4.329,4.329,4.329,4.4326,4.5289,4.5289,4.6367,4.7309,4.7309,4.7848,4.8528,4.9187,5.0842,0.0,0.0,0.0,5.9141,6.007,0.0,0.0,0.0,0.0,0.0,0.0,0.0,0.0,0.0,6.24,6.24,6.24,6.24,6.24,6.24,6.24,6.24,6.24,6.24,6.24,6.24,6.24,0.0,0.0,0.0,0.0,6.2417,6.2515,6.2535,6.2574,6.2751,6.2885,6.2998,6.3225,6.3787,6.4497,6.4905,6.5971,6.722,6.7574,6.77,6.77,6.77,6.77,6.77,6.77,6.77,6.77,6.77,6.77,6.77,6.77,6.77,6.77,6.77,6.77,6.77,6.77,6.77,6.77,6.77,6.77,6.77,6.77,6.77,6.77,6.77,6.77,6.7727,6.7794,6.7776,6.786,6.7985,6.792,6.7907,6.7985,6.7998,6.8024,6.8101,6.8101,6.8127,6.8177,6.824,6.8321,6.8383,6.8383,6.842,6.8493,6.8493,6.8493,4.2096,4.2761,4.329,4.329,4.329,4.3319,4.3444,4.4401,4.5334,4.5424,4.6441,4.7309,4.7309,4.7923,4.8648,0.0,0.0,0.0,5.6698,5.822,5.923,5.9642,0.0,0.0,0.0,0.0,0.0,0.0,0.0,0.0,0.0,6.24,6.24,6.24,6.24,6.24,6.24,6.24,6.24,6.24,6.24,6.24,6.24,6.24,6.24,0.0,0.0,0.0,6.2476,6.2632,6.2729,6.2768,6.2962,6.3152,6.3319,6.3453,6.404,6.4855,6.5655,6.67,6.77,6.77,6.77,6.77,6.77,6.77,6.77,6.77,6.77,6.77,6.77,6.77,6.77,6.77,6.77,6.77,6.77,6.77,6.77,6.77,6.77,6.77,6.77,6.77,6.7714,6.7727,6.7727,6.7741,6.7767,6.7767,6.7789,6.792,6.792,6.7985,6.8114,6.8127,6.8139,6.8165,6.8139,6.8139,6.8165,6.8165,6.8203,6.8321,6.8432,6.8493,6.8493,6.8493,6.8493,6.8493,6.8493,6.8493,4.1523,4.2417,4.329,4.329,4.329,4.3439,4.4012,4.4751,4.5454,4.6031,4.6749,4.7309,4.7309,4.8319,4.9172,0.0,0.0,5.5913,0.0,0.0,0.0,0.0,0.0,0.0,0.0,0.0,0.0,0.0,0.0,0.0,0.0,0.0,6.24,6.24,6.24,6.24,6.24,6.24,6.24,6.24,6.24,6.24,6.24,6.24,6.24,0.0,0.0,6.2496,6.2652,6.269,6.2806,6.2981,6.317,6.3265,6.3396,6.4129,6.4838,6.5639,6.6939,6.7515,6.77,6.77,6.77,6.77,6.77,6.77,6.77,6.77,6.77,6.77,6.77,6.77,6.77,6.77,6.77,6.77,6.77,6.77,6.77,6.77,6.77,6.77,6.77,6.77,6.7741,6.7842,6.7868,6.7907,6.8024,6.8037,6.805,6.8075,6.8075,6.8127,6.8259,6.8271,6.8321,6.8432,6.8334,6.8321,6.8432,6.8432,6.8445,6.8469,6.8481,6.8493,6.8493,6.8493,6.8493,6.8493,6.8493,6.8493,4.1403,4.2342,4.329,4.329,4.329,4.3489,4.4147,4.4825,4.5484,4.6166,4.6824,4.7414,4.7773,4.8722,5.0348,5.3125,0.0,5.7625,0.0,0.0,0.0,0.0,0.0,0.0,0.0,0.0,0.0,0.0,0.0,0.0,0.0,0.0,6.24,6.24,6.24,6.24,6.24,6.24,6.24,6.24,6.24,6.24,6.24,6.24,6.24,6.24,0.0,6.2498,6.271,6.2825,6.2981,6.3189,6.3377,6.3694,6.4147,6.5304,6.5927,6.6344,6.7346,6.77,6.77,6.77,6.77,6.77,6.77,6.77,6.77,6.77,6.77,6.77,6.77,6.77,6.77,6.77,6.77,6.77,6.77,6.77,6.7727,6.7776,6.782,6.7815,6.7894,6.7907,6.7933,6.7998,6.8011,6.8037,6.8101,6.8101,6.8127,6.8208,6.8221,6.8271,6.8396,6.8396,6.8432,6.8512,6.8432,6.8432,6.8512,6.8493,6.8493,6.8493,6.8493,6.8493,6.8493,6.8493,6.8493,6.8493,6.8493,6.8493,4.1403,4.2342,4.3334,4.3484,4.3529,4.3713,4.4371,4.505,4.5723,4.639,4.707,4.7683,4.8214,4.9259,0.0,5.6333,5.7728,0.0,0.0,0.0,0.0,0.0,0.0,0.0,0.0,0.0,0.0,0.0,0.0,0.0,0.0,0.0,6.24,6.24,6.24,6.24,6.24,6.24,6.24,6.24,6.24,6.24,6.24,6.24,6.24,6.24,6.2457,6.2576,6.2787,6.2981,6.3189,6.3396,6.3712,6.4358,6.5222,6.6298,6.6812,6.7018,6.7533,6.77,6.77,6.77,6.77,6.77,6.77,6.77,6.77,6.77,6.77,6.77,6.77,6.77,6.77,6.77,6.7727,6.7754,6.7754,6.7781,6.7815,6.792,6.7946,6.7985,6.8088,6.8101,6.8114,6.8139,6.8139,6.8152,6.819,6.819,6.8228,6.8334,6.8346,6.8383,6.8481,6.8493,6.8493,6.8493,6.8493,6.8493,6.8493,6.8493,6.8493,6.8493,6.8493,6.8493,6.8493,6.8493,6.8493,6.8493,6.8493,6.8535,4.1403,4.2342,4.3439,4.4072,4.4222,4.4386,4.508,4.5753,4.642,4.71,4.7758,4.8244,4.8304,5.0027,5.2638,5.6246,5.759,0.0,0.0,0.0,0.0,0.0,0.0,0.0,0.0,0.0,0.0,0.0,0.0,0.0,0.0,0.0,0.0,6.24,6.24,6.24,6.24,6.24,6.24,6.24,6.24,6.24,6.24,6.24,6.24,6.24,6.2593,6.2789,6.3,6.3206,6.3396,6.3638,6.4288,6.5369,6.6556,6.6663,6.7089,6.7628,6.7687,6.77,6.77,6.77,6.77,6.77,6.77,6.77,6.77,6.77,6.77,6.77,6.77,6.77,6.77,6.77,6.7807,6.7881,6.7881,6.7985,6.8075,6.8088,6.8088,6.8088,6.8101,6.8101,6.8139,6.8271,6.8284,6.8334,6.8445,6.8469,6.8469,6.8481,6.85,6.8481,6.8493,6.8493,6.8493,6.8493,6.8493,6.8493,6.8493,6.8493,6.8493,6.8493,6.8493,6.8493,6.8493,6.8493,6.8493,6.8493,6.8493,6.87,4.1403,4.2342,4.3454,4.4132,4.4616,4.511,4.5762,4.6121,4.6614,4.7698,4.8117,4.8603,4.9547,0.0,5.4787,5.6729,5.8782,0.0,0.0,0.0,0.0,0.0,0.0,0.0,0.0,0.0,0.0,0.0,0.0,0.0,0.0,0.0,0.0,6.24,6.24,6.24,6.24,6.24,6.24,6.24,6.24,6.24,6.24,6.24,6.24,6.24,6.2613,6.2808,6.3019,6.3208,6.3675,6.4323,6.5467,6.6222,6.6736,6.716,6.7474,6.77,6.77,6.77,6.77,6.77,6.77,6.77,6.77,6.77,6.77,6.77,6.77,6.77,6.77,6.77,6.7727,6.7789,6.7855,6.792,6.8011,6.8063,6.8127,6.8221,6.8234,6.8259,6.8315,6.8358,6.8371,6.8408,6.842,6.8432,6.8481,6.8493,6.8493,6.8493,6.8493,6.8493,6.8493,6.8493,6.8493,6.8493,6.8493,6.8493,6.8493,6.8493,6.8493,6.8493,6.8493,6.8493,6.8493,6.874,6.887,6.8881,6.9142,6.9325,4.1403,4.2342,4.3499,4.4386,4.496,4.5529,4.6405,4.6779,4.7189,4.8102,4.8611,4.9471,5.1329,0.0,0.0,0.0,0.0,0.0,0.0,0.0,0.0,0.0,0.0,0.0,0.0,0.0,0.0,0.0,0.0,0.0,0.0,0.0,0.0,0.0,6.24,6.24,6.24,6.24,6.24,6.24,6.24,6.24,6.24,6.24,6.242,6.2515,6.271,6.2904,6.3133,6.3547,6.4323,6.5369,6.6313,6.6827,6.7075,6.7533,6.77,6.77,6.77,6.77,6.77,6.77,6.77,6.77,6.77,6.77,6.77,6.77,6.7727,6.7767,6.7767,6.7767,6.7794,6.7868,6.7959,6.8037,6.8139,6.819,6.8253,6.8346,6.8358,6.8383,6.8481,6.8493,6.8493,6.8493,6.8493,6.8493,6.8493,6.8493,6.8493,6.8493,6.8493,6.8493,6.8493,6.8493,6.8493,6.8493,6.8493,6.8493,6.8493,6.8493,6.8493,6.8493,6.8613,6.8688,6.8688,6.9098,6.9284,6.9294,6.9567,6.9768,4.1403,4.2322,4.3638,4.4975,4.5289,4.5663,4.701,4.7818,4.8319,4.8319,4.9344,5.1001,5.3544,5.4782,0.0,0.0,0.0,0.0,0.0,0.0,0.0,0.0,0.0,0.0,0.0,0.0,0.0,0.0,0.0,0.0,0.0,0.0,0.0,0.0,6.24,6.24,6.24,6.24,6.24,6.24,6.24,6.24,6.24,6.24,6.2498,6.271,6.2923,6.3114,6.3377,6.4253,6.545,6.6692,6.6707,6.7117,6.77,6.77,6.77,6.77,6.77,6.77,6.77,6.77,6.77,6.77,6.77,6.77,6.77,6.77,6.7807,6.7894,6.7894,6.7894,6.7894,6.7894,6.812,6.8296,6.8296,6.8396,6.8493,6.8493,6.8493,6.8493,6.8493,6.8493,6.8493,6.8493,6.8493,6.8493,6.8493,6.8493,6.8493,6.8493,6.8493,6.8493,6.8493,6.8493,6.8493,6.8493,6.8493,6.8493,6.8493,6.8493,6.8524,6.8524,6.8897,6.912,6.9101,6.9498,6.9702,6.9702,6.9711,6.9923,4.1403,4.2671,4.4207,4.508,4.5663,4.6345,4.7698,4.8147,4.8735,5.0312,5.1292,5.2359,5.3913,5.595,0.0,0.0,0.0,0.0,0.0,0.0,0.0,0.0,0.0,0.0,0.0,0.0,0.0,0.0,0.0,0.0,0.0,0.0,0.0,0.0,6.24,6.24,6.24,6.24,6.24,6.24,6.2554,6.2535,6.24,6.2554,6.2652,6.2729,6.3057,6.3511,6.4112,6.5497,6.6313,6.6754,6.722,6.7515,6.77,6.77,6.77,6.77,6.77,6.77,6.77,6.77,6.77,6.77,6.77,6.77,6.7727,6.7802,6.7868,6.792,6.8011,6.8101,6.8183,6.8183,6.8246,6.8321,6.842,6.8469,6.8493,6.8493,6.8493,6.8493,6.8493,6.8493,6.8493,6.8493,6.8493,6.8493,6.8493,6.8493,6.8493,6.8493,6.8493,6.8493,6.8493,6.8493,6.8493,6.8493,6.8763,6.8797,6.8506,6.8763,6.8919,6.8919,6.9315,6.9518,6.9518,6.9923,7.0116,7.0135,7.04,7.0619,4.1718,4.3015,4.4446,4.5125,4.5813,4.6719,4.8334,4.8865,4.9711,5.2067,5.258,5.3174,5.5014,5.6915,0.0,0.0,0.0,0.0,0.0,0.0,0.0,0.0,0.0,0.0,0.0,0.0,0.0,0.0,0.0,0.0,0.0,0.0,0.0,0.0,6.24,6.24,6.24,6.24,6.24,6.24,6.2613,6.2632,6.2535,6.2729,6.2847,6.2979,6.3548,6.4358,6.5335,6.6298,6.6856,6.7132,6.7547,6.77,6.77,6.77,6.77,6.77,6.77,6.77,6.77,6.77,6.77,6.7714,6.7767,6.7781,6.782,6.7946,6.8011,6.8081,6.8152,6.8284,6.8358,6.8309,6.8334,6.8396,6.8481,6.8493,6.8493,6.8493,6.8493,6.8493,6.8493,6.8493,6.8493,6.8493,6.8493,6.8493,6.8493,6.8493,6.8493,6.8493,6.8493,6.856,6.8724,6.8747,6.8809,6.8964,6.9208,6.924,6.8986,6.9208,6.9335,6.9335,6.974,6.9932,6.9941,7.0345,7.0547,7.0536,7.0796,7.0898,4.2216,4.3379,4.4541,4.5155,4.5948,4.7076,4.8984,4.9944,5.1092,5.3507,0.0,5.3703,5.6514,5.7727,0.0,0.0,0.0,0.0,0.0,0.0,0.0,0.0,0.0,0.0,0.0,0.0,0.0,0.0,0.0,0.0,0.0,0.0,0.0,0.0,6.24,6.24,6.24,6.24,6.24,0.0,6.2632,6.2729,6.2729,6.2943,6.3153,6.3471,6.4393,6.5531,6.6692,6.6769,6.7146,6.77,6.77,6.77,6.77,6.77,6.77,6.77,6.77,6.77,6.77,6.77,6.77,6.7727,6.7855,6.7894,6.792,6.8075,6.8208,6.8296,6.8309,6.8408,6.8469,6.8346,6.8408,6.8493,6.8493,6.8493,6.8493,6.8493,6.8493,6.8493,6.8493,6.8493,6.8493,6.8493,6.8493,6.8493,6.8493,6.8493,6.8506,6.8535,6.8547,6.8712,6.9112,6.9155,6.9304,6.9673,6.973,6.9749,6.9749,6.9749,6.9749,6.9749,7.0161,7.0361,7.0361,7.0707,7.0898,7.0898,7.0898,7.0898,4.2216,4.3708,4.5125,4.5259,4.7001,4.8938,5.007,5.1226,5.2443,5.3746,5.4385,5.5235,5.6915,0.0,0.0,0.0,0.0,0.0,0.0,0.0,0.0,0.0,0.0,0.0,0.0,0.0,0.0,0.0,0.0,0.0,0.0,0.0,0.0,6.24,6.24,6.24,6.24,6.24,6.24,0.0,6.277,6.2943,6.2943,6.3133,6.3621,6.4393,6.5691,6.6422,6.6736,6.7276,6.7574,6.77,6.77,6.77,6.77,6.77,6.77,6.77,6.77,6.77,6.77,6.77,6.77,6.7727,6.7855,6.7894,6.7946,6.8196,6.8271,6.8321,6.842,6.8469,6.8481,6.8457,6.8469,6.8493,6.8493,6.8493,6.8493,6.8493,6.8493,6.8493,6.8493,6.8493,6.8493,6.8493,6.8493,6.8493,6.8493,6.8493,6.8613,6.8941,6.8975,6.9123,6.9528,6.9567,6.9606,6.9692,6.9995,7.0177,7.0177,7.0177,7.0177,7.0177,7.057,7.0762,7.0762,7.0871,7.0898,7.0898,7.0898,7.0898,4.2566,4.4032,4.5454,4.6097,4.7795,4.9412,4.9863,5.1687,5.3393,5.3907,5.4782,5.5819,0.0,0.0,0.0,0.0,0.0,0.0,0.0,0.0,0.0,0.0,0.0,0.0,0.0,0.0,0.0,0.0,0.0,0.0,0.0,6.24,6.24,6.24,6.24,6.24,6.24,6.24,6.2457,6.2554,6.2847,6.3287,6.3769,6.3878,6.4532,6.5643,6.6392,6.6885,6.7206,6.7561,6.77,6.77,6.77,6.77,6.77,6.77,6.77,6.77,6.77,6.77,6.77,6.77,6.7741,6.7834,6.7959,6.8037,6.8127,6.8334,6.8396,6.8408,6.8481,6.8493,6.8493,6.8493,6.8493,6.8493,6.8493,6.8493,6.8493,6.8493,6.8493,6.8493,6.8493,6.8493,6.8493,6.8493,6.8493,6.8493,6.8493,6.8672,6.887,6.9088,6.9263,6.9548,6.995,6.9986,7.0064,7.0252,7.0474,7.0585,7.0585,7.0585,7.0585,7.0585,7.0784,7.0898,7.0898,7.0898,7.0898,7.0898,7.0898,7.0898,4.2995,4.4267,4.5618,4.698,4.8339,4.9418,4.9701,5.1986,5.4131,5.4406,5.5194,5.6133,0.0,0.0,0.0,0.0,0.0,0.0,0.0,0.0,0.0,0.0,0.0,0.0,0.0,0.0,0.0,0.0,0.0,0.0,6.24,6.24,6.24,6.24,6.24,6.24,6.24,6.242,6.2535,6.271,6.3059,6.377,6.4788,6.4906,6.5611,6.671,6.6827,6.7192,6.77,6.77,6.77,6.77,6.77,6.77,6.77,6.77,6.77,6.77,6.77,6.77,6.77,6.7727,6.782,6.792,6.8088,6.8221,6.8321,6.8457,6.8493,6.8493,6.8493,6.8493,6.8493,6.8493,6.8493,6.8493,6.8493,6.8493,6.8493,6.8493,6.8493,6.8493,6.8493,6.8493,6.8493,6.8493,6.8493,6.853,6.8595,6.8885,6.9155,6.9294,6.9606,6.9968,7.0369,7.04,7.0555,7.0885,7.0898,7.0898,7.0898,7.0898,7.0898,7.0898,7.0898,7.0898,7.0898,7.0898,7.0898,7.0898,7.0898,7.0898,4.3115,4.4267,4.5618,4.698,4.8403,4.9851,5.1304,5.2997,5.466,0.0,5.6605,0.0,0.0,0.0,0.0,0.0,0.0,0.0,0.0,0.0,0.0,0.0,0.0,0.0,0.0,0.0,0.0,0.0,0.0,0.0,6.24,6.24,6.24,6.24,6.24,6.24,6.24,6.2574,6.2671,6.271,6.3661,6.46,6.5495,6.6128,6.6511,6.6721,6.7304,6.7615,6.77,6.77,6.77,6.77,6.77,6.77,6.77,6.77,6.77,6.77,6.77,6.77,6.7727,6.7847,6.7881,6.7946,6.8196,6.8284,6.8321,6.8457,6.8493,6.8493,6.8493,6.8493,6.8493,6.8493,6.8493,6.8493,6.8493,6.8493,6.8493,6.8493,6.8493,6.8493,6.8493,6.8493,6.8493,6.8493,6.8493,6.8643,6.8986,6.9077,6.9376,7.0064,7.0194,7.0377,7.0796,7.0824,7.0838,7.0898,7.0898,7.0898,7.0898,7.0898,7.0898,7.0898,7.0898,7.0898,7.0898,7.0898,7.0898,7.0898,7.0898,7.0898,4.4047,4.4855,4.5618,4.698,4.8078,4.9239,5.0837,5.2428,5.4025,5.5585,0.0,0.0,0.0,0.0,0.0,0.0,0.0,0.0,0.0,0.0,0.0,0.0,0.0,0.0,0.0,0.0,0.0,0.0,0.0,6.24,6.24,6.24,6.24,6.24,6.24,6.24,6.24,6.2593,6.2985,6.3624,6.4583,6.5447,6.6235,6.6942,6.7262,6.7276,6.7574,6.77,6.77,6.77,6.77,6.77,6.77,6.77,6.77,6.77,6.77,6.77,6.77,6.7754,6.7815,6.7868,6.7998,6.8158,6.8259,6.8346,6.842,6.8481,6.8493,6.8493,6.8493,6.8493,6.8493,6.8493,6.8493,6.8493,6.8493,6.8493,6.8493,6.8493,6.8493,6.8493,6.8493,6.8493,6.8572,6.8809,6.8836,6.8986,6.9387,6.9635,6.9914,7.0261,7.0498,7.0719,7.0885,7.0898,7.0898,7.0898,7.0898,7.0898,7.0898,7.0898,7.0898,7.0898,7.0898,7.0898,7.0898,7.0898,7.0898,7.0898,7.0898,7.0898,4.4811,4.5289,4.5618,4.698,4.7827,4.8795,5.0319,0.0,5.3284,0.0,0.0,0.0,0.0,0.0,0.0,0.0,0.0,0.0,0.0,0.0,0.0,0.0,0.0,0.0,0.0,0.0,0.0,0.0,0.0,6.24,6.24,6.24,6.24,6.24,6.24,6.24,6.24,6.2813,6.3477,6.4393,6.5399,6.6174,6.6721,6.7405,6.77,6.77,6.77,6.77,6.77,6.77,6.77,6.77,6.77,6.77,6.77,6.77,6.77,6.77,6.7741,6.782,6.7907,6.7972,6.8145,6.8296,6.8334,6.842,6.8493,6.8493,6.8493,6.8493,6.8493,6.8493,6.8493,6.8493,6.8493,6.8493,6.8493,6.8493,6.853,6.8624,6.866,6.8677,6.8786,6.8809,6.8915,6.9208,6.9242,6.9407,6.9805,7.0107,7.0345,7.0432,7.0727,7.0898,7.0898,7.0898,7.0898,7.0898,7.0898,7.0898,7.0898,7.0898,7.0898,7.0898,7.0898,7.0898,7.0898,7.0898,7.0898,7.0898,7.0898,7.0898,4.493,4.5289,4.5618,4.698,4.7943,4.8996,5.0531,0.0,5.2885,0.0,0.0,0.0,0.0,0.0,0.0,0.0,0.0,0.0,0.0,0.0,0.0,0.0,0.0,0.0,0.0,0.0,0.0,0.0,0.0,6.24,6.24,6.24,6.24,6.24,6.24,6.24,6.24,6.3406,6.4148,6.4601,6.5974,6.6663,6.6721,6.7405,6.77,6.77,6.77,6.77,6.77,6.77,6.77,6.77,6.77,6.77,6.77,6.77,6.77,6.7714,6.786,6.7894,6.7933,6.8196,6.8284,6.8321,6.8445,6.8481,6.8493,6.8493,6.8493,6.8493,6.8493,6.8493,6.8493,6.8493,6.8493,6.8493,6.8493,6.8493,6.8601,6.8989,6.9077,6.9198,6.9567,6.9635,6.9635,6.9664,6.9664,6.9814,7.0219,7.0285,7.0451,7.0824,7.0891,7.0898,7.0898,7.0898,7.0898,7.0898,7.0898,7.0898,7.0898,7.0898,7.0898,7.0898,7.0898,7.0898,7.0898,7.0898,7.0898,7.0898,7.0898,7.0898,4.4401,4.4975,4.5514,4.642,4.7636,4.8996,5.0544,5.156,5.2699,0.0,0.0,0.0,0.0,0.0,0.0,0.0,0.0,0.0,0.0,0.0,0.0,0.0,0.0,0.0,0.0,0.0,0.0,0.0,0.0,0.0,6.0926,6.14,6.1687,6.1687,6.2614,6.344,6.413,6.4599,6.5218,6.5942,6.6452,6.6928,6.7364,6.7588,6.77,6.77,6.77,6.77,6.77,6.77,6.77,6.77,6.77,6.77,6.77,6.77,6.7754,6.7847,6.7881,6.7998,6.817,6.8259,6.8346,6.8432,6.85,6.8493,6.8493,6.8493,6.8493,6.8493,6.8493,6.8493,6.8493,6.8493,6.8493,6.8493,6.8493,6.87,6.893,6.9077,6.9304,6.9528,6.9673,6.9692,6.9786,7.0038,7.0092,7.0228,7.0622,7.0686,7.0741,7.0885,7.0898,7.0898,7.0898,7.0898,7.0898,7.0898,7.0898,7.0898,7.0898,7.0898,7.0898,7.0898,7.0898,7.0898,7.0898,7.0898,7.0898,7.0898,7.0898,7.0898,4.4117,4.4796,4.5454,4.6136,4.7253,4.8593,5.0165,5.0992,5.19,0.0,0.0,0.0,0.0,0.0,0.0,0.0,0.0,0.0,0.0,0.0,0.0,0.0,0.0,0.0,0.0,0.0,0.0,0.0,0.0,0.0,6.0097,6.0605,6.1028,6.1298,6.2725,6.3897,6.4719,6.5283,6.5938,6.6692,6.6928,6.7276,6.77,6.77,6.77,6.77,6.77,6.77,6.77,6.77,6.77,6.77,6.77,6.7727,6.7767,6.7767,6.7842,6.7972,6.8011,6.8158,6.8296,6.8346,6.842,6.8493,6.8493,6.8493,6.8493,6.8493,6.8493,6.8493,6.8493,6.8493,6.8493,6.8493,6.8589,6.87,6.87,6.8908,6.9144,6.9273,6.9625,6.9941,7.0084,7.0109,7.0194,7.0467,7.0498,7.0593,7.0871,7.0898,7.0898,7.0898,7.0898,7.0898,7.0898,7.0898,7.0898,7.0898,7.0898,7.0898,7.0898,7.0898,7.0898,7.0898,7.0898,7.0898,7.0898,7.0898,7.0898,7.0898,7.0898,7.0898,0.0,0.0,0.0,4.6106,4.68,4.7758,4.9403,4.9785,5.0466,0.0,0.0,0.0,0.0,0.0,0.0,0.0,0.0,0.0,0.0,0.0,0.0,0.0,0.0,0.0,0.0,0.0,0.0,0.0,0.0,6.003,6.003,6.0082,6.0474,6.1288,6.2731,6.3684,6.4008,6.539,6.6268,6.6667,6.7318,6.7627,6.7627,6.7627,6.7627,6.7627,6.7627,6.7627,6.7627,6.7682,6.77,6.77,6.77,6.7776,6.7894,6.7894,6.7985,6.8127,6.8259,6.8296,6.8321,6.8445,6.8493,6.8493,6.8493,6.8493,6.8493,6.8493,6.8493,6.8493,6.8506,6.853,6.8542,6.8542,6.8825,6.9112,6.9112,6.9123,6.9242,6.9635,7.0038,7.0432,7.0831,7.0898,7.0898,7.0898,7.0898,7.0898,7.0898,7.0898,7.0898,7.0898,7.0898,7.0898,7.0898,7.0898,7.0898,7.0898,7.0898,7.0898,7.0898,7.0898,7.0898,7.0898,7.0898,7.0898,7.0898,7.0898,7.0898,7.0898,7.0898,7.0898,4.3534,0.0,0.0,0.0,0.0,0.0,4.8826,4.9383,5.0163,0.0,0.0,0.0,0.0,0.0,0.0,0.0,0.0,0.0,0.0,0.0,0.0,0.0,0.0,0.0,0.0,0.0,0.0,0.0,5.8507,5.8507,5.8507,5.9512,6.0701,6.1988,6.3071,6.3941,6.4569,6.5202,6.5574,6.5686,6.5883,6.5962,6.5962,6.5962,6.5962,6.5962,6.5962,6.5962,6.6054,6.7223,6.77,6.77,6.77,6.7776,6.7894,6.7894,6.8055,6.8246,6.8284,6.8358,6.8445,6.85,6.8493,6.8493,6.8493,6.8493,6.8493,6.8493,6.8493,6.856,6.8859,6.9144,6.9366,6.9366,6.9457,6.9528,6.9528,6.9768,7.0003,7.0107,7.0459,7.0762,7.0885,7.0898,7.0898,7.0898,7.0898,7.0898,7.0898,7.0898,7.0898,7.0898,7.0898,7.0898,7.0898,7.0898,7.0898,7.0898,7.0898,7.0898,7.0898,7.0898,7.0898,7.0898,7.0898,7.0898,7.0898,7.0898,7.0898,7.0898,7.0898,7.0898,0.0,0.0,0.0,0.0,0.0,0.0,4.904,4.9527,5.0177,0.0,0.0,0.0,0.0,0.0,0.0,0.0,0.0,0.0,0.0,0.0,0.0,0.0,0.0,0.0,0.0,0.0,0.0,5.79,5.79,5.79,5.79,5.9299,6.0497,6.1359,6.2844,6.3858,6.4344,6.4898,6.5218,6.5307,6.5307,6.5307,6.5307,6.5307,6.5307,6.5307,6.5307,6.5307,6.5362,6.6311,6.6696,6.6746,6.7143,6.7358,6.7524,6.7926,6.8208,6.8383,6.8383,6.8432,6.8493,6.8493,6.8493,6.8493,6.8493,6.8631,6.874,6.874,6.887,6.9044,6.9284,6.9518,6.9692,6.9692,6.9823,6.995,6.995,7.028,7.0498,7.0318,7.0615,7.0898,7.0898,7.0898,7.0898,7.0898,7.0898,7.0898,7.0898,7.0898,7.0898,7.0898,7.0898,7.0898,7.0898,7.0898,7.0898,7.0898,7.0898,7.0898,7.0898,7.0898,7.0898,7.0898,7.0898,7.0898,7.0898,7.0898,7.0898,7.0898,7.0898,7.0898,0.0,0.0,0.0,0.0,0.0,0.0,4.9412,4.9651,5.0099,5.2131,0.0,0.0,0.0,0.0,0.0,0.0,0.0,0.0,0.0,0.0,0.0,0.0,0.0,0.0,0.0,5.7645,5.7679,5.7781,5.7849,5.7936,5.8009,5.9337,6.0134,6.022,6.2259,6.3441,6.3567,6.4362,6.4841,6.5013,6.5013,6.5013,6.5013,6.5013,6.5013,6.5013,6.5013,6.5013,6.5013,6.5013,6.5136,6.54,6.6228,6.6658,6.687,6.7722,6.8179,6.8363,6.8363,6.8438,6.8506,6.8547,6.856,6.8572,6.8631,6.8881,6.9166,6.9166,6.9467,6.9768,6.9768,6.9796,6.9833,6.9833,7.0118,7.0369,7.0369,7.0656,7.0784,7.0443,7.0656,7.0898,7.0898,7.0898,7.0898,7.0898,7.0898,7.0898,7.0898,7.0898,7.0898,7.0898,7.0905,7.0912,7.0912,7.0912,7.0912,7.0912,7.0905,7.0898,7.0898,7.0898,7.0898,7.0898,7.0898,7.0898,7.0898,7.0898,7.0898,7.0898,7.0898,7.0898,0.0,0.0,0.0,0.0,0.0,0.0,4.7764,4.7807,4.8282,0.0,0.0,0.0,0.0,0.0,0.0,0.0,0.0,0.0,0.0,0.0,0.0,0.0,0.0,0.0,0.0,5.6122,5.6393,5.6968,5.756,5.8154,5.8668,5.9536,6.0322,6.0955,6.2041,6.2675,6.2816,6.3099,6.3245,6.3288,6.3288,6.3288,6.3288,6.3288,6.3288,6.3288,6.3288,6.3288,6.3288,6.3288,6.4153,6.5486,6.5659,6.5847,6.6038,6.6216,6.6814,6.7528,6.7528,6.7955,6.8547,6.8881,6.8967,6.9044,6.9366,6.9508,6.9577,6.9577,6.9878,7.0186,7.0186,7.0408,7.0664,7.0664,7.0727,7.0777,7.0777,7.0838,7.0885,7.0803,7.0845,7.0898,7.0898,7.0898,7.0898,7.0898,7.0898,7.0898,7.0898,7.0898,7.0898,7.0898,7.0952,7.0979,7.0979,7.0979,7.0979,7.0979,7.0932,7.0898,7.0898,7.0898,7.0898,7.0898,7.0898,7.0898,7.0898,7.0898,7.0898,7.0898,7.0898,7.0898,0.0,0.0,0.0,4.63,0.0,0.0,0.0,4.8003,4.8366,4.9789,5.0025,0.0,0.0,0.0,0.0,0.0,0.0,0.0,0.0,0.0,0.0,0.0,0.0,0.0,0.0,5.5699,5.5851,5.6223,5.6881,5.7569,5.8306,5.934,6.029,6.117,6.1974,6.2449,6.2603,6.273,6.2793,6.2793,6.2793,6.2793,6.2793,6.2793,6.2793,6.2793,6.2793,6.2793,6.2793,6.2793,6.3413,6.4396,6.4783,6.5053,6.5271,6.5757,6.6358,6.6956,6.6956,6.7616,6.8471,6.8693,6.9038,6.9447,6.9635,6.9842,7.003,7.0236,7.0451,7.06,7.06,7.0748,7.0898,7.0898,7.0898,7.0898,7.0898,7.0898,7.0898,7.0898,7.0898,7.0898,7.0898,7.0898,7.0898,7.0898,7.0898,7.0898,7.0898,7.0898,7.0898,7.0898,7.0932,7.0952,7.0952,7.0979,7.0985,7.0952,7.0985,7.0985,7.0952,7.0985,7.1005,7.1005,7.1005,7.1005,7.1005,7.1005,7.0985,7.0952,7.0952,7.0972,0.0,0.0,0.0,0.0,0.0,4.7516,0.0,0.0,0.0,4.9809,4.9911,0.0,0.0,0.0,0.0,0.0,0.0,0.0,0.0,0.0,0.0,0.0,0.0,0.0,0.0,5.5395,5.5479,5.5479,5.6183,5.6942,5.7728,5.8921,6.0067,6.1167,6.1837,6.2316,6.2641,6.2761,6.2793,6.2793,6.2793,6.2793,6.2793,6.2793,6.2793,6.2793,6.2793,6.2793,6.2793,6.2836,6.2966,6.3256,6.3921,6.4257,6.4515,6.5417,6.6,6.6377,6.6459,6.7218,6.8186,6.826,6.8939,6.9695,6.9695,7.0046,7.0482,7.081,7.0898,7.0898,7.0898,7.0898,7.0898,7.0898,7.0898,7.0898,7.0898,7.0898,7.0898,7.0898,7.0898,7.0898,7.0898,7.0898,7.0898,7.0898,7.0898,7.0905,7.0919,7.0919,7.0925,7.0939,7.0952,7.0965,7.0965,7.1011,7.1018,7.0965,7.105,7.1075,7.1024,7.1075,7.11,7.11,7.11,7.11,7.11,7.11,7.1075,7.1024,7.1024,7.105,0.0,0.0,0.0,0.0,4.7249,0.0,0.0,0.0,4.7709,4.862,0.0,0.0,0.0,0.0,0.0,0.0,0.0,0.0,0.0,0.0,0.0,0.0,0.0,0.0,0.0,0.0,5.4718,5.4718,5.5892,5.6929,5.7668,5.8349,5.9484,6.116,6.13,6.1801,6.2768,6.278,6.2793,6.2793,6.2793,6.2793,6.2793,6.2793,6.2793,6.2793,6.2793,6.2793,6.2805,6.2929,6.3063,6.3201,6.3293,6.349,6.3773,6.4246,6.489,6.5583,6.5937,6.6615,6.7398,6.7757,6.8698,6.9699,6.9699,7.0226,7.0838,7.0891,7.0898,7.0898,7.0898,7.0898,7.0898,7.0898,7.0898,7.0898,7.0898,7.0898,7.0898,7.0898,7.0898,7.0898,7.0898,7.0898,7.0898,7.0898,7.0898,7.0919,7.0985,7.0992,7.1011,7.1075,7.1136,7.1172,7.1172,7.1164,7.1164,7.1178,7.113,7.11,7.1087,7.11,7.11,7.11,7.11,7.11,7.11,7.11,7.11,7.1087,7.1087,7.1093,0.0,0.0,0.0,0.0,0.0,0.0,4.7309,0.0,4.7402,0.0,0.0,0.0,0.0,0.0,0.0,0.0,5.1789,0.0,0.0,0.0,0.0,0.0,0.0,0.0,0.0,0.0,0.0,0.0,0.0,5.6435,5.7629,5.8272,5.9222,6.0583,6.107,6.1579,6.2108,6.2572,6.2793,6.2793,6.2793,6.2793,6.2793,6.2793,6.2793,6.2793,6.2793,6.2842,6.2917,6.2978,6.3123,6.3319,6.3319,6.3424,6.3647,6.4046,6.4537,6.5058,6.5449,6.6275,6.7244,6.7932,6.8501,6.8949,6.8949,6.9526,7.0206,7.0206,7.0533,7.0898,7.0898,7.0898,7.0898,7.0898,7.0898,7.0898,7.0898,7.0932,7.0959,7.0959,7.0992,7.1018,7.1018,7.0985,7.0972,7.1011,7.1018,7.103,7.1056,7.1062,7.1068,7.11,7.113,7.1142,7.1142,7.1184,7.119,7.1148,7.1154,7.1178,7.1213,7.1213,7.1213,7.1213,7.1213,7.1213,7.1213,7.1213,7.1213,7.1213,7.1178,7.1184,4.7309,0.0,0.0,0.0,0.0,0.0,0.0,0.0,0.0,0.0,0.0,0.0,0.0,0.0,0.0,0.0,0.0,0.0,0.0,0.0,0.0,0.0,0.0,0.0,0.0,0.0,0.0,5.4343,5.5009,5.5977,5.7303,5.7949,5.8767,5.9829,6.0432,6.0909,6.1263,6.2071,6.2462,6.2462,6.2683,6.2793,6.2793,6.2793,6.2793,6.2793,6.283,6.2904,6.3014,6.3087,6.3282,6.3569,6.3602,6.3727,6.3952,6.4231,6.4566,6.4923,6.5321,6.6033,6.6885,6.7513,6.7853,6.8045,6.8045,6.8648,6.9334,6.9334,6.9937,7.0571,7.0571,7.0725,7.0898,7.0898,7.0898,7.0905,7.0925,7.0965,7.1005,7.1024,7.1068,7.1106,7.1124,7.1075,7.1043,7.1093,7.11,7.1106,7.113,7.113,7.1136,7.1154,7.1154,7.1154,7.1154,7.1201,7.1213,7.116,7.1207,7.1253,7.1291,7.1297,7.1297,7.1297,7.1297,7.1297,7.1297,7.1297,7.1297,7.1291,7.1253,7.1253,0.0,0.0,0.0,4.7309,0.0,0.0,0.0,0.0,4.7309,0.0,0.0,0.0,0.0,0.0,0.0,0.0,0.0,0.0,0.0,0.0,0.0,0.0,0.0,0.0,0.0,0.0,0.0,5.4343,5.5009,5.5733,5.6492,5.7118,5.7929,5.8993,5.906,5.9523,6.0438,6.1245,6.163,6.1649,6.2438,6.2793,6.2793,6.2793,6.2793,6.2823,6.2941,6.3002,6.3026,6.3277,6.3617,6.3988,6.412,6.4388,6.4672,6.4681,6.4932,6.5348,6.5729,6.5917,6.5936,6.5981,6.6519,6.7135,6.7135,6.7744,6.8449,6.8449,6.9064,6.9744,6.9744,7.0321,7.0898,7.0898,7.0898,7.0919,7.0985,7.0998,7.1024,7.1087,7.11,7.1124,7.119,7.1142,7.11,7.11,7.11,7.1124,7.1195,7.1207,7.1224,7.128,7.1286,7.1286,7.1286,7.1311,7.1311,7.1286,7.1311,7.1291,7.1297,7.1297,7.1297,7.1297,7.1297,7.1297,7.1297,7.1297,7.1297,7.1297,7.1291,7.1291,0.0,0.0,4.7488,4.7488,0.0,0.0,0.0,0.0,0.0,0.0,0.0,0.0,0.0,0.0,0.0,0.0,0.0,0.0,0.0,0.0,0.0,0.0,0.0,0.0,0.0,0.0,0.0,5.4981,5.5302,5.5974,0.0,5.751,5.7872,5.833,5.8862,5.9277,5.96,6.0401,6.1062,6.1606,6.1869,6.2279,6.2793,6.2793,6.2842,6.2929,6.299,6.3099,6.3265,6.3347,6.3702,6.414,6.418,6.4576,6.5089,6.5089,6.518,6.5363,6.5768,6.5904,6.5904,6.5904,6.6077,6.6308,6.6308,6.6878,6.7532,6.7532,6.8167,6.8834,6.8834,6.9508,7.0176,7.0176,7.0613,7.1037,7.1062,7.1106,7.1148,7.1166,7.1207,7.1236,7.1264,7.1247,7.123,7.123,7.123,7.1241,7.1264,7.1264,7.1275,7.1291,7.1297,7.1297,7.1297,7.1297,7.1297,7.1297,7.1297,7.1297,7.1297,7.1297,7.1297,7.1297,7.1297,7.1297,7.1297,7.1297,7.1297,7.1297,7.1297,7.1297,4.8613,4.828,0.0,4.777,4.773,0.0,4.7467,0.0,0.0,0.0,0.0,0.0,0.0,0.0,0.0,0.0,0.0,0.0,0.0,5.0423,0.0,0.0,0.0,0.0,0.0,0.0,5.3585,5.4875,5.5279,5.6085,0.0,0.0,5.7804,5.7997,5.851,5.8774,5.8774,5.9563,6.0236,6.075,6.1318,6.1869,6.2383,6.2714,6.2917,6.3014,6.3099,6.3242,6.3405,6.3602,6.3965,6.4398,6.4539,6.4962,6.5511,6.5356,6.5385,6.5554,6.5801,6.5904,6.5904,6.5904,6.5904,6.5904,6.5904,6.6269,6.6731,6.7019,6.7494,6.8013,6.8347,6.8886,6.9329,6.9373,6.9796,7.0295,7.0609,7.0709,7.084,7.1178,7.1269,7.1297,7.1297,7.1297,7.1297,7.1297,7.1297,7.1297,7.1297,7.1297,7.1297,7.1297,7.1297,7.1297,7.1297,7.1297,7.1297,7.1297,7.1297,7.1297,7.1297,7.1297,7.1297,7.1297,7.1297,7.1297,7.1297,7.1297,7.1297,7.1297,7.1297,7.1297]}]]